GFSCGP_prec_cloud_003.txt.gz
Cloud_Cover
0 0 0 0 0 0 0 5 0 0 0 0 0 0 0 0 0 0 0 0 0 0 0 0 0 0 0 0 0 0 0 0 6 12 21 14 4 0 0 0 0 0 0 0
0 0 0 0 0 0 0 5 1 12 3 10 40 13 0 3 0 4 2 0 0 0 0 0 0 0 0 0 0 0 0 0 0 5 0 0 0 0 0 0 0 0 0 0
0 0 0 0 0 0 0 0 1 1 5 83 92 74 5 5 3 10 22 4 0 0 4 0 0 0 0 0 0 0 0 0 0 0 2 11 18 14 5 11 26 8 0 0
0 0 0 0 0 0 0 0 0 5 5 1 1 0 5 92 2 59 54 5 0 0 67 8 0 0 0 0 0 0 0 0 0 0 2 1 22 14 5 0 12 0 0 0
0 0 0 0 0 0 0 3 4 4 0 0 0 0 0 5 0 64 46 7 0 0 5 1 0 0 0 0 0 0 0 0 0 0 0 11 4 0 0 0 0 0 0 0
0 0 0 0 0 0 0 16 5 0 0 0 0 0 0 0 0 0 0 0 1 5 0 2 0 0 0 0 0 0 0 0 1 1 5 2 0 0 2 0 0 0 0 0
0 0 0 0 0 0 0 5 4 0 0 0 0 0 0 0 1 0 0 0 0 0 0 0 0 0 0 0 0 0 0 0 0 2 2 0 0 0 0 0 0 0 0 0
0 0 0 0 0 0 0 5 0 0 0 0 0 0 0 0 5 0 4 0 0 0 0 0 0 0 0 0 0 0 0 0 0 0 0 0 0 0 0 0 0 2 4 0
0 0 0 0 0 0 0 0 0 0 0 0 0 0 0 0 28 1 0 0 0 0 0 0 0 0 1 16 5 5 0 0 0 0 0 0 0 0 0 0 5 5 5 4
0 0 0 0 0 0 0 0 0 0 0 0 0 0 0 0 0 3 0 0 0 0 0 0 0 0 0 1 1 0 0 0 0 0 0 0 0 0 2 5 5 5 6 52
0 0 0 0 0 0 0 0 0 0 0 0 0 0 0 0 0 0 3 1 0 0 0 0 0 0 0 0 0 0 0 3 44 69 0 0 0 11 27 60 26 15 16 5
0 0 0 0 0 0 0 0 0 0 0 0 0 0 0 0 0 0 5 5 0 0 0 0 0 0 0 0 0 0 0 2 96 71 59 5 17 5 5 5 100 100 100 63
0 0 0 0 0 0 0 0 0 0 0 0 0 0 0 0 0 0 0 0 0 0 0 0 0 0 0 0 0 0 0 0 3 1 31 0 36 2 4 3 69 100 89 35
0 0 0 0 0 0 0 0 0 0 0 0 0 0 0 0 0 0 0 0 0 0 0 0 0 0 0 0 0 0 0 0 0 0 0 0 0 2 22 77 100 88 19 83
3 0 0 0 0 0 0 0 0 0 0 0 0 0 0 0 0 0 0 0 0 0 0 0 0 0 0 0 0 0 5 0 0 0 0 0 0 67 98 100 100 30 6 16
1 0 0 0 0 0 0 0 0 3 17 0 0 0 0 0 0 0 0 0 0 0 0 0 0 0 0 0 0 0 0 0 0 4 4 1 100 100 100 100 99 94 78 83
5 4 0 0 0 0 70 8 4 4 29 28 1 0 0 0 0 0 0 0 0 0 0 0 0 0 0 0 0 0 0 0 27 0 55 90 100 100 100 61 98 88 23 83
0 4 4 0 2 100 98 100 67 73 11 100 15 0 0 0 2 3 0 4 0 0 0 0 0 0 1 5 5 0 0 0 0 3 3 100 100 100 100 83 76 10 48 100
100 21 63 0 0 87 98 100 94 85 55 3 0 18 55 17 5 5 1 5 5 2 2 2 3 5 5 5 5 5 0 0 0 1 1 77 100 100 100 100 32 100 99 100
100 100 100 71 1 100 59 100 44 2 58 86 9 21 83 98 98 55 4 99 92 12 100 100 100 28 34 3 78 5 1 2 0 0 0 16 100 100 100 84 99 100 100 100
100 100 73 100 100 98 100 100 78 46 0 0 43 82 24 62 23 5 4 1 3 5 42 76 78 43 53 5 50 100 14 3 0 0 26 56 37 98 72 90 100 100 100 100
48 100 93 69 100 100 20 90 100 100 99 3 0 0 3 0 3 3 72 91 30 56 5 6 59 8 64 18 96 69 5 0 0 0 4 18 100 100 100 100 100 100 100 100
99 32 100 100 100 23 96 5 39 100 95 100 96 8 1 2 5 13 88 6 100 100 91 100 63 95 100 100 100 6 5 1 68 11 62 90 92 100 100 100 100 100 100 100
100 89 100 100 98 85 26 37 86 100 94 100 97 100 100 67 68 56 90 98 11 59 100 100 74 86 87 100 69 39 34 9 84 100 100 100 100 100 100 100 100 100 100 100
100 100 97 100 100 100 28 9 100 100 100 52 71 100 93 90 85 100 100 100 77 100 100 97 59 59 96 80 64 4 88 100 100 100 100 100 100 100 100 98 100 100 100 92
100 98 100 96 43 99 76 100 78 92 90 100 98 93 100 100 100 100 100 100 53 100 29 100 100 98 64 22 99 5 97 100 100 100 100 98 100 100 100 100 100 100 100 100

GFSCGP_prec_cloud_006.txt.gz
Cloud_Cover
0 0 0 0 0 0 0 0 0 0 1 5 5 5 5 0 0 0 0 0 0 0 0 0 0 0 0 0 0 0 0 0 6 18 32 28 22 8 0 2 0 0 0 0
0 0 0 0 0 0 0 0 0 3 2 4 70 97 8 4 1 4 1 2 0 0 0 2 0 0 0 0 0 0 0 0 0 12 11 0 4 8 4 0 0 0 0 0
0 0 0 0 0 0 0 0 0 0 5 5 8 7 4 49 5 2 5 5 1 0 3 6 2 0 0 0 0 0 0 0 0 1 20 30 23 24 28 21 17 10 0 0
0 0 0 0 0 0 0 0 0 0 5 5 5 0 5 77 23 2 5 5 3 0 0 2 0 0 0 0 0 0 0 0 0 8 4 1 26 26 11 1 14 8 0 0
0 0 0 0 0 0 0 0 0 4 9 5 2 2 0 5 5 2 0 1 4 0 0 0 0 0 0 0 0 0 0 0 0 0 0 0 10 4 0 0 7 0 0 0
0 0 0 0 0 0 0 2 15 5 56 4 0 0 0 0 0 3 4 4 0 0 0 0 0 0 0 0 0 0 0 0 0 0 0 0 0 0 0 0 16 0 0 0
0 0 0 0 0 0 0 0 1 2 22 4 0 0 0 0 0 0 3 5 0 0 0 0 0 0 0 0 0 0 0 0 0 0 0 0 0 0 0 0 0 0 0 0
0 0 0 0 0 0 0 0 0 5 5 4 0 0 0 0 0 0 1 1 0 0 0 0 0 0 0 0 0 0 0 0 0 0 0 5 0 0 0 0 0 0 2 5
0 0 0 0 0 0 0 0 0 7 2 0 0 0 0 0 0 0 0 5 0 0 0 0 0 0 0 0 0 0 0 0 0 0 3 8 0 0 0 1 3 0 3 41
0 0 0 0 0 0 0 0 0 4 1 0 0 0 0 0 0 0 0 1 0 1 0 0 0 0 0 0 0 0 0 0 0 4 0 0 0 0 7 73 79 1 1 5
0 0 0 0 0 0 0 0 0 0 2 0 0 0 0 0 0 0 0 0 0 0 0 0 0 0 0 0 0 0 0 0 0 5 5 36 100 31 61 15 12 5 1 3
0 0 0 0 0 0 0 0 0 0 0 0 0 0 0 0 0 0 0 0 0 0 0 0 0 0 0 0 0 0 0 0 0 7 16 100 1 100 4 95 22 5 6 73
0 0 0 0 0 0 0 0 0 0 0 0 0 0 0 0 0 0 0 0 0 0 0 0 0 0 0 0 0 0 0 0 0 1 91 100 100 100 94 1 10 100 75 100
1 0 0 0 0 0 0 0 0 0 0 0 0 0 0 0 0 0 0 0 0 0 0 0 0 0 0 0 0 0 0 0 0 0 0 55 100 100 97 30 88 100 100 100
5 0 0 0 0 0 0 0 0 0 0 0 0 0 0 0 0 0 0 0 0 0 0 0 0 0 0 0 2 0 0 0 0 0 0 4 1 10 9 100 100 100 100 100
0 0 0 0 0 0 0 0 0 0 0 0 0 0 0 0 0 0 0 0 0 0 0 0 0 0 0 0 0 0 0 0 0 0 0 0 5 99 43 100 100 100 100 100
12 0 0 0 0 0 0 0 0 0 0 0 0 0 0 0 0 0 0 0 0 0 0 0 0 0 0 0 0 0 0 1 5 0 0 0 57 16 52 100 100 100 100 100
100 12 0 0 0 0 0 0 0 0 0 0 0 0 5 2 0 0 0 0 0 0 0 0 2 0 0 0 0 0 5 4 0 1 2 3 14 13 21 100 100 100 100 100
22 99 100 4 0 0 0 0 0 5 3 4 5 0 43 32 0 0 0 0 0 2 38 100 36 79 5 2 4 5 5 5 3 26 51 4 2 0 66 100 100 100 100 100
100 95 100 100 91 4 0 0 1 96 100 11 52 0 5 4 0 0 0 6 31 38 46 5 5 5 100 94 40 16 5 5 19 26 61 25 0 2 2 98 100 100 100 100
100 100 100 100 100 79 0 0 86 100 0 100 22 0 0 0 1 66 100 100 16 36 5 1 93 52 5 5 5 5 12 33 6 13 98 85 14 12 100 99 100 100 100 100
100 100 100 100 100 100 92 33 100 24 53 94 6 58 94 89 50 60 100 100 98 98 18 4 0 2 11 74 48 100 88 100 57 90 31 58 74 89 100 100 100 100 100 100
100 100 100 46 12 95 80 5 66 92 100 98 93 100 60 9 100 51 82 7 5 4 24 5 2 4 5 100 63 92 48 100 22 24 24 93 100 76 100 100 100 100 100 89
100 100 100 100 100 100 97 71 100 72 6 48 96 100 98 88 10 12 8 5 18 37 15 66 100 99 100 11 5 13 58 28 14 5 62 100 100 100 97 100 100 100 100 100
100 100 100 100 100 100 100 95 87 100 69 87 77 51 38 20 95 98 83 99 100 92 39 5 10 44 100 86 80 83 10 5 19 42 29 100 100 100 100 100 100 100 100 100
100 100 100 97 100 100 100 100 100 100 100 100 100 80 57 100 100 100 100 100 100 39 27 65 59 100 100 100 100 92 100 90 95 4 36 100 100 100 100 100 100 100 100 94

GFSCGP_prec_cloud_009.txt.gz
Cloud_Cover
0 0 0 0 0 0 0 0 0 5 5 5 5 5 0 0 0 0 0 0 0 0 0 0 0 0 0 0 0 0 0 0 0 0 0 0 0 0 0 0 0 0 0 0
0 0 0 0 0 0 0 0 0 2 5 4 5 5 5 0 0 0 0 0 0 0 0 0 0 0 0 0 0 0 0 0 0 0 5 1 0 0 2 7 2 0 0 0
0 0 0 0 0 0 0 0 0 0 4 5 5 5 1 0 0 3 1 0 1 0 0 4 2 0 0 0 0 0 0 0 0 2 37 23 10 6 0 2 13 1 0 0
0 0 0 0 0 0 0 0 0 0 0 0 24 1 5 5 5 1 1 0 4 0 0 0 0 0 0 0 0 0 0 0 0 20 7 2 0 4 32 23 2 4 2 0
0 0 0 0 0 0 0 0 0 0 0 0 2 0 0 5 0 0 0 0 0 3 0 0 0 0 0 0 0 0 0 0 0 2 0 0 6 13 26 0 1 29 37 18
0 0 0 0 0 0 0 0 0 0 0 2 0 0 0 0 0 0 1 4 2 0 0 0 0 0 0 0 0 0 0 0 0 0 0 0 0 4 3 0 0 0 1 0
0 0 0 0 0 0 0 0 0 0 0 0 0 0 0 0 0 0 3 30 0 0 0 0 0 0 0 0 0 0 0 0 0 0 0 0 0 0 0 0 0 0 0 0
0 0 0 0 0 0 0 0 0 0 0 0 0 0 0 0 0 0 0 1 0 0 0 0 0 0 0 0 0 0 0 0 0 0 0 0 0 0 0 0 0 0 0 0
0 0 0 0 0 0 0 0 0 0 0 0 0 0 0 0 0 0 0 0 0 0 0 0 0 0 0 0 0 0 0 0 0 0 0 0 1 0 0 0 1 0 4 0
0 0 0 0 0 0 0 0 0 0 0 2 0 0 0 0 0 0 0 0 0 1 0 2 0 0 0 0 0 0 0 0 0 0 0 0 0 0 1 35 20 1 4 3
0 0 0 0 0 0 0 0 0 0 0 0 0 0 0 0 0 0 0 0 0 0 0 0 0 0 0 0 0 0 0 0 0 0 0 5 4 41 98 7 17 81 70 74
0 0 0 0 0 0 0 0 0 0 0 0 0 0 0 0 0 0 0 0 0 0 0 0 0 0 0 0 0 0 0 0 0 0 0 3 2 26 89 98 5 100 31 100
0 0 0 0 0 0 0 0 0 0 0 0 0 0 0 0 0 0 0 0 0 0 0 0 0 0 0 0 0 0 0 0 0 0 0 0 5 94 18 94 13 55 100 100
0 0 0 0 0 0 0 0 0 0 0 0 0 0 2 0 0 0 0 0 0 0 0 0 0 0 0 0 0 0 0 0 0 0 0 0 0 52 90 12 74 100 100 100
0 0 0 0 0 0 0 0 0 0 0 0 2 0 1 0 0 0 0 0 0 0 0 0 0 0 0 0 0 0 0 5 5 4 5 5 0 0 2 23 19 100 100 100
4 0 0 0 0 0 0 0 0 0 0 0 0 0 0 0 0 0 0 0 0 0 0 0 0 0 0 0 0 0 0 5 0 1 4 0 0 0 0 16 6 100 100 100
22 3 5 0 0 0 0 0 0 0 0 0 0 0 0 0 0 0 0 2 0 0 0 0 0 0 0 0 0 0 0 0 0 0 4 0 2 17 13 18 6 100 100 100
32 61 34 30 3 0 0 0 0 0 0 0 0 0 0 0 0 0 2 4 0 0 0 0 0 0 0 0 0 0 0 0 0 0 0 4 39 54 53 36 13 85 100 100
21 7 34 100 91 0 0 0 0 0 0 0 0 0 0 0 5 9 5 0 0 0 0 2 0 0 0 0 0 0 2 5 50 4 1 66 46 62 79 85 66 99 100 100
5 5 91 100 100 28 0 0 0 0 0 0 0 0 0 1 5 67 5 5 3 3 5 40 3 0 0 0 0 0 79 94 15 5 5 25 56 66 100 100 100 97 83 100
1 5 100 100 100 85 73 4 0 0 0 0 0 0 0 0 6 90 4 25 41 12 28 75 6 9 3 0 0 0 0 4 2 55 25 63 100 57 87 100 100 100 100 100
0 57 100 100 100 100 100 100 25 0 0 0 0 10 5 69 0 0 0 5 55 98 94 82 100 10 47 4 3 0 0 1 23 100 69 100 100 100 78 89 100 97 100 100
0 65 100 100 100 100 100 100 100 28 0 0 85 14 91 81 79 35 5 5 39 94 40 100 97 100 91 58 5 5 5 20 60 46 100 100 100 100 100 100 83 85 100 100
0 2 99 100 100 100 61 99 100 100 71 27 90 14 100 17 100 94 98 18 10 99 100 83 2 5 5 4 5 8 98 100 98 99 100 100 100 96 72 43 12 69 99 100
86 100 100 100 100 100 100 100 100 87 5 4 5 77 79 97 69 100 93 99 32 4 16 7 35 48 5 45 4 5 35 39 24 51 80 67 11 16 26 43 25 84 100 100
100 100 100 100 100 100 100 100 100 100 100 96 100 100 72 4 100 99 24 49 78 100 91 100 52 81 19 5 27 43 50 54 62 76 56 27 64 60 83 56 45 92 100 100

GFSCGP_prec_cloud_012.txt.gz
Cloud_Cover
0 0 0 0 0 0 5 5 5 5 4 5 4 0 0 0 0 0 0 0 0 0 0 0 0 0 0 0 0 6 5 1 5 0 18 26 25 25 5 0 4 13 17 14
0 0 0 0 0 0 0 5 5 39 5 4 8 5 0 0 0 0 0 0 0 0 0 0 0 0 0 0 0 6 3 0 3 4 6 15 28 8 31 19 10 21 32 28
0 0 0 0 0 0 0 0 5 92 2 5 5 5 0 0 0 0 0 0 0 0 0 0 0 0 0 0 0 0 0 1 18 2 3 16 21 0 7 1 2 10 13 22
0 0 0 0 0 0 0 0 4 62 7 5 1 14 5 1 0 0 0 0 0 0 0 0 0 0 0 0 0 0 0 0 3 14 4 1 0 0 0 0 0 0 1 8
0 0 0 0 0 0 0 0 0 4 27 33 75 4 5 2 0 0 0 0 0 0 0 0 0 0 0 0 0 0 0 0 0 2 4 0 7 0 0 0 0 0 1 0
0 0 0 0 0 0 0 2 3 4 5 5 36 29 3 4 0 0 0 0 0 0 0 0 0 0 0 0 0 0 0 0 0 0 3 0 0 0 0 0 0 0 0 0
0 0 0 0 0 0 0 0 4 0 5 6 7 5 0 1 0 0 0 0 0 0 0 0 0 0 0 0 0 0 0 0 0 0 0 0 2 0 0 0 0 0 0 0
0 0 0 0 0 0 0 0 0 4 5 16 5 6 0 0 0 0 0 0 4 0 0 0 0 0 0 0 0 0 0 0 0 0 0 0 0 0 0 0 0 0 0 0
0 0 0 0 0 0 0 0 0 41 40 49 12 1 0 0 0 0 0 0 0 0 0 0 0 0 0 0 0 0 0 0 0 0 0 0 0 0 0 0 0 0 0 0
0 0 0 0 0 0 0 0 0 1 60 94 7 6 0 0 0 0 0 0 0 0 0 0 0 0 0 0 0 0 0 0 0 0 0 0 0 0 0 0 16 67 7 19
0 0 0 0 0 0 0 0 0 3 4 22 55 3 0 0 0 0 0 0 4 1 0 0 0 0 0 0 0 0 0 0 0 0 0 0 0 0 3 4 67 60 69 32
0 0 0 0 0 0 0 0 0 0 0 5 5 1 5 2 0 0 0 5 1 0 0 0 0 0 0 0 0 0 0 0 0 0 0 0 0 0 0 5 99 96 92 97
0 0 4 0 0 0 0 0 0 0 0 4 5 0 3 0 0 0 0 0 0 0 0 0 0 0 0 0 0 0 0 0 0 0 0 0 0 0 0 25 5 46 71 51
0 0 0 0 0 0 0 0 0 0 0 0 2 73 14 2 0 0 0 0 0 0 0 0 0 0 0 0 0 0 0 0 0 0 0 0 1 0 2 4 10 30 95 88
0 0 4 0 1 4 4 0 0 0 0 1 1 12 100 100 38 0 0 0 0 0 0 0 0 0 0 0 0 0 0 0 0 0 0 0 3 19 9 0 22 8 16 45
0 0 0 5 4 1 5 5 0 0 0 0 0 0 5 100 100 4 0 0 0 0 0 0 12 5 0 0 0 0 0 0 0 0 0 0 11 69 33 24 72 9 23 5
0 0 0 0 39 82 21 0 1 3 0 0 0 0 5 29 5 5 0 0 0 0 0 0 8 16 0 0 0 0 0 0 0 0 0 0 6 84 71 46 93 100 27 12
1 0 32 85 100 82 0 0 0 0 0 0 0 0 0 0 2 0 0 0 0 0 0 0 0 1 0 0 0 0 0 0 0 0 0 0 2 38 100 48 100 100 99 56
0 0 43 68 100 82 1 42 3 2 0 0 0 0 0 0 0 0 0 0 0 5 1 2 0 0 0 0 0 0 0 0 0 0 0 4 7 88 93 95 83 92 100 86
2 0 1 100 69 98 97 1 0 0 0 0 0 0 0 5 0 0 0 0 1 5 2 0 0 0 0 0 0 0 0 0 0 0 0 31 20 19 100 98 100 100 100 86
5 5 4 100 97 75 0 65 100 0 0 0 0 0 0 0 0 0 0 0 3 1 0 0 5 6 0 0 0 0 5 4 0 0 0 0 9 63 100 100 100 100 100 100
19 5 13 100 88 54 4 100 100 21 0 0 0 0 0 0 0 0 0 5 5 3 5 4 5 89 32 2 4 16 5 4 0 3 0 4 80 99 100 100 100 100 100 100
97 66 100 7 20 0 88 100 100 95 34 0 0 0 0 0 0 0 1 10 99 5 5 47 100 64 50 73 88 100 95 23 3 0 10 98 100 100 100 100 100 100 100 100
96 100 36 5 0 3 100 100 100 100 100 63 28 10 0 0 0 0 7 98 46 11 76 94 100 98 97 37 3 14 1 5 2 64 94 100 100 100 100 100 100 100 100 100
34 86 19 3 2 65 100 100 100 100 74 53 2 6 16 36 99 57 35 72 28 38 78 97 100 100 71 38 68 90 71 89 65 100 100 100 100 100 100 100 100 100 94 100
100 100 88 23 5 14 97 100 100 98 100 100 100 91 66 100 100 10 98 89 100 29 100 97 99 56 99 95 97 90 96 76 65 78 30 14 7 81 86 60 56 88 42 87

GFSCGP_prec_cloud_015.txt.gz
Cloud_Cover
0 0 0 0 0 0 5 98 93 100 43 1 5 52 2 0 0 2 0 0 0 0 0 0 0 0 0 0 0 0 0 0 0 2 5 11 100 91 90 38 100 26 0 34
0 0 0 0 0 0 0 56 60 100 42 54 80 100 99 5 0 0 0 0 0 0 0 0 0 0 0 0 0 0 0 0 0 6 0 43 76 33 12 2 13 3 86 46
0 0 0 0 0 0 0 5 92 91 44 96 53 100 97 71 2 0 0 0 0 0 0 0 0 0 0 0 0 0 0 0 0 0 10 1 12 0 7 15 8 0 0 4
0 0 0 0 0 0 0 2 21 98 71 100 14 99 96 20 46 1 0 0 0 0 0 0 0 0 0 0 0 0 0 0 0 0 20 10 0 0 0 0 0 10 23 0
0 0 0 0 0 0 0 3 5 61 100 87 91 88 97 98 6 4 0 0 0 0 0 0 0 0 0 0 0 2 0 0 0 0 0 2 0 0 0 0 0 0 0 0
0 0 0 0 0 0 0 0 5 14 100 97 100 96 27 100 98 87 84 1 0 0 0 0 0 0 0 0 0 0 0 0 0 0 0 0 13 0 0 0 0 0 0 0
0 0 0 0 0 0 0 0 5 62 100 48 100 93 100 70 25 14 21 91 16 0 0 0 0 0 0 0 0 0 0 0 0 0 0 0 0 0 0 2 0 0 0 0
0 0 0 0 2 0 0 0 0 5 80 97 55 100 71 100 55 98 84 32 28 0 0 0 0 0 0 0 0 0 0 0 0 0 0 0 0 0 0 0 0 0 0 0
0 0 0 0 0 1 0 0 0 5 73 96 97 58 96 97 89 76 5 5 37 1 0 0 0 0 0 0 0 0 0 0 0 0 0 0 0 0 0 0 0 0 2 1
0 0 0 0 0 0 0 3 0 0 34 100 99 93 100 53 4 5 5 5 5 4 0 0 0 0 0 0 0 0 0 0 0 0 0 0 0 0 0 0 0 1 5 5
0 0 0 0 0 1 4 0 0 0 19 35 100 100 100 100 88 0 2 5 5 5 0 0 0 0 0 0 0 0 0 0 0 0 0 0 0 0 0 0 0 0 3 66
0 0 0 0 0 0 0 0 0 0 0 5 75 100 100 71 27 0 5 88 97 51 0 0 0 0 0 0 0 0 0 0 0 0 0 0 0 0 0 0 0 0 5 4
0 0 0 1 0 0 0 0 0 0 5 5 24 3 98 100 99 61 15 0 1 100 85 0 0 0 0 0 0 0 0 0 0 0 0 0 0 0 0 0 0 0 1 6
0 3 0 0 0 0 0 0 0 0 0 1 4 79 85 62 39 37 0 0 1 7 2 0 0 0 0 0 0 0 0 0 0 0 0 0 0 0 0 0 0 3 5 4
3 0 2 0 8 5 1 0 0 0 0 0 2 12 5 99 91 48 5 0 0 0 0 0 0 0 0 0 0 0 0 0 0 0 0 0 0 0 0 0 0 5 14 26
44 3 0 4 4 5 11 5 5 0 0 0 0 3 29 14 100 99 4 0 0 0 4 0 0 0 0 0 0 0 0 0 0 0 0 0 0 0 0 0 0 1 5 18
100 70 1 0 5 96 97 0 3 8 19 1 0 0 5 75 36 56 3 5 0 0 0 0 0 0 0 0 1 0 0 0 0 0 0 0 0 0 0 0 4 5 80 55
100 81 6 5 88 88 1 91 54 15 7 79 95 8 0 0 3 5 6 4 0 0 0 0 0 0 0 0 2 2 0 0 0 0 0 0 0 0 3 5 5 25 87 98
100 100 94 85 5 11 16 75 7 24 5 27 5 94 11 0 3 5 14 93 14 0 0 0 0 0 0 0 0 0 0 0 0 0 0 0 0 2 5 47 61 77 99 100
100 100 100 100 52 90 96 93 100 18 4 3 93 5 29 29 7 0 98 100 100 7 0 0 0 0 0 0 0 0 0 0 0 0 0 0 5 58 97 54 100 100 100 100
100 100 23 20 82 93 99 3 31 88 4 4 0 0 0 4 0 1 25 5 94 5 5 5 1 0 0 0 0 0 0 0 0 0 0 7 100 21 5 60 100 100 100 100
100 100 34 73 100 94 69 5 5 64 1 0 4 0 0 0 4 78 2 2 5 5 5 5 5 5 5 4 0 1 0 0 0 0 43 79 6 40 99 100 100 100 100 100
99 100 99 100 34 11 3 51 5 0 0 5 40 0 0 0 7 0 0 0 0 0 0 0 3 5 5 5 4 5 14 21 33 58 98 100 97 100 100 100 92 91 100 100
100 100 100 100 88 12 22 11 5 1 4 36 59 4 0 0 0 0 0 0 0 0 0 0 1 8 5 9 60 94 10 37 13 10 100 100 100 100 100 100 100 100 100 100
91 99 100 76 46 100 12 5 5 0 3 100 30 20 11 53 22 59 83 97 82 36 21 26 11 49 100 96 10 86 28 70 100 100 100 100 100 100 99 84 99 93 84 98
100 100 100 100 53 16 5 5 5 2 42 100 5 88 100 95 100 100 100 95 77 100 100 100 99 98 100 95 99 90 99 79 98 94 99 75 100 100 80 98 72 100 77 99

GFSCGP_prec_cloud_018.txt.gz
Cloud_Cover
0 0 0 0 0 0 0 17 84 100 95 100 100 100 100 6 65 14 0 0 0 0 0 0 0 0 0 0 0 0 0 0 32 0 0 0 48 40 0 0 97 2 78 0
0 0 0 0 0 0 0 11 58 100 35 80 100 30 0 11 0 0 0 0 0 0 0 0 0 0 0 0 0 0 0 0 0 0 0 1 7 0 7 46 66 0 0 0
0 0 0 0 0 0 0 0 8 100 78 29 93 100 90 62 1 0 1 0 0 0 0 0 0 0 0 0 0 0 0 0 0 0 0 0 0 10 100 84 98 34 74 0
0 0 0 0 0 0 0 0 6 14 100 9 100 83 6 99 15 0 0 1 0 0 0 0 0 0 0 0 0 0 0 0 0 0 0 0 0 0 13 0 10 10 0 0
0 0 0 0 1 0 0 0 0 5 100 11 8 51 81 89 92 46 0 0 0 0 0 0 0 0 0 0 0 0 0 0 0 0 0 0 0 0 0 1 0 0 0 0
0 0 0 0 4 0 0 0 0 2 66 100 96 17 90 66 26 100 99 5 0 0 0 0 0 0 0 0 0 0 0 0 0 0 0 0 0 0 19 87 0 0 0 0
0 0 0 0 0 4 3 0 0 0 14 8 96 34 95 95 100 40 100 87 30 0 1 1 0 0 0 0 0 0 0 0 0 0 0 0 0 0 0 0 0 0 0 0
0 0 0 0 0 0 5 0 0 0 0 2 0 52 46 53 23 96 94 100 70 3 2 0 0 0 0 0 0 0 0 0 0 0 0 0 0 0 0 0 0 0 0 0
0 0 0 0 0 0 0 0 0 0 0 5 15 54 7 14 84 36 100 100 100 16 0 0 0 0 0 0 0 0 0 0 0 0 0 0 0 0 0 0 0 0 0 0
0 0 0 0 0 0 0 3 0 0 0 0 1 28 100 38 33 27 18 98 100 8 4 0 0 0 0 0 0 0 0 0 0 0 0 0 0 0 0 0 0 0 0 0
0 0 0 0 0 0 0 0 0 0 0 0 0 0 2 92 96 51 2 75 94 1 4 0 0 0 0 0 0 0 0 0 0 0 0 0 0 0 0 0 0 0 0 0
4 0 0 0 0 0 0 0 0 0 0 0 0 0 88 97 96 95 73 3 0 0 0 0 0 0 0 0 0 0 0 0 0 0 0 0 0 0 0 0 0 0 0 0
2 0 0 0 0 0 0 0 0 0 0 0 0 0 2 100 66 89 100 53 10 5 96 12 5 0 0 0 0 0 0 0 0 0 0 0 0 0 0 0 0 0 0 0
9 3 0 0 0 3 0 0 0 0 0 0 0 1 5 100 14 80 99 82 100 5 5 63 40 3 0 0 0 0 0 0 0 0 0 0 0 0 0 0 0 0 0 3
32 4 0 0 0 25 0 0 0 0 0 0 0 0 3 26 100 12 98 6 93 42 0 5 4 4 0 0 0 0 0 0 0 0 0 0 0 0 0 0 0 0 0 0
5 0 0 0 3 8 89 29 5 0 0 0 0 0 3 4 89 100 72 100 96 5 3 0 5 5 0 0 0 0 0 0 0 0 0 0 0 0 0 0 0 0 0 0
3 0 3 0 4 100 85 0 5 31 0 0 0 0 0 73 15 94 99 100 91 100 9 0 0 0 0 0 0 0 0 0 0 0 0 0 0 0 0 0 0 0 0 0
92 82 55 4 99 77 0 4 1 18 85 43 1 0 0 0 4 3 20 94 100 97 7 3 1 2 0 0 0 0 0 0 0 0 0 0 0 0 0 0 0 0 0 1
100 100 100 100 75 28 45 4 99 95 2 26 100 92 48 2 0 0 6 6 1 8 100 74 1 0 5 0 0 0 0 0 0 0 0 0 0 1 0 0 0 3 0 11
100 100 100 100 96 4 6 100 48 4 0 4 0 0 0 17 72 1 0 0 6 5 98 29 0 0 0 10 5 5 5 5 5 5 5 5 5 5 2 0 2 5 23 63
100 100 90 100 77 100 100 100 95 22 1 0 0 3 0 0 0 0 32 10 75 7 0 2 5 0 0 0 0 0 0 1 5 5 5 5 5 0 0 0 18 77 100 100
100 100 100 100 100 100 100 49 67 4 4 4 13 0 6 4 0 0 76 92 0 0 0 0 0 1 2 0 0 0 0 0 0 5 5 5 5 5 7 83 100 100 100 100
100 100 100 100 100 100 100 100 100 88 6 5 3 0 0 2 0 0 0 0 0 1 5 8 24 2 5 3 0 0 0 0 0 0 5 5 5 17 100 76 100 100 100 100
100 100 100 100 100 100 100 67 56 45 2 24 0 0 0 0 3 0 0 0 0 10 97 90 0 0 0 2 5 5 5 5 5 5 5 5 100 100 100 87 100 100 100 100
100 100 100 100 100 63 96 91 50 5 46 5 0 0 0 0 1 79 21 0 0 0 5 5 0 0 0 0 0 3 5 5 78 100 91 98 100 98 99 99 100 100 100 100
100 100 100 100 100 100 99 100 100 20 4 5 2 0 0 0 84 100 100 90 7 0 0 4 1 7 56 1 2 8 44 97 100 100 94 72 99 100 100 100 100 83 98 58

GFSCGP_prec_cloud_021.txt.gz
Cloud_Cover
0 0 0 0 0 0 0 0 0 5 75 32 100 100 81 5 0 0 0 0 0 0 0 0 0 0 0 0 0 5 0 0 0 0 0 1 5 0 0 0 24 0 24 0
0 0 0 0 0 0 0 0 0 62 98 32 97 74 82 5 0 0 0 0 0 0 0 0 0 0 0 0 0 0 0 0 0 0 0 0 0 0 0 3 13 84 16 0
0 0 0 0 0 0 0 0 0 20 90 99 95 10 3 5 5 2 0 0 0 0 0 0 0 0 0 0 0 0 0 0 0 0 0 0 0 0 0 3 100 59 12 34
0 0 0 0 0 0 0 0 0 5 98 31 48 5 33 46 4 15 5 0 0 0 0 0 0 0 0 0 0 0 0 0 0 0 0 0 0 0 0 85 0 17 8 0
0 0 0 0 0 0 0 0 0 5 24 15 74 100 88 43 5 54 7 0 0 0 0 0 0 0 0 0 0 0 0 0 0 0 0 0 0 0 0 16 0 0 0 0
0 0 0 0 0 0 5 0 0 5 34 93 3 81 5 79 4 12 16 5 11 0 0 0 0 0 0 0 0 0 0 0 0 0 0 0 0 0 0 0 0 0 0 0
0 0 0 0 0 0 0 0 0 0 1 0 5 4 0 93 20 2 0 73 59 44 6 2 2 0 0 0 0 0 0 0 0 0 0 0 0 0 0 0 0 0 0 0
0 0 0 0 0 0 0 0 0 0 0 0 0 0 0 13 94 66 28 19 83 75 91 4 0 0 0 0 0 0 0 0 0 0 0 0 0 0 0 0 0 0 0 0
0 0 0 0 0 0 0 0 2 0 0 0 0 0 0 0 4 97 97 38 88 98 56 5 2 0 0 0 0 0 0 0 0 0 0 0 0 0 0 0 0 0 0 0
0 0 0 0 0 0 0 0 0 0 0 0 0 0 0 0 13 21 8 22 100 77 77 3 2 0 0 0 0 0 0 0 0 0 0 0 0 0 0 0 0 0 0 0
0 0 0 0 0 0 0 0 0 0 0 0 1 0 0 0 70 68 3 10 22 0 68 0 3 0 0 0 0 0 0 0 0 0 0 0 0 0 0 0 0 0 0 0
0 0 0 0 0 0 0 0 0 0 0 0 0 2 3 32 28 100 100 4 23 9 6 18 2 0 0 0 0 0 0 0 0 0 0 0 0 0 0 0 0 0 0 0
0 0 0 0 1 0 0 0 0 0 0 0 0 8 100 10 20 9 27 100 78 98 44 7 5 4 0 0 0 0 0 0 0 0 0 0 0 0 0 0 0 0 0 0
52 0 0 0 3 0 0 1 0 0 0 0 0 0 0 6 6 44 80 100 99 99 100 92 1 0 0 0 0 0 0 0 0 0 0 0 0 0 0 0 0 0 0 0
63 0 0 0 0 0 0 0 2 0 0 0 0 0 0 0 48 100 98 18 100 98 100 95 5 5 0 0 0 0 0 0 0 0 0 0 0 0 0 0 0 0 0 0
8 3 0 0 2 0 0 0 0 4 0 0 0 0 0 0 8 100 76 38 61 70 100 74 80 64 4 0 0 0 0 0 0 0 0 0 0 0 0 0 0 0 0 0
70 26 88 0 5 9 4 0 0 4 0 0 0 0 0 0 0 33 92 85 21 95 88 29 93 6 5 0 0 0 0 0 0 0 0 0 0 0 0 0 0 0 0 0
100 61 16 5 24 88 0 1 0 3 5 13 1 1 0 0 0 1 64 93 13 3 74 100 100 90 34 4 4 5 0 0 0 0 0 0 0 0 0 0 0 0 5 5
100 100 93 5 9 0 0 2 5 82 10 96 23 1 0 0 0 0 3 100 0 6 22 71 58 100 100 20 4 2 46 13 5 5 5 0 0 1 3 5 5 5 5 5
100 100 100 100 5 0 3 10 100 100 5 3 0 0 0 0 0 2 0 0 4 2 3 75 97 77 100 100 5 5 0 0 5 5 5 5 5 5 5 5 5 5 2 5
100 100 100 15 6 0 5 99 100 94 0 5 2 0 0 0 1 0 0 0 0 0 78 4 0 2 8 99 42 26 5 5 5 0 0 4 5 5 5 5 3 0 12 43
100 100 98 98 30 5 99 100 100 26 11 4 5 2 7 3 0 0 0 0 0 0 0 1 5 5 5 3 6 35 71 13 5 5 5 5 5 5 5 1 1 8 83 41
100 100 100 100 100 97 99 100 95 5 5 5 10 94 100 99 7 0 0 0 0 0 0 0 3 97 74 2 0 3 4 0 2 5 2 5 4 8 5 20 73 80 86 100
100 100 100 100 80 17 5 100 96 6 100 99 47 99 100 100 14 0 0 0 0 0 0 0 0 0 89 61 98 18 5 0 0 2 13 9 36 56 66 56 51 65 72 61
100 100 100 100 100 100 100 95 82 65 50 100 56 100 100 5 3 0 0 0 0 0 15 39 20 47 0 2 100 100 44 0 24 100 57 92 100 100 100 100 78 36 97 100
100 100 98 98 98 100 100 66 100 100 91 100 100 100 91 5 3 0 0 0 0 92 100 100 100 18 17 51 88 96 33 3 84 100 100 100 100 100 100 68 97 100 75 72

GFSCGP_prec_cloud_024.txt.gz
Cloud_Cover
0 0 0 0 0 0 0 4 0 0 4 5 6 93 62 5 3 0 0 0 0 0 0 0 0 0 0 0 0 0 0 0 0 0 0 0 0 0 0 0 0 0 0 0
0 0 0 0 0 0 0 0 0 0 0 4 89 76 5 5 5 5 1 0 0 0 0 0 0 0 0 0 4 5 0 0 0 0 0 0 0 0 0 0 0 0 2 22
0 0 0 0 0 0 0 0 0 0 0 0 53 88 5 9 49 5 0 0 0 0 0 0 0 0 0 0 0 0 0 0 0 0 0 0 0 0 0 0 0 95 75 0
0 0 0 0 0 0 0 0 0 0 2 2 29 79 95 49 7 3 0 0 0 0 0 0 0 0 0 0 0 0 0 0 0 0 0 0 0 0 0 0 0 0 0 38
0 0 0 0 0 0 0 0 0 1 5 20 5 72 5 88 5 8 2 0 1 2 0 0 0 0 0 0 0 0 0 0 0 0 0 0 0 0 0 0 70 0 0 0
0 0 0 0 0 0 0 0 0 3 59 34 0 1 0 4 2 0 3 4 0 1 2 0 0 0 0 0 0 0 0 0 0 0 0 0 0 0 0 0 0 11 0 0
0 0 0 0 0 0 0 0 0 0 2 5 0 0 0 0 1 0 1 0 0 0 6 0 0 5 0 0 0 0 0 0 0 0 0 0 0 0 0 0 0 1 0 0
0 0 0 0 0 0 0 0 0 0 0 0 0 0 0 0 0 0 5 4 5 2 32 96 73 63 0 0 0 0 0 0 0 0 0 0 0 0 0 0 0 0 0 0
0 0 0 0 0 0 0 0 0 0 0 0 0 0 0 0 5 0 4 5 0 3 74 100 12 62 2 0 0 0 0 0 0 0 0 0 0 0 0 0 0 0 0 0
0 0 0 0 0 0 0 0 0 0 0 0 0 0 0 0 0 2 5 5 3 3 5 86 66 90 86 0 0 0 0 0 0 0 0 0 0 0 0 0 0 0 0 0
4 0 0 0 0 0 0 0 0 0 0 0 0 0 0 3 0 0 0 0 4 5 1 5 100 98 98 1 0 0 0 0 0 0 0 0 0 0 0 0 0 0 0 0
1 0 3 0 0 0 0 0 0 0 0 0 0 4 0 0 0 0 2 0 25 65 17 44 83 26 6 0 0 0 0 0 0 0 0 0 0 0 0 0 0 0 0 0
0 2 18 68 23 15 40 1 0 0 0 0 0 0 0 0 0 0 0 0 5 63 88 77 16 41 40 4 0 0 0 0 0 0 0 0 0 0 0 0 0 0 0 0
0 0 3 98 82 6 5 1 0 0 0 0 0 0 0 0 0 0 0 0 51 96 100 89 96 33 100 5 5 0 0 0 0 0 0 0 0 0 0 0 0 0 0 0
0 0 0 28 8 0 5 5 0 0 0 0 57 0 0 0 0 0 5 0 0 63 24 52 46 27 40 42 46 4 2 0 0 0 0 0 0 0 0 0 0 0 0 0
0 0 0 0 5 5 0 0 0 5 5 2 0 0 5 0 0 0 1 38 0 0 3 91 98 50 68 31 3 2 0 0 0 0 0 0 0 0 0 0 0 0 0 0
54 0 0 0 0 4 0 3 13 5 5 5 0 0 4 3 0 0 0 5 0 3 0 10 77 73 31 4 5 0 0 0 0 0 0 0 0 0 0 0 0 1 0 0
100 43 0 0 0 4 4 12 0 0 0 4 2 3 5 0 0 0 0 0 1 0 3 0 2 3 69 44 5 5 5 3 0 0 0 0 0 0 0 0 0 3 32 5
100 100 81 4 14 2 0 4 0 0 0 0 5 5 5 5 5 5 0 0 0 5 12 5 0 0 1 13 35 43 5 5 5 3 0 0 0 0 0 0 0 1 26 49
100 100 100 100 100 59 0 2 4 2 0 0 5 5 5 5 70 11 5 0 1 0 0 5 2 0 4 0 44 94 77 25 100 41 0 0 0 4 3 0 0 0 0 2
100 100 100 100 100 65 0 0 5 5 1 0 0 2 5 5 77 100 90 1 4 0 0 0 0 0 0 3 4 56 26 15 99 98 38 5 4 14 100 80 6 0 0 10
100 100 100 100 100 94 2 0 15 24 0 0 0 0 3 3 32 100 100 49 5 5 0 0 0 0 0 2 5 36 5 14 81 14 94 44 9 2 14 100 70 26 1 58
100 100 100 100 100 94 5 49 67 22 1 0 0 0 5 5 49 100 100 100 99 5 4 0 0 0 1 4 2 0 0 3 22 98 100 100 46 36 4 35 9 54 70 100
100 100 100 100 100 100 72 4 67 74 0 2 1 1 1 12 68 88 100 100 100 100 20 17 15 3 0 0 1 5 5 19 19 26 48 100 100 99 7 6 33 58 100 100
100 100 100 100 100 100 100 39 19 14 7 2 2 0 1 5 5 7 18 5 32 92 8 15 28 65 96 53 0 0 2 90 41 8 39 75 100 100 100 100 100 100 100 100
100 100 100 100 100 100 92 100 93 55 84 34 45 28 44 50 64 48 21 5 5 5 0 0 0 1 29 99 100 100 100 100 99 100 100 100 100 100 100 100 100 100 100 100

GFSCGP_prec_cloud_027.txt.gz
Cloud_Cover
0 0 0 0 0 0 0 0 0 5 0 0 13 3 5 60 100 35 5 0 0 0 0 0 0 0 0 0 0 0 0 0 0 0 0 0 0 0 0 0 0 0 0 0
0 0 0 0 0 0 0 0 0 5 0 0 0 3 5 5 97 100 1 0 0 0 0 0 0 0 0 0 0 2 0 0 0 0 0 0 0 0 0 0 0 0 0 0
0 0 0 0 0 0 0 0 0 0 3 3 0 2 4 72 35 63 0 4 0 0 0 0 0 0 0 0 0 0 0 0 0 0 0 0 0 0 0 0 0 0 0 1
0 0 0 0 0 0 0 0 0 0 5 0 0 0 0 4 5 3 2 5 3 0 0 0 0 0 0 0 4 0 0 0 0 0 0 0 0 1 0 0 0 0 11 76
0 0 0 0 0 0 0 0 0 0 2 3 0 0 0 3 2 0 0 5 5 7 0 0 0 0 0 0 0 0 0 0 0 0 0 0 0 0 0 0 0 0 0 0
0 0 0 0 0 0 0 0 0 0 2 2 0 0 0 1 0 0 5 5 1 5 0 1 0 0 0 0 0 0 0 0 0 0 0 0 0 0 0 0 0 0 3 3
0 0 0 0 0 0 0 0 0 0 0 4 0 0 0 0 0 0 0 11 4 2 5 21 5 0 0 0 0 0 0 0 0 0 0 0 0 0 0 0 0 3 24 18
0 0 0 0 0 0 0 0 0 0 0 0 0 1 0 0 0 2 5 5 5 0 5 5 30 40 4 0 0 0 0 0 0 0 0 0 0 0 0 0 0 0 0 0
0 0 0 0 0 0 0 0 0 0 0 0 0 4 1 0 0 5 3 0 3 5 6 18 5 77 5 5 4 0 0 0 0 0 0 0 0 0 0 0 0 0 0 0
0 0 0 0 0 0 0 0 0 0 0 0 0 1 5 0 0 0 1 0 0 0 3 20 5 8 5 5 5 0 0 0 0 0 0 0 0 0 0 0 0 0 0 0
0 0 0 0 0 0 0 0 0 0 0 0 0 1 0 4 0 0 1 0 0 0 0 2 5 68 12 5 4 1 0 0 0 0 0 0 0 0 0 0 0 0 0 0
0 5 4 0 0 0 0 0 0 0 0 0 0 0 0 0 0 0 0 0 0 0 0 0 56 100 100 71 5 0 0 0 0 0 0 0 0 0 0 0 0 0 0 0
0 5 34 4 1 54 8 1 3 5 0 0 0 0 0 0 0 0 1 31 1 0 0 0 4 5 5 50 29 5 0 0 0 0 0 0 0 0 0 0 0 0 0 0
0 2 12 5 0 9 25 5 5 4 0 6 7 10 0 0 0 0 0 0 0 0 0 0 0 4 77 81 15 5 2 2 0 0 0 0 0 0 0 0 0 0 0 0
0 0 5 5 4 6 100 96 10 64 64 11 99 18 2 0 0 0 0 0 0 1 4 2 2 18 4 96 100 85 74 5 0 0 0 0 0 0 0 0 0 0 0 0
0 0 0 1 2 0 4 5 84 100 100 99 100 9 91 25 0 0 0 0 0 0 0 0 5 5 1 4 100 98 87 6 6 4 0 0 0 0 0 0 0 0 0 0
0 0 0 0 0 0 0 82 100 93 80 100 97 99 83 9 2 0 0 0 0 0 0 0 0 0 1 5 76 100 100 87 11 5 0 0 0 0 0 0 0 0 0 0
31 3 0 0 0 0 5 22 1 0 5 34 96 98 6 5 5 2 5 0 0 0 0 0 0 0 0 3 100 100 95 5 21 36 31 4 1 0 0 0 0 0 0 0
100 100 6 1 0 0 0 0 0 0 5 4 6 88 93 14 4 5 3 0 0 0 0 0 0 0 0 0 1 57 100 100 94 100 95 5 1 0 0 0 0 0 48 30
100 100 100 65 5 0 0 0 0 0 0 0 5 84 93 94 32 5 0 4 0 0 0 0 0 0 0 0 0 0 0 1 0 1 67 99 96 16 5 0 0 0 35 41
98 100 88 49 37 1 0 0 0 0 0 1 4 5 46 98 55 10 14 5 5 0 0 0 0 0 0 0 0 0 0 0 0 44 62 88 43 7 24 0 0 18 48 79
91 100 100 80 80 5 0 5 84 37 59 0 2 5 5 8 88 52 9 6 5 5 0 0 0 3 0 1 3 3 3 0 4 6 49 66 100 82 100 25 3 30 99 98
3 19 61 100 31 0 14 65 100 100 66 27 0 5 6 5 5 38 93 14 26 5 5 7 4 30 7 5 4 2 5 73 18 54 98 100 100 100 100 100 94 99 100 100
0 4 4 94 94 11 100 100 100 89 6 5 0 0 1 6 6 27 27 42 73 35 35 28 32 97 99 64 12 0 5 5 51 91 75 18 76 91 97 99 100 100 100 100
2 22 4 25 100 100 97 91 54 90 16 5 9 16 8 0 10 7 11 23 23 5 1 2 5 0 0 0 3 7 5 3 3 4 3 90 100 100 100 100 100 98 83 100
32 13 3 5 86 100 100 99 84 80 46 89 43 93 86 8 5 9 90 93 14 10 18 16 2 1 0 0 0 0 2 0 62 12 63 100 100 100 100 100 100 100 100 100

GFSCGP_prec_cloud_030.txt.gz
Cloud_Cover
0 0 0 0 0 0 0 0 0 0 0 0 0 1 2 20 5 50 52 70 0 0 0 0 0 0 0 0 0 0 0 0 0 0 0 0 0 0 0 0 0 0 0 0
0 0 0 0 0 0 0 0 0 0 0 0 0 4 0 5 70 78 86 21 14 0 0 0 0 0 0 0 0 0 0 0 0 0 0 0 0 0 0 0 0 0 0 0
0 0 0 0 0 0 0 0 0 0 0 0 0 0 5 4 3 23 24 5 1 0 0 0 0 0 0 0 0 0 0 0 0 0 0 1 0 0 0 0 0 0 0 0
0 0 0 0 0 0 0 0 0 0 0 1 1 0 4 4 0 0 4 0 0 0 0 0 0 0 0 0 0 1 0 0 0 0 0 0 0 0 0 0 0 0 0 0
0 0 0 0 0 0 0 0 0 0 0 0 0 0 0 0 0 0 1 2 0 0 0 0 0 0 0 0 0 3 0 0 0 0 0 0 0 0 0 0 0 0 0 0
0 0 0 0 0 0 0 0 0 0 0 1 0 0 0 0 3 0 2 5 3 2 0 0 0 0 0 0 0 0 0 0 0 0 0 0 0 0 0 0 0 0 0 0
0 0 0 0 0 0 0 0 0 0 0 35 0 1 0 0 3 2 0 5 5 5 0 0 0 0 3 0 0 0 0 0 0 0 0 0 0 0 0 0 0 0 0 6
0 0 0 0 0 0 0 0 0 0 0 0 0 59 0 1 4 5 56 81 86 5 0 2 5 5 5 4 0 0 0 0 0 0 0 0 0 0 0 0 0 0 0 0
0 0 0 0 0 0 0 0 0 0 0 0 2 4 5 0 0 5 57 83 8 5 4 5 5 5 50 4 4 0 0 0 0 0 0 0 0 0 0 0 0 0 0 0
0 0 0 0 0 0 0 0 0 0 0 0 0 0 5 49 3 4 5 2 5 0 4 5 4 2 2 14 5 5 0 0 0 0 0 0 0 0 0 0 0 0 0 0
0 0 0 0 0 0 0 0 0 0 0 0 0 0 0 0 5 3 0 0 2 5 4 5 5 5 11 92 5 3 10 2 0 0 0 0 0 0 0 0 0 0 0 0
0 0 0 0 0 0 0 0 0 0 0 0 0 0 0 0 0 0 5 3 0 19 77 0 3 90 63 47 48 5 5 24 0 0 0 0 0 0 0 0 0 0 0 0
0 0 0 0 0 0 0 0 0 0 0 0 0 14 0 0 0 0 0 4 47 2 0 0 0 4 5 5 8 81 16 4 1 0 0 0 0 0 0 0 0 0 0 0
0 0 0 0 0 0 0 0 2 3 0 3 0 100 3 0 0 0 0 0 0 6 3 0 0 0 1 5 5 4 5 5 4 0 0 0 0 0 0 0 0 0 0 0
0 0 0 0 0 0 0 0 4 18 92 1 66 16 0 0 0 0 0 0 0 0 5 5 1 0 0 0 2 0 1 1 3 5 0 0 0 0 0 0 0 0 0 0
0 0 0 0 0 0 0 5 12 93 100 27 63 1 2 0 0 0 0 0 0 0 0 2 19 35 4 0 0 5 3 5 84 5 0 0 0 0 0 0 0 0 0 0
0 0 0 0 0 0 0 5 60 31 81 99 100 90 12 0 0 0 0 0 0 0 0 0 0 2 6 5 5 6 2 58 98 91 23 38 6 0 0 0 0 0 0 0
5 4 0 0 0 0 0 1 1 4 5 32 100 100 100 2 0 0 0 0 0 0 0 0 0 0 0 1 0 0 0 2 33 100 100 97 50 26 3 0 0 0 0 0
97 64 5 0 0 0 0 0 0 0 5 13 100 100 89 5 4 0 0 0 0 0 0 0 0 0 0 0 0 0 0 0 2 99 90 100 100 84 4 0 1 0 0 0
92 100 49 4 0 0 0 0 0 0 6 5 34 100 40 60 100 100 5 0 0 0 1 1 0 0 0 0 0 0 0 0 0 0 64 98 100 79 11 59 69 95 0 5
0 36 14 12 6 0 0 0 0 0 42 3 27 50 98 92 72 41 6 49 5 0 0 2 0 2 0 0 0 0 0 0 0 5 13 66 100 40 100 76 99 100 51 100
1 7 37 13 24 0 0 0 0 0 8 24 95 34 8 95 44 42 37 11 46 62 3 0 3 0 0 0 0 0 0 18 21 75 58 100 100 67 83 10 64 89 99 100
3 4 3 0 0 0 2 0 0 10 39 20 99 54 5 44 62 60 5 32 45 45 44 33 55 46 53 3 0 0 15 51 100 82 91 61 100 19 100 63 100 82 100 97
5 2 4 65 0 0 0 0 0 2 0 47 100 96 31 20 46 97 81 54 24 25 92 94 17 5 26 34 3 10 6 5 17 68 100 60 47 46 3 16 78 100 91 100
5 5 1 92 5 1 1 0 5 5 13 100 67 3 75 60 89 58 62 55 31 8 7 6 5 0 0 0 0 0 0 0 0 1 2 4 0 0 0 53 86 100 100 100
98 4 25 0 0 3 1 0 38 100 100 98 10 4 20 2 21 16 53 44 5 5 5 1 9 14 31 0 0 0 0 0 0 98 45 11 10 72 100 100 100 100 100 100

GFSCGP_prec_cloud_033.txt.gz
Cloud_Cover
0 0 0 0 0 0 0 0 0 0 0 0 0 1 5 5 5 4 30 67 1 4 0 0 0 0 0 0 0 0 0 0 0 0 0 0 0 0 0 0 0 0 0 0
0 0 0 0 0 0 0 0 0 0 0 0 0 1 0 5 5 5 36 93 59 0 0 0 0 0 0 0 0 0 0 0 0 0 0 0 0 0 0 0 0 0 0 0
0 0 0 0 0 0 0 0 0 0 0 0 0 0 0 4 16 5 4 86 71 0 0 0 0 0 0 0 0 0 1 0 0 0 0 0 0 0 0 0 0 0 0 0
0 0 0 0 0 0 0 0 0 0 0 0 0 0 0 5 0 11 43 1 1 0 0 0 0 0 0 0 0 0 0 0 0 0 0 0 0 0 0 0 0 0 0 0
0 0 0 0 0 0 0 0 0 0 0 0 0 0 0 0 0 5 5 0 0 0 0 0 0 0 0 0 0 0 0 0 0 0 0 0 0 0 0 0 0 0 0 0
0 0 0 0 0 0 0 0 0 0 0 5 4 0 0 0 0 5 0 0 0 0 0 0 0 0 0 0 0 0 0 0 0 0 0 0 0 0 0 0 0 0 0 0
0 0 0 0 0 0 0 0 0 0 0 30 0 0 0 0 0 5 3 0 3 0 0 0 0 0 0 0 0 0 0 0 0 0 0 0 0 0 0 0 0 0 0 0
0 0 0 0 0 0 0 0 0 0 0 0 0 0 0 0 0 5 5 0 0 0 0 0 0 0 0 0 0 0 0 0 0 0 0 0 0 0 0 0 0 0 0 0
0 0 0 0 0 0 0 0 0 0 0 0 0 0 0 0 0 4 0 1 5 5 0 0 0 0 2 4 0 0 0 0 0 0 0 0 0 0 0 0 0 0 0 0
0 0 0 0 0 0 0 0 0 0 0 0 0 0 0 0 0 5 0 0 3 5 0 0 1 4 5 4 4 0 0 0 0 0 0 0 0 0 0 0 0 0 0 0
0 0 0 0 0 0 0 0 0 0 0 0 0 0 0 0 0 1 5 0 5 5 3 8 5 5 5 86 69 3 0 0 0 0 0 0 0 0 0 0 0 0 0 0
0 0 0 0 0 0 0 0 0 0 0 0 0 0 0 0 0 0 0 14 100 45 5 5 5 5 5 2 1 0 4 0 2 5 5 4 0 0 0 0 0 0 0 0
0 0 0 0 0 0 0 0 0 0 0 0 0 0 0 0 0 0 0 1 5 5 3 0 3 5 5 5 0 0 3 39 4 43 6 0 0 0 0 0 0 0 0 0
0 0 0 0 0 0 0 0 0 0 0 0 0 3 0 0 0 0 0 0 0 0 5 5 5 5 5 56 5 3 4 5 5 0 1 2 0 0 0 0 0 0 0 0
0 0 0 0 0 0 0 0 0 0 3 0 91 2 0 0 0 0 0 0 0 0 0 2 5 4 0 3 4 68 5 2 5 0 0 0 0 0 0 0 0 0 0 0
0 0 0 0 0 0 0 0 0 1 5 6 98 13 0 0 0 0 0 0 0 0 0 0 0 0 5 5 2 0 0 0 3 0 1 10 0 0 0 0 0 0 0 0
0 0 0 0 0 0 0 0 0 0 2 6 78 100 0 0 0 0 0 0 0 0 0 0 0 0 0 0 3 5 1 2 23 20 5 47 100 81 13 0 0 0 0 0
4 1 0 0 0 0 0 0 0 0 0 6 100 100 10 0 0 0 0 0 0 0 0 0 0 0 0 0 0 0 0 0 3 93 30 33 100 94 8 24 28 2 0 0
95 8 3 0 0 0 0 0 0 0 1 5 99 100 100 5 0 0 0 0 0 0 0 0 0 0 0 0 0 0 0 0 0 1 1 18 70 59 67 47 48 5 5 32
90 92 17 1 0 0 0 0 0 0 1 23 100 100 100 25 5 0 0 0 0 0 0 0 0 0 0 0 0 0 0 0 0 0 0 0 6 6 5 67 66 97 49 100
0 47 5 5 1 0 0 0 0 0 4 0 21 100 34 5 7 5 0 0 0 0 3 5 2 2 0 0 0 0 0 0 0 0 0 0 0 3 12 84 90 100 93 96
0 4 5 4 2 0 0 0 0 0 2 0 2 16 10 5 5 2 0 0 0 0 0 1 5 2 5 5 3 0 0 0 0 0 0 0 0 0 5 26 25 100 97 97
4 1 46 0 0 0 0 0 0 0 0 0 0 0 5 5 5 5 5 0 0 0 0 2 0 0 0 5 5 5 1 0 0 0 0 0 0 0 0 5 79 87 100 55
8 5 5 2 0 0 0 0 0 0 0 0 0 0 48 30 0 0 1 0 0 96 2 0 5 5 5 2 5 5 5 2 0 0 0 0 5 5 5 7 43 100 100 100
42 67 35 6 3 1 0 0 0 0 0 0 0 22 81 87 31 1 17 33 3 0 0 0 3 5 0 2 4 4 7 5 0 0 0 5 22 15 5 5 50 100 99 33
100 94 29 15 1 0 0 0 2 0 0 0 0 99 100 100 100 100 69 20 4 5 0 0 3 5 0 0 0 0 0 0 0 0 0 1 2 6 0 6 67 96 90 98

GFSCGP_prec_cloud_036.txt.gz
Cloud_Cover
0 0 0 0 0 0 0 1 0 0 2 0 0 4 5 5 0 0 0 0 0 0 0 0 0 0 0 0 0 0 0 0 0 0 0 0 0 0 0 0 0 0 0 0
0 0 0 0 0 0 0 0 0 2 0 0 0 4 5 5 5 0 56 3 14 0 0 0 0 0 0 0 0 0 0 0 3 0 0 0 0 0 0 0 0 0 0 0
0 0 0 0 0 0 0 0 0 0 0 0 0 0 5 1 5 4 5 6 19 5 0 0 0 0 0 0 0 0 0 0 2 0 0 0 0 0 0 0 0 0 0 0
0 0 0 0 0 0 0 0 0 0 0 0 0 0 5 5 3 5 3 0 5 1 0 0 0 0 0 0 0 0 0 0 6 0 0 0 0 0 0 0 0 0 0 0
0 0 0 0 0 0 0 0 0 0 0 0 0 0 0 5 0 2 5 5 0 0 0 0 0 0 0 0 0 0 0 0 0 0 0 0 0 0 0 0 0 0 0 0
0 0 0 0 0 0 0 0 0 0 0 0 0 0 0 0 0 0 5 5 1 0 0 0 0 0 0 0 0 0 0 0 0 0 0 0 0 0 0 0 0 0 0 0
0 0 0 0 0 0 0 0 0 0 0 2 3 1 0 0 0 2 4 0 0 0 0 0 0 0 0 0 0 0 0 0 0 0 0 0 0 0 0 0 0 0 0 0
0 0 0 0 0 0 0 0 0 0 0 0 0 1 0 0 0 5 1 0 0 0 0 0 0 0 0 0 0 0 0 0 0 0 0 0 0 0 0 0 0 0 0 0
0 0 0 0 0 0 0 0 0 0 0 0 0 0 0 0 0 5 0 0 0 0 0 0 0 0 0 0 0 0 0 0 0 0 0 0 0 0 0 0 0 0 0 0
0 0 0 0 0 0 0 0 0 0 0 0 0 0 0 0 0 1 0 0 0 0 0 0 0 0 0 0 0 0 0 5 5 0 0 0 0 0 0 0 0 0 0 0
0 0 0 0 0 0 0 0 0 0 0 0 0 0 0 0 0 0 0 0 0 0 0 0 0 0 0 1 0 0 0 1 1 0 0 0 0 0 0 0 0 0 0 0
0 0 0 0 0 0 0 0 0 0 0 0 0 0 0 0 0 0 0 0 2 0 2 5 0 2 5 5 0 0 4 0 0 0 0 0 0 0 0 0 0 0 0 0
0 0 0 0 0 0 0 0 0 3 0 0 0 0 0 0 0 0 2 3 0 0 0 0 5 0 5 5 5 5 2 0 0 4 5 1 0 0 0 0 0 0 0 0
0 0 0 0 0 0 0 0 0 0 4 2 0 0 0 0 0 0 0 3 3 0 5 0 0 2 5 4 5 5 5 0 0 0 0 2 0 0 3 0 0 0 0 0
0 0 0 0 0 0 0 0 0 0 88 5 65 0 0 0 0 0 0 0 3 5 3 0 4 5 5 5 5 5 5 5 1 0 0 0 0 0 0 0 0 0 0 0
0 0 0 0 0 0 0 0 0 0 75 100 100 4 0 0 0 0 0 0 0 3 5 8 5 5 5 5 5 5 5 0 3 0 1 5 0 3 3 3 0 0 0 0
0 0 0 0 0 0 0 0 0 0 5 79 100 9 0 0 0 0 0 0 0 0 0 0 4 5 5 5 0 0 0 0 0 0 0 53 5 5 5 8 52 4 0 0
0 1 0 0 0 0 0 0 0 0 4 35 100 12 5 0 0 0 0 0 0 0 0 0 0 0 0 0 1 0 0 0 0 0 1 5 10 1 6 94 92 0 0 0
33 1 16 1 0 0 0 0 0 0 2 66 100 51 35 0 0 0 0 0 0 0 0 0 0 0 0 0 0 0 0 0 0 0 0 1 5 2 0 8 9 4 5 0
100 19 4 4 0 0 0 0 0 0 2 98 100 100 100 32 0 0 0 0 0 0 0 0 0 0 0 0 0 0 0 0 0 0 0 0 0 0 5 5 59 2 3 4
42 99 12 5 4 0 0 0 0 0 1 4 100 100 29 64 2 0 0 0 0 0 0 0 0 0 0 0 0 0 0 0 0 0 0 0 0 0 1 2 3 5 4 0
77 23 5 5 5 2 0 0 0 0 0 0 57 100 40 8 5 0 0 0 0 0 0 0 0 0 0 0 0 0 0 0 0 0 0 0 0 0 0 0 0 0 0 0
4 5 6 3 0 0 0 0 0 0 0 0 2 80 100 5 5 5 0 0 0 0 0 0 0 0 0 0 0 0 0 0 0 0 0 0 0 0 0 0 7 9 14 5
18 87 91 41 4 0 4 0 0 0 0 0 0 5 25 44 5 3 2 2 0 0 0 0 0 0 0 0 0 0 0 0 0 0 0 0 0 0 0 0 0 0 0 0
81 90 76 7 5 5 4 2 0 0 0 0 0 0 4 5 5 5 5 5 0 0 0 0 0 0 0 0 0 0 0 0 0 0 0 0 0 0 0 0 0 0 0 0
90 22 29 5 38 98 6 5 4 0 0 0 0 0 0 2 10 8 16 16 34 10 0 0 0 0 0 0 0 0 0 0 0 0 0 0 0 0 0 0 0 93 90 98

GFSCGP_prec_cloud_039.txt.gz
Cloud_Cover
0 0 0 0 0 0 0 5 5 58 100 100 41 81 5 98 85 5 5 0 0 0 0 0 0 0 0 0 0 0 0 0 0 0 0 0 0 0 0 0 0 0 0 0
0 0 0 0 0 0 0 5 5 7 90 28 100 64 75 98 74 24 0 0 0 0 0 0 0 0 0 0 0 0 0 0 0 0 0 0 0 0 0 0 0 0 2 1
0 0 0 0 0 0 0 0 2 5 42 20 5 22 99 94 44 97 4 5 3 0 0 0 0 0 0 0 0 0 0 0 0 0 0 0 0 0 0 0 0 0 0 12
0 0 0 0 0 0 0 0 0 0 7 5 3 5 5 14 31 39 3 3 4 0 4 0 0 0 0 0 0 0 0 0 0 0 0 0 0 0 0 0 0 0 0 0
0 0 0 0 0 0 0 0 0 0 4 8 24 32 5 99 41 5 6 5 0 0 0 0 0 0 0 0 0 0 0 0 0 0 0 0 0 0 0 0 0 0 4 0
0 0 0 0 0 0 0 0 0 0 0 0 0 1 4 43 76 97 5 5 5 0 0 0 0 0 0 0 0 0 0 0 0 0 0 0 0 0 0 0 0 0 0 0
0 0 0 0 0 0 0 0 0 0 0 0 0 0 0 5 5 5 10 31 5 0 0 0 0 0 0 0 0 0 0 0 0 0 0 0 0 0 0 0 0 0 0 0
0 0 0 0 0 0 0 0 0 0 0 0 0 0 2 0 5 5 5 67 5 4 0 0 0 0 0 0 0 0 0 0 5 0 0 0 0 0 0 0 0 0 0 0
0 0 0 0 0 0 0 0 0 0 0 0 0 0 0 0 0 0 1 5 5 5 0 0 0 0 0 0 0 0 0 0 2 1 0 0 0 0 0 0 0 0 0 0
0 0 0 0 0 0 0 0 0 0 0 0 0 0 0 0 0 0 0 0 0 5 0 0 0 0 0 0 0 0 0 0 2 5 0 0 0 0 0 0 0 0 0 0
0 0 1 0 0 0 0 0 0 0 0 0 0 0 0 0 0 0 1 1 0 0 0 0 0 0 0 0 0 0 0 0 4 5 4 0 0 0 0 0 0 0 0 0
0 0 2 0 0 0 0 0 0 0 0 0 0 0 0 0 0 0 5 5 1 0 4 0 0 0 0 0 0 0 0 0 2 5 5 0 0 0 0 0 0 0 0 0
25 2 0 1 2 0 0 0 0 0 0 0 0 0 0 0 0 0 0 5 5 5 2 0 2 0 0 0 0 0 0 0 0 0 3 3 0 0 0 0 0 0 0 0
0 0 0 0 0 0 0 0 0 0 0 0 0 0 0 0 0 0 0 14 0 5 2 2 5 3 0 0 0 2 1 0 0 0 0 0 0 0 0 0 0 0 0 0
0 0 0 0 100 23 0 0 0 0 0 0 3 0 0 0 0 0 0 0 1 0 4 0 0 0 0 0 0 5 5 5 1 0 0 0 4 0 0 0 0 0 0 0
0 0 28 4 75 16 0 0 0 0 4 5 26 0 0 0 0 0 0 0 0 0 5 5 5 5 1 0 0 4 5 1 5 0 0 0 5 0 2 0 5 2 5 4
5 16 69 43 17 51 0 0 0 0 8 9 58 5 5 0 0 0 0 0 0 0 0 0 2 5 5 1 0 0 0 0 0 1 0 0 4 5 5 5 4 5 5 5
34 56 93 85 40 30 0 0 0 0 0 5 96 77 5 0 0 0 0 0 0 0 0 0 0 2 5 5 2 0 0 0 0 0 0 0 0 3 5 8 1 5 5 5
62 62 91 13 14 1 0 0 1 0 0 5 8 15 28 20 2 0 0 0 0 0 0 0 0 0 0 0 5 5 1 0 0 0 0 0 0 1 2 7 4 5 5 5
100 61 75 100 78 97 94 70 5 2 0 2 4 5 7 4 0 0 0 0 0 0 0 0 0 0 0 2 0 0 0 0 0 4 0 0 0 0 0 0 0 0 2 5
100 94 80 98 99 79 100 100 63 0 28 37 7 5 28 82 5 0 0 0 0 0 0 0 0 0 0 0 0 0 0 0 0 0 0 0 0 0 0 0 0 0 0 0
100 92 94 98 93 80 68 96 100 72 5 2 0 32 40 86 49 0 0 0 0 0 0 0 0 0 0 0 0 0 0 0 0 0 0 0 0 0 0 0 0 0 0 0
69 100 100 100 93 5 8 100 90 90 5 1 44 5 8 100 100 24 0 0 0 0 1 4 0 0 0 0 0 0 0 0 0 0 0 0 0 0 0 0 0 0 2 0
92 13 5 92 15 38 4 3 5 3 5 3 0 5 31 91 100 100 14 0 0 0 0 0 0 0 0 0 0 0 0 0 0 0 0 0 0 0 0 0 0 0 0 5
82 88 83 15 1 4 2 0 0 0 0 0 0 0 5 33 100 100 100 5 0 0 1 0 0 0 0 0 0 0 0 0 0 0 0 0 0 0 2 0 3 15 4 18
86 91 94 96 86 81 41 32 3 0 0 0 0 0 0 5 81 100 100 93 16 4 1 0 0 0 0 0 19 22 1 0 0 0 0 0 0 0 0 5 5 75 54 99

GFSCGP_prec_cloud_042.txt.gz
Cloud_Cover
0 0 0 0 0 2 10 5 5 28 38 99 55 36 15 16 44 99 2 72 0 0 0 0 0 0 0 0 0 0 0 0 0 0 0 0 0 0 0 0 0 0 0 0
0 0 0 0 0 0 5 4 5 7 98 82 79 39 60 68 74 82 4 59 0 28 0 0 0 0 0 0 0 0 0 0 0 0 0 0 0 0 0 0 0 0 6 5
0 0 0 0 0 0 3 3 1 14 100 100 100 55 100 68 56 100 82 3 0 0 0 0 0 0 0 0 0 0 0 0 0 0 0 0 0 0 0 0 0 0 1 95
0 0 0 0 0 0 0 0 0 76 100 95 56 96 30 2 92 9 16 32 18 0 0 1 0 0 0 0 0 0 0 0 0 0 0 0 0 0 0 0 0 0 0 1
0 0 0 0 0 0 0 0 0 23 100 100 100 77 54 16 26 32 5 0 89 1 0 0 0 0 0 0 0 0 0 0 0 0 0 0 0 0 0 0 0 0 3 0
0 0 0 0 0 0 0 0 0 0 5 4 5 98 60 12 11 73 70 55 6 7 0 0 0 0 0 0 0 0 0 0 0 0 0 0 0 0 0 0 0 0 0 0
0 0 0 0 0 0 0 0 0 0 0 0 0 9 2 85 100 85 46 5 36 17 0 0 0 0 0 0 0 0 0 0 0 0 0 0 0 0 0 0 0 0 0 0
0 0 0 0 0 0 0 0 0 0 0 0 0 0 0 0 56 100 100 26 5 5 5 0 0 0 0 0 0 0 0 0 0 0 0 0 0 0 0 0 0 0 0 0
0 0 0 0 0 0 0 0 0 0 0 0 0 0 0 0 0 39 100 100 87 5 5 0 0 0 0 0 0 0 0 0 0 0 0 0 0 0 0 0 0 0 0 0
0 2 0 0 0 0 0 0 0 0 0 0 0 0 0 0 0 2 6 100 98 7 7 2 0 0 0 0 0 0 0 0 0 0 0 0 0 0 0 0 0 0 0 0
0 0 0 1 0 0 0 0 0 0 0 0 0 5 0 0 0 0 0 0 4 82 14 5 0 0 0 0 0 0 0 0 0 0 0 0 0 0 0 0 0 0 0 0
5 0 0 12 0 0 0 0 0 0 0 0 0 84 9 0 0 0 0 0 0 90 75 5 0 0 0 0 0 0 0 0 0 0 0 0 1 0 0 0 0 0 0 0
97 1 0 29 87 31 0 0 0 0 0 0 0 0 0 0 0 0 0 0 1 4 9 5 0 0 0 0 0 0 0 0 0 0 0 0 5 6 1 0 0 0 0 0
64 0 0 1 0 7 0 0 0 0 0 0 0 0 0 0 0 0 0 0 1 5 3 5 4 0 0 0 0 0 0 0 0 0 0 2 5 39 6 0 0 0 0 0
90 2 0 5 9 99 5 0 0 0 0 0 0 1 0 0 0 0 0 0 1 5 11 95 54 31 2 0 0 0 0 0 0 0 0 0 0 2 2 0 0 0 0 0
33 0 5 5 7 99 100 12 0 0 0 0 0 85 1 0 0 0 0 0 0 5 5 5 4 5 5 0 0 0 0 0 0 0 0 0 0 0 0 0 5 0 2 0
100 99 29 4 5 33 99 95 83 0 0 0 1 28 44 0 0 0 0 0 0 0 0 4 0 0 0 0 0 0 0 0 0 0 0 0 0 4 2 4 0 0 0 3
100 12 13 8 85 100 7 60 3 54 18 0 0 22 100 97 5 0 0 0 0 0 0 0 4 5 5 4 0 0 0 0 0 0 0 0 0 0 0 0 2 4 3 2
89 83 93 23 100 42 99 5 4 1 37 97 64 5 100 82 44 2 0 0 0 0 0 0 0 0 3 5 5 0 0 0 0 0 0 0 0 0 0 0 2 5 1 1
100 100 40 57 99 84 99 100 100 100 19 100 100 96 3 5 5 1 0 0 0 0 0 0 0 0 0 32 71 28 5 0 2 0 0 0 5 5 5 0 0 0 0 0
100 100 97 37 13 100 98 93 80 99 98 38 5 73 58 3 2 0 0 0 0 0 0 0 0 0 0 0 0 5 5 5 5 5 3 1 5 5 5 5 4 4 0 0
100 100 100 89 24 100 61 100 100 100 81 5 5 0 0 0 0 0 0 0 0 0 0 0 0 0 0 0 0 0 0 1 0 0 2 11 3 2 0 0 0 0 0 3
100 75 99 100 61 100 98 100 100 94 100 81 0 0 0 0 0 4 1 0 0 5 0 0 0 0 0 0 0 0 0 0 0 0 0 0 0 0 0 0 0 0 0 4
83 95 100 98 9 81 100 74 94 45 5 24 5 0 0 0 0 71 100 2 0 1 0 0 0 0 0 0 0 0 0 0 0 0 0 0 0 0 0 0 0 0 0 0
31 5 27 81 14 66 24 5 5 0 0 2 5 4 0 0 0 5 5 5 0 0 0 22 55 4 12 0 0 0 0 0 0 0 0 0 0 0 0 0 6 0 0 13
49 28 74 63 2 1 0 0 0 0 0 0 0 4 5 0 3 25 99 97 76 0 0 18 100 0 3 0 0 0 0 0 0 0 0 0 0 0 0 5 0 77 83 99

GFSCGP_prec_cloud_045.txt.gz
Cloud_Cover
0 0 0 0 0 0 0 0 4 0 82 22 0 4 63 10 23 78 100 100 23 4 0 0 0 0 0 0 0 0 0 0 0 0 0 0 0 0 0 0 0 0 10 73
0 0 0 0 0 0 0 4 23 2 5 100 98 6 100 53 0 72 100 100 100 8 0 0 0 0 0 0 0 0 0 0 0 0 0 0 0 0 0 0 0 5 4 46
0 0 0 0 0 0 0 0 1 0 9 100 56 73 84 99 100 98 100 100 76 38 1 0 0 0 0 0 0 0 0 0 0 0 0 0 0 0 0 0 0 5 22 22
0 0 0 0 0 0 0 0 0 0 71 97 43 37 68 82 69 94 75 29 100 11 0 0 0 0 0 0 0 0 0 0 0 0 0 0 0 0 0 0 0 0 97 1
0 0 0 0 0 0 0 0 0 0 75 100 82 61 84 65 17 29 0 52 5 40 4 0 0 0 0 0 0 0 0 0 0 0 0 0 0 0 0 0 0 0 0 0
0 0 0 0 0 0 0 0 0 0 87 78 6 100 5 72 3 0 0 4 1 79 100 33 0 0 0 0 0 0 0 0 0 0 0 0 0 0 0 0 0 0 0 0
0 0 0 0 0 0 0 0 1 0 15 10 9 98 5 48 2 78 20 5 1 83 100 88 0 0 0 0 0 0 0 0 0 0 0 0 0 0 0 0 0 0 0 0
0 0 0 0 0 0 0 0 0 0 0 0 0 2 0 1 45 99 99 6 29 5 6 3 0 0 0 0 0 0 0 0 0 0 0 0 0 0 0 0 0 0 0 0
0 0 0 0 0 0 0 0 0 0 0 0 0 0 0 0 1 47 93 100 7 4 0 0 0 0 0 0 0 0 0 0 0 0 0 0 0 0 0 0 0 0 0 0
0 7 7 0 0 0 0 0 0 0 0 0 0 0 0 0 0 2 1 18 53 26 0 0 0 0 0 0 0 0 0 0 0 0 0 0 0 0 0 0 0 0 0 0
3 12 0 70 28 0 0 0 0 0 0 0 0 0 0 0 0 0 0 4 67 70 1 0 0 0 0 0 0 0 0 0 0 0 0 0 0 0 0 0 0 0 0 0
96 4 2 3 0 0 0 0 0 0 0 0 0 0 0 0 0 0 0 0 2 7 5 0 0 0 0 0 0 0 0 0 0 0 0 0 0 0 0 0 0 0 0 0
95 4 4 0 2 43 14 0 0 0 0 0 0 0 0 0 0 0 0 0 1 5 5 2 0 0 0 0 0 0 0 0 0 0 0 0 0 0 5 4 0 0 0 0
72 1 0 0 0 0 4 2 0 0 0 0 0 0 0 2 0 0 0 0 0 86 26 5 4 0 0 0 0 0 0 0 0 0 0 0 0 0 4 10 6 0 0 0
75 0 0 0 0 0 10 99 5 0 0 0 0 0 0 4 2 0 0 0 0 4 39 5 5 0 0 0 0 0 0 0 0 0 0 0 0 0 0 4 16 56 41 5
94 55 2 0 0 34 100 85 5 0 0 0 0 0 0 9 21 0 0 0 0 0 5 5 5 0 0 0 0 0 0 0 0 0 0 0 0 0 0 3 5 5 5 0
86 97 3 1 75 100 7 4 99 14 0 0 0 0 0 1 4 1 0 0 0 0 4 10 5 5 1 0 0 0 0 0 0 0 0 0 1 0 0 0 0 0 0 0
86 80 5 45 100 49 2 100 84 54 5 0 0 16 24 91 100 24 0 0 0 0 0 0 0 0 0 11 0 0 0 0 0 0 0 5 5 4 1 0 0 0 1 0
99 54 5 100 100 8 90 100 100 98 100 98 37 100 100 100 5 5 0 0 0 0 0 0 0 0 5 6 88 48 0 0 0 0 0 0 0 3 2 0 0 0 0 5
100 85 87 79 99 100 100 100 27 99 100 84 97 100 100 93 5 0 0 0 0 0 0 0 0 0 5 55 98 37 32 43 52 4 0 0 0 0 0 0 2 2 1 0
100 100 100 93 100 100 53 100 99 100 100 94 94 100 100 1 4 0 0 0 0 0 0 0 0 0 0 2 6 26 22 5 1 0 0 0 3 0 1 2 5 5 21 10
100 100 100 100 98 100 96 100 100 99 100 100 100 100 0 0 0 0 0 0 0 0 0 0 0 0 0 0 0 2 5 57 86 58 21 5 5 5 5 5 5 7 78 100
100 100 100 100 100 100 100 100 100 100 99 79 82 96 1 0 0 0 0 0 0 0 0 0 0 0 0 0 0 0 0 0 0 2 5 5 5 5 5 6 53 18 29 5
99 99 100 73 100 100 100 100 100 100 59 57 15 0 0 0 0 0 0 4 0 5 5 0 0 0 0 0 0 0 0 0 0 0 0 0 0 0 0 0 0 0 0 0
45 35 8 15 86 10 100 99 85 68 32 96 1 0 0 0 0 0 0 0 14 1 4 1 5 5 0 0 0 0 0 0 0 0 0 0 0 3 0 8 42 2 0 12
100 100 100 96 80 93 32 100 100 100 9 4 2 0 0 0 0 0 0 1 53 0 0 0 5 5 5 3 0 0 0 0 0 0 0 0 0 0 0 0 51 85 61 91

GFSCGP_prec_cloud_048.txt.gz
Cloud_Cover
0 0 0 0 0 0 0 0 0 5 5 100 7 27 4 0 1 2 16 21 47 5 0 0 0 0 0 0 0 0 0 0 0 0 0 0 0 0 5 63 100 100 54 1
0 0 0 0 0 0 0 0 0 0 4 100 76 5 43 6 1 0 5 99 61 4 3 3 0 0 0 0 0 0 0 0 0 0 0 0 0 0 0 0 13 13 5 15
0 0 0 0 0 0 0 0 0 0 8 86 100 100 47 99 71 5 4 95 100 35 27 2 0 0 0 0 0 0 0 0 0 0 0 0 0 0 0 0 0 1 5 16
0 0 0 0 0 0 0 0 0 0 3 89 80 95 100 94 5 4 33 6 85 100 98 15 0 0 0 0 0 0 0 0 0 0 0 0 0 0 0 0 5 4 5 4
0 0 0 0 0 0 0 0 0 0 5 80 82 53 95 87 94 0 0 0 4 98 100 26 0 0 0 0 0 0 0 0 0 0 0 0 0 0 0 0 0 5 2 0
0 0 0 0 0 0 0 0 0 0 4 34 50 84 60 15 4 0 0 0 0 74 62 36 18 0 0 0 0 0 0 0 0 0 0 0 0 0 0 0 0 0 0 0
0 0 0 0 0 0 0 0 0 1 13 5 4 5 0 5 2 0 4 0 3 100 71 25 6 0 0 0 0 0 0 0 0 0 0 0 0 0 0 0 0 0 0 0
0 0 0 0 0 0 0 0 0 0 1 3 0 5 0 0 38 6 53 5 55 100 69 41 1 20 2 0 0 0 0 0 0 0 0 0 0 0 0 0 0 0 0 0
66 0 0 0 0 0 0 0 0 1 0 0 0 0 0 5 5 5 5 38 5 88 5 97 6 16 19 0 0 0 0 0 0 0 0 0 0 0 0 0 0 0 0 0
44 18 0 0 1 0 0 0 0 0 0 0 0 0 0 0 0 4 5 5 0 4 5 1 3 0 8 0 0 0 0 0 0 0 0 0 0 0 0 0 0 0 0 0
98 73 0 72 4 0 0 0 0 0 0 0 0 0 0 0 0 0 5 3 0 0 1 3 4 0 0 0 0 0 0 0 0 0 0 0 0 0 0 0 0 0 0 0
100 100 42 8 0 0 0 0 0 0 0 0 0 0 0 0 0 4 0 5 0 0 0 4 5 5 0 0 0 0 0 0 0 0 0 0 0 0 0 0 0 0 0 0
100 100 100 0 23 87 10 0 0 0 0 0 0 0 0 0 0 0 0 1 4 0 0 0 100 8 0 0 0 0 0 0 0 0 0 0 0 0 0 0 0 0 0 0
100 100 94 64 2 76 0 0 0 0 0 0 0 0 0 0 0 0 0 0 0 0 0 0 28 6 0 0 0 0 0 0 0 0 0 0 0 0 0 0 0 0 1 0
100 100 47 4 1 4 0 0 0 0 0 0 0 0 0 0 0 0 0 0 0 0 0 0 0 3 4 4 1 0 0 0 0 0 0 0 0 0 0 0 0 0 5 5
100 100 6 0 4 1 0 0 0 0 0 0 0 1 5 1 2 3 0 0 0 0 0 0 0 0 1 1 1 0 0 0 0 0 0 0 0 0 0 0 0 0 1 5
100 100 34 14 100 54 38 98 40 2 3 0 0 30 100 45 2 76 79 0 0 0 0 0 0 0 0 4 0 0 0 0 0 0 0 0 0 0 0 0 0 0 0 0
100 100 8 54 100 100 100 100 46 4 30 3 0 24 100 86 16 57 5 0 0 0 0 0 0 0 0 5 5 4 0 0 0 5 5 0 0 0 3 0 0 0 0 0
100 100 35 100 100 78 100 100 97 2 2 5 0 0 6 31 5 1 1 0 0 0 0 0 0 0 0 0 0 0 0 0 0 0 5 30 5 8 59 5 0 0 0 0
100 100 55 98 100 100 100 100 97 5 7 68 3 4 6 7 8 0 0 0 0 0 0 0 0 0 0 0 0 0 0 0 0 0 3 5 86 84 96 85 5 0 0 0
100 100 100 100 100 100 100 78 45 100 69 85 4 1 5 0 2 1 0 0 0 0 0 0 0 0 0 0 0 5 40 38 2 0 0 9 5 100 100 35 5 2 4 4
100 100 100 95 98 100 63 100 100 59 100 7 3 2 0 0 0 1 0 0 0 0 0 0 0 0 0 0 0 0 5 18 8 58 67 96 100 95 4 2 1 3 3 4
100 100 100 100 100 100 100 100 100 98 100 66 5 1 0 0 0 0 0 5 0 0 0 0 0 0 0 0 0 0 2 6 92 38 13 90 66 6 5 5 5 5 5 5
95 71 100 88 36 100 100 98 100 100 100 100 12 2 1 0 0 3 5 5 0 0 0 0 0 0 0 0 0 0 0 4 5 18 5 6 5 5 18 5 5 5 5 18
100 100 100 99 5 88 100 100 82 100 97 99 23 0 0 0 0 0 1 5 4 0 0 0 4 0 0 0 0 0 0 0 0 0 2 3 5 4 14 80 56 19 28 23
100 100 100 100 97 100 100 100 100 100 100 100 12 0 0 0 0 3 5 5 5 0 0 1 0 0 0 0 0 0 0 0 0 0 0 2 6 8 50 82 100 98 64 60

GFSCGP_prec_cloud_051.txt.gz
Cloud_Cover
0 0 0 0 0 0 0 0 0 0 0 3 0 5 5 34 0 0 5 5 5 1 0 0 0 0 0 0 0 0 0 0 0 0 0 0 5 11 8 5 5 24 0 1
0 0 0 0 0 0 0 0 0 0 5 3 54 4 4 0 0 2 2 65 56 5 5 4 0 0 0 0 0 0 0 0 0 0 0 0 6 45 42 40 93 5 2 3
0 0 0 0 0 0 0 0 0 0 3 5 15 95 4 0 2 32 5 76 72 52 5 0 0 0 0 0 0 0 0 0 0 0 0 0 2 1 5 28 100 7 5 11
0 0 0 0 0 0 0 0 0 0 2 69 4 7 2 2 3 0 2 5 70 94 21 41 5 0 0 0 0 0 0 0 0 0 0 0 0 0 0 3 1 9 61 49
0 0 0 0 0 0 0 0 0 0 0 5 61 47 5 2 0 0 5 1 5 42 93 5 5 5 0 0 0 0 0 0 0 0 0 0 0 0 0 0 0 75 39 5
0 0 0 0 0 0 0 0 0 0 0 5 25 100 2 4 0 0 3 0 2 15 91 49 45 67 1 0 0 0 0 0 0 0 0 0 0 0 0 0 0 5 4 2
0 0 0 0 0 0 0 0 0 0 2 0 2 77 0 2 0 0 0 0 75 5 83 100 89 29 5 1 0 0 0 0 0 0 0 0 0 0 0 0 0 1 1 0
13 0 0 0 0 0 0 0 0 0 0 0 0 2 3 0 0 0 2 0 5 43 96 50 100 96 5 2 0 0 0 0 0 0 0 0 0 0 0 0 0 0 0 0
13 1 0 0 0 0 0 0 0 0 0 4 0 0 0 0 0 3 0 0 1 78 63 46 94 39 5 5 2 0 0 0 0 0 0 0 0 0 0 0 0 0 0 0
82 20 0 0 1 0 0 0 0 0 0 0 0 0 0 0 0 0 0 0 1 89 94 32 47 58 50 10 55 0 0 0 0 0 0 0 0 0 0 0 0 0 0 0
34 26 2 0 4 0 0 0 0 0 0 0 0 0 0 0 5 0 0 0 0 6 99 11 97 4 54 96 5 5 0 0 0 0 0 0 0 0 0 0 0 0 0 0
78 99 96 0 0 0 0 0 1 0 0 0 0 0 0 0 8 5 0 0 0 0 4 59 30 94 8 92 24 4 0 0 0 0 0 0 0 0 0 0 0 0 0 0
96 100 64 1 50 40 97 1 0 0 0 0 0 2 0 0 0 76 49 3 0 0 3 91 20 47 52 0 0 0 0 0 0 0 0 0 0 0 0 0 0 0 0 0
100 84 47 27 80 100 100 5 0 2 0 0 0 1 0 0 0 0 14 8 5 0 0 13 4 6 80 1 0 0 0 0 0 0 0 0 0 0 0 0 0 0 0 0
100 100 97 35 43 69 6 5 4 2 0 0 2 0 0 0 0 0 0 0 0 0 0 0 5 0 8 0 0 0 0 0 0 0 0 0 0 0 0 0 0 0 0 0
100 100 47 5 27 28 5 78 73 5 0 0 4 1 0 0 0 0 0 0 0 0 0 0 0 0 10 4 1 0 0 0 0 0 0 0 0 0 0 0 0 0 0 0
100 100 17 5 29 100 100 100 95 95 3 0 4 0 0 0 0 0 0 0 0 0 0 0 0 0 0 0 4 2 0 0 0 0 0 0 0 0 0 0 2 3 0 0
100 100 91 61 36 100 100 88 100 81 0 0 3 0 4 4 0 0 0 0 0 0 0 40 14 3 0 1 5 5 0 0 0 0 0 0 0 0 0 0 0 15 16 0
100 100 81 100 71 100 100 100 100 54 0 0 0 0 3 0 0 0 0 0 0 0 0 5 3 1 0 0 5 5 5 0 0 0 2 0 0 0 4 5 3 2 2 24
100 93 100 100 100 100 100 100 48 5 0 0 0 0 0 2 0 0 0 0 9 0 0 0 0 0 0 0 5 5 5 0 0 1 4 40 95 27 8 89 16 5 1 0
100 100 100 100 100 91 100 99 52 94 0 0 0 0 0 0 0 0 0 0 5 2 0 0 0 1 0 0 0 1 0 5 4 0 0 82 61 92 54 56 97 5 5 0
100 100 100 100 100 100 100 89 98 34 0 0 0 0 0 0 0 0 0 0 0 2 0 0 19 58 0 3 5 5 4 5 61 7 1 3 70 22 24 80 6 3 5 5
100 100 100 100 88 100 100 96 68 24 5 2 0 0 0 0 0 0 0 0 0 0 2 0 0 1 11 1 1 0 5 5 5 6 5 2 87 100 100 100 86 88 98 77
100 100 100 100 100 100 100 54 96 100 60 57 0 0 14 2 0 0 0 1 5 29 16 4 0 0 0 8 0 0 0 0 2 4 5 12 71 59 98 90 18 30 8 72
100 100 100 100 100 100 100 100 100 88 97 53 2 4 26 51 25 1 0 5 5 5 68 11 6 11 2 0 2 2 4 1 5 5 5 5 8 59 84 100 84 100 100 100
100 100 100 100 100 100 94 100 100 100 100 94 12 23 83 100 99 76 0 4 5 8 6 6 5 5 5 1 0 1 0 0 0 0 0 5 4 9 93 100 100 100 100 100

GFSCGP_prec_cloud_054.txt.gz
Cloud_Cover
0 0 0 0 0 0 0 0 0 0 4 5 35 82 7 3 0 5 0 5 5 5 0 0 0 0 0 0 0 0 0 0 0 0 0 0 0 0 0 0 0 0 0 5
0 0 0 0 0 0 0 0 0 0 5 4 0 28 6 13 2 5 5 5 5 2 4 5 0 0 0 0 0 0 0 0 0 0 0 0 0 0 5 5 1 0 0 2
0 0 0 0 0 0 0 0 0 0 3 5 0 1 5 3 0 2 0 5 4 5 1 0 0 0 0 0 0 0 0 0 0 0 0 1 5 5 5 13 68 0 0 2
0 0 0 0 0 0 0 0 0 0 0 1 2 0 5 3 3 0 0 1 5 5 5 5 4 0 0 0 0 0 0 0 0 0 0 0 3 12 12 35 40 0 0 2
0 0 0 0 0 0 0 0 0 0 0 0 16 11 5 5 24 0 0 0 3 5 5 36 21 4 0 0 0 0 0 0 0 0 0 0 0 2 4 5 3 0 0 2
0 0 0 0 0 0 0 0 0 0 0 68 1 93 0 0 0 0 0 0 5 5 5 92 6 3 5 5 0 0 0 0 0 0 0 0 0 0 0 0 0 1 3 0
0 0 0 0 0 0 0 0 0 0 0 2 0 45 0 0 0 0 0 1 8 35 34 76 6 5 2 3 4 0 0 0 0 0 0 0 0 0 0 0 0 0 0 0
4 0 0 0 0 0 0 0 0 0 0 0 0 1 0 0 0 3 5 0 54 75 46 34 5 5 0 2 5 2 0 0 0 0 0 0 0 0 0 0 0 0 0 0
22 0 0 0 0 0 0 0 0 0 0 0 0 0 0 0 0 5 95 2 2 5 57 43 71 12 4 60 10 1 0 0 0 0 0 0 0 0 0 0 0 0 0 0
2 29 0 0 0 0 0 0 0 0 0 0 0 0 0 0 0 0 2 0 0 5 5 85 32 98 4 28 100 69 5 0 0 0 0 0 0 0 0 0 0 0 0 0
0 27 1 0 0 0 0 1 0 0 0 0 0 0 0 0 0 2 100 48 1 0 4 55 5 74 2 1 3 5 14 59 0 0 0 0 0 0 0 0 0 0 0 0
3 89 84 0 0 0 5 4 0 0 0 0 0 0 0 0 0 0 0 100 79 0 5 35 2 78 5 1 10 93 56 100 21 0 0 0 0 0 0 0 0 0 0 0
2 71 65 0 0 36 48 7 0 5 1 0 0 0 0 0 0 0 8 100 19 0 4 16 89 0 5 0 0 37 81 13 5 1 0 0 0 0 0 0 0 0 0 0
2 43 72 5 1 71 4 98 4 21 5 0 1 0 0 0 0 0 2 7 12 2 10 31 10 5 4 4 0 0 3 5 0 1 0 0 0 0 0 0 0 0 0 0
3 99 5 5 5 24 10 8 22 65 6 5 4 1 0 0 0 0 0 5 16 10 2 5 5 5 94 0 4 0 0 0 0 0 0 0 0 0 0 0 0 0 0 0
42 22 44 96 84 28 93 8 98 51 5 5 5 1 5 0 0 0 5 5 0 0 0 0 0 5 100 39 5 0 0 0 0 0 0 0 0 0 0 0 0 0 0 0
100 77 87 77 100 100 35 6 92 5 5 5 3 0 5 0 0 0 0 0 0 0 0 0 0 5 1 91 5 0 1 0 0 0 0 0 0 0 0 0 0 0 0 0
100 100 99 90 100 100 5 12 24 7 35 5 0 0 0 0 0 0 2 0 0 3 1 0 0 2 1 1 5 0 5 0 0 0 0 0 0 0 0 0 0 0 0 0
100 85 100 100 100 100 100 36 6 19 49 5 0 0 0 0 0 0 50 94 64 29 32 3 0 0 5 2 5 0 2 0 0 0 0 0 0 0 0 0 0 0 15 15
6 81 100 100 100 100 100 25 25 5 5 31 0 0 0 0 0 28 100 100 96 73 90 72 0 0 2 5 1 5 0 0 0 0 0 0 0 0 0 0 0 0 1 10
100 100 100 100 100 100 100 68 18 99 21 82 1 0 0 0 0 85 100 100 100 99 84 57 3 38 100 40 34 5 3 0 0 0 0 0 0 1 5 5 5 5 5 6
100 100 100 100 100 100 100 80 71 99 89 81 35 0 0 0 26 98 100 100 99 73 12 92 100 100 100 97 97 5 5 1 3 45 0 3 58 5 12 90 86 49 27 7
100 100 100 100 100 100 100 98 65 100 91 91 66 11 0 0 1 92 100 100 100 100 100 100 99 83 57 14 5 58 37 2 0 5 95 1 3 5 5 17 100 58 96 5
100 100 100 100 100 100 100 95 56 28 82 96 100 99 82 29 0 48 100 100 100 100 100 95 70 64 31 48 8 82 41 6 5 11 72 44 0 5 64 8 90 21 4 4
100 100 100 100 100 100 100 100 100 77 97 99 100 100 100 81 17 0 47 100 100 100 100 100 99 91 63 2 30 100 94 14 27 53 96 98 40 14 7 82 19 75 56 90
100 100 100 100 100 100 100 100 95 98 100 99 100 100 100 100 53 0 0 52 57 100 100 100 100 100 100 92 24 36 34 37 33 28 14 10 7 33 80 100 100 100 99 100

GFSCGP_prec_cloud_057.txt.gz
Cloud_Cover
0 0 0 0 0 0 0 0 0 20 32 4 2 5 5 5 92 8 0 5 5 0 0 0 0 0 0 0 0 0 0 0 0 0 0 0 0 0 0 0 0 0 0 0
0 0 0 0 0 0 0 0 0 4 25 4 2 5 5 9 73 6 5 5 5 0 0 0 0 0 0 0 0 0 0 0 0 0 0 0 0 0 0 0 0 0 0 0
0 0 0 0 0 0 0 0 0 0 4 5 0 29 5 64 53 5 2 3 3 5 4 1 0 0 0 0 0 0 0 0 0 0 0 0 0 0 3 0 0 0 0 4
0 0 0 0 0 0 0 0 0 0 1 5 5 0 5 68 100 7 3 0 1 0 0 0 0 0 0 0 0 0 0 0 0 0 0 0 0 0 2 5 68 0 0 4
0 0 0 0 0 0 0 0 0 0 0 2 5 16 0 0 4 13 3 0 0 2 0 1 0 0 0 0 0 0 0 0 0 0 0 0 0 0 0 4 15 5 0 2
0 0 0 0 0 0 0 0 0 0 0 0 0 2 0 0 0 5 5 0 0 5 5 5 0 0 4 0 0 0 0 0 0 0 0 0 0 0 0 5 5 3 0 4
0 0 0 0 0 0 0 0 0 0 0 0 0 0 0 0 0 3 4 4 4 5 7 5 2 0 0 0 2 1 0 0 0 0 0 0 0 0 0 0 0 0 0 1
0 0 0 0 0 0 0 0 0 0 0 0 0 0 0 0 0 0 0 69 68 5 8 5 5 10 0 2 0 0 0 0 0 0 0 0 0 0 0 0 0 0 0 0
0 0 0 0 0 0 0 0 0 0 0 0 0 0 0 0 0 0 3 63 20 16 5 2 0 4 5 3 0 0 0 0 0 0 0 0 0 0 0 0 0 0 0 0
0 0 0 0 0 0 0 0 0 0 0 0 0 0 0 0 0 0 2 5 16 99 33 5 0 0 0 0 0 4 0 0 0 0 0 0 0 0 0 0 0 0 0 0
0 1 0 0 0 0 0 3 0 0 0 0 0 0 0 0 0 0 1 5 5 99 92 5 5 0 0 0 0 4 5 3 5 0 0 0 0 0 0 0 0 0 0 0
3 3 0 0 0 0 0 10 1 0 0 0 0 0 0 0 0 0 2 5 29 19 96 5 5 5 4 0 0 0 97 53 3 4 0 0 0 0 0 0 0 0 0 0
5 32 2 0 0 1 3 2 0 1 0 0 0 0 0 0 0 0 0 40 59 8 97 100 9 5 5 0 0 0 0 0 2 35 14 0 0 0 0 0 0 0 0 0
1 5 0 0 0 8 76 60 5 1 2 0 0 1 0 0 0 0 69 16 1 4 53 68 79 7 5 0 0 0 0 2 43 100 97 50 0 0 0 0 0 0 0 0
5 5 0 0 0 4 0 30 23 5 0 0 0 3 0 0 0 0 92 5 5 5 5 5 22 5 0 0 1 0 0 0 0 9 27 14 5 0 0 0 0 0 0 0
31 27 5 0 0 4 5 0 22 5 5 0 0 0 0 0 0 0 0 1 2 6 98 5 5 5 4 39 5 1 0 0 0 0 0 0 1 5 0 0 0 0 0 0
19 95 17 0 25 51 5 0 1 3 0 4 0 0 0 0 0 0 0 0 0 5 64 5 5 5 0 5 5 1 2 0 0 0 0 0 0 0 0 0 0 0 0 0
77 81 19 3 58 50 0 1 94 5 1 5 5 0 0 0 0 0 0 0 0 5 52 0 3 2 2 11 51 15 15 0 0 0 0 0 0 0 0 0 0 0 0 0
12 96 69 26 97 53 87 4 98 11 4 3 5 0 0 0 0 0 13 40 22 28 0 0 0 0 3 0 6 100 68 2 0 0 0 0 0 0 0 0 0 0 0 0
73 88 14 96 100 99 100 99 100 96 56 42 11 1 39 0 0 0 2 5 91 100 61 33 0 0 0 9 6 68 63 1 0 0 0 0 0 0 0 0 0 0 0 0
98 100 84 100 100 88 98 100 100 100 37 46 5 20 44 0 0 38 100 100 100 100 100 58 0 0 0 1 4 5 5 2 0 0 0 0 0 0 0 0 0 0 0 0
100 100 100 100 100 91 100 100 100 97 70 96 81 81 47 30 89 99 100 100 100 93 60 99 12 0 0 0 5 3 80 5 0 0 0 0 0 0 0 0 0 0 0 1
100 100 100 100 100 100 100 100 100 92 100 100 100 99 36 100 100 100 100 100 100 100 100 100 98 100 77 1 5 33 50 46 1 0 0 0 0 0 0 0 0 2 12 5
100 100 100 100 100 100 100 100 100 98 100 100 100 100 100 100 100 100 100 100 100 100 100 100 86 62 76 99 76 64 11 0 3 5 0 0 0 0 4 1 5 5 5 50
100 100 100 100 100 100 100 100 100 100 100 100 100 100 100 100 100 100 100 100 100 100 100 100 100 100 96 64 80 93 88 64 4 0 4 53 5 1 4 16 6 6 5 16
100 100 100 100 100 100 100 100 100 100 100 100 100 100 100 100 100 100 100 100 100 100 100 100 100 100 100 88 63 11 82 97 34 27 39 58 99 99 10 0 7 91 89 100

GFSCGP_prec_cloud_060.txt.gz
Cloud_Cover
0 0 0 0 0 0 0 0 0 2 98 21 95 99 5 5 2 0 0 0 0 0 10 16 0 0 0 0 0 0 0 0 0 0 0 0 0 0 0 0 0 0 0 0
0 0 0 0 0 0 0 0 0 0 55 6 100 92 79 5 5 1 0 0 0 2 0 0 2 0 0 0 0 0 0 0 0 0 0 0 0 0 0 0 0 0 0 0
0 0 0 0 0 0 0 0 0 0 4 5 72 96 100 5 5 0 5 0 0 0 0 0 0 0 0 0 0 0 0 0 0 0 0 0 0 3 0 0 0 0 4 2
0 0 0 0 0 0 0 0 0 0 0 5 12 31 15 5 5 3 5 0 0 0 0 0 0 0 0 0 0 0 0 0 0 0 0 0 0 0 0 0 0 0 0 0
0 0 0 0 0 0 0 0 0 0 0 1 60 96 99 31 5 2 0 2 0 0 0 0 0 0 0 0 0 0 0 0 0 0 0 0 0 0 0 0 5 4 0 5
0 0 0 0 0 0 0 0 0 0 0 0 0 5 5 96 5 14 5 5 5 0 0 0 0 0 0 0 0 0 0 0 0 0 0 0 0 0 0 0 5 0 0 5
0 0 0 0 0 0 0 0 0 0 0 0 0 0 0 20 65 71 67 5 6 5 0 0 2 0 0 0 0 0 0 0 0 0 0 0 0 0 0 0 3 0 0 0
0 0 0 0 0 0 0 0 0 0 0 0 0 0 0 2 12 5 0 5 72 5 5 3 4 0 0 0 0 0 0 0 0 0 0 0 0 0 0 0 0 0 0 0
0 0 0 0 0 0 0 0 0 0 0 0 0 0 0 0 0 0 0 5 5 5 5 5 2 0 0 0 0 0 0 0 0 0 0 0 0 0 0 0 0 0 0 0
0 0 0 0 0 0 9 0 0 0 1 0 0 0 0 0 0 0 0 5 0 8 5 5 0 1 4 0 0 0 0 0 0 0 0 0 0 0 0 0 0 0 0 0
0 0 0 0 0 0 0 0 91 4 2 0 0 0 0 0 0 0 0 0 1 5 5 5 5 0 2 6 0 0 0 0 0 0 0 0 0 0 0 0 0 0 0 0
4 0 0 0 0 0 0 50 6 100 23 0 2 1 0 0 0 0 0 0 0 5 5 5 46 5 0 0 0 0 0 0 0 0 0 0 0 0 0 0 0 0 0 0
45 0 0 0 0 0 0 0 2 100 100 62 7 0 0 0 0 0 0 0 0 94 42 61 5 29 2 0 0 0 0 0 0 0 5 4 0 0 0 0 0 0 0 0
4 0 5 0 2 0 5 22 93 14 98 61 96 98 7 0 0 0 0 0 13 61 5 10 12 5 5 5 1 0 0 0 0 5 4 0 0 0 0 0 0 0 0 0
12 21 70 4 0 0 0 5 5 1 34 77 96 100 100 0 0 0 0 0 0 5 5 10 49 5 5 19 5 1 0 0 0 0 0 0 4 0 0 0 0 0 0 0
91 94 100 68 1 0 0 0 5 5 5 5 10 77 100 68 0 0 0 0 0 0 5 5 5 5 5 5 5 1 0 0 0 0 0 5 48 5 5 0 0 0 0 0
99 96 100 88 13 3 0 0 0 0 2 5 3 2 5 76 1 0 0 0 0 0 5 81 52 5 6 4 4 0 2 1 0 0 0 0 0 5 5 5 5 5 0 0
100 100 100 100 100 5 1 0 11 0 0 5 5 6 1 0 0 0 0 0 0 6 31 82 67 5 66 6 3 3 6 5 0 0 0 0 0 0 0 0 0 0 2 0
100 100 91 100 100 28 14 57 56 74 29 74 4 5 0 0 0 0 0 0 0 83 96 81 5 5 5 5 5 5 5 3 3 0 0 0 0 0 0 0 0 0 0 0
100 100 100 97 95 17 82 56 58 69 5 5 0 5 0 0 0 0 0 0 0 47 100 95 35 5 39 5 52 5 60 5 5 4 0 0 0 0 0 0 0 0 0 0
100 100 100 98 100 68 37 100 90 99 58 91 77 30 0 17 0 33 56 25 27 3 0 74 7 0 5 5 6 5 44 5 5 5 4 0 0 0 0 0 0 0 0 0
43 68 87 96 100 86 64 100 100 100 97 83 100 100 63 86 92 69 69 57 17 0 0 98 51 0 5 4 3 5 6 98 72 5 4 0 0 0 0 0 0 0 0 0
100 100 100 98 90 92 86 100 98 100 100 100 87 100 95 100 100 100 100 100 92 28 34 100 100 91 1 1 0 2 5 72 79 5 7 0 0 0 0 0 0 0 0 0
100 100 100 100 100 100 100 100 100 100 100 100 100 100 100 100 100 100 100 100 100 100 83 74 100 100 100 56 53 31 15 67 21 12 26 0 0 0 0 0 1 0 0 0
100 100 100 100 100 100 100 100 100 100 100 100 100 100 100 100 100 100 100 100 100 100 100 100 100 100 100 100 100 100 100 35 22 71 20 7 0 0 14 4 5 0 0 18
100 100 100 100 100 100 100 100 100 100 100 100 100 100 100 100 100 100 100 100 100 100 100 100 100 100 100 100 100 100 100 96 44 39 19 0 0 16 7 12 11 79 65 100

GFSCGP_prec_cloud_063.txt.gz
Cloud_Cover
0 0 0 0 0 0 0 0 0 4 4 100 28 100 100 100 86 1 0 0 5 33 45 27 2 0 0 0 0 0 0 0 0 0 0 0 32 64 100 100 59 0 57 30
0 0 0 0 0 0 0 0 0 0 14 28 23 96 99 56 2 0 0 0 0 33 96 10 8 0 0 0 0 0 0 0 0 0 0 1 12 47 83 67 1 3 0 1
0 0 0 0 0 0 0 0 0 0 3 73 100 30 100 100 2 0 0 0 0 0 1 16 5 0 0 2 0 0 0 0 0 0 0 0 0 91 22 82 0 1 5 0
0 0 0 0 0 0 0 0 0 0 0 5 14 89 68 80 56 0 0 0 0 0 0 11 4 0 0 0 0 0 0 0 0 0 0 0 0 4 8 20 18 5 3 14
0 0 0 0 0 0 0 0 0 0 0 2 4 17 100 36 65 37 0 0 0 0 0 0 0 0 0 0 0 0 0 0 0 0 0 0 0 0 3 7 65 10 0 0
0 2 0 0 0 0 0 0 0 0 0 0 0 5 13 100 100 74 6 4 0 0 0 0 0 0 2 2 0 0 0 0 0 0 0 0 0 0 0 2 17 0 15 0
0 0 0 0 0 0 0 0 0 0 0 0 0 0 2 91 72 100 10 5 1 0 0 0 0 0 0 0 0 0 0 0 0 0 0 0 0 0 0 4 0 1 1 0
0 0 0 0 0 0 0 0 0 0 0 0 0 0 0 10 99 6 100 53 1 5 0 0 0 0 0 0 0 0 0 0 0 0 0 0 0 0 0 0 0 0 0 0
0 0 3 0 0 0 0 1 0 0 3 0 0 0 0 0 3 61 100 76 95 15 0 0 0 5 0 0 0 0 0 0 0 0 0 0 0 0 0 0 0 0 0 0
0 0 0 4 0 0 5 22 0 0 3 0 0 0 0 0 0 2 52 89 33 100 2 0 0 3 0 0 0 0 0 0 0 0 0 0 0 0 0 0 3 0 0 0
0 0 0 0 0 0 0 0 66 77 2 4 1 0 0 0 0 0 0 3 4 12 5 22 5 5 0 0 0 0 0 0 1 0 0 0 0 0 0 0 0 0 0 0
3 0 0 0 0 0 0 2 0 90 83 5 1 13 5 36 0 0 0 5 4 5 65 47 24 5 4 0 0 0 0 0 0 0 0 0 0 0 0 0 0 0 0 0
44 4 1 0 0 0 0 0 5 8 50 99 6 2 77 30 0 0 0 2 5 5 16 60 7 5 5 4 0 0 0 0 0 0 0 0 0 0 0 0 0 0 0 0
5 29 100 62 59 74 4 0 4 5 81 85 96 99 95 59 4 0 0 0 4 6 51 97 79 11 1 4 0 0 0 0 0 0 0 0 0 0 0 0 0 0 0 0
5 99 98 75 29 88 0 1 27 23 25 83 68 100 25 100 96 77 26 5 76 99 100 56 92 97 1 5 5 3 5 0 0 0 0 3 4 1 0 0 0 0 0 0
100 80 100 100 100 97 4 0 5 36 5 90 73 87 74 100 100 100 0 99 33 5 60 34 91 5 5 5 0 5 5 4 0 0 0 3 72 78 5 0 0 0 0 0
100 58 99 90 100 100 96 0 0 0 0 0 3 0 98 99 99 100 47 31 8 0 0 0 2 5 5 5 5 1 5 5 0 0 0 0 0 0 0 20 4 0 0 0
70 42 100 90 100 100 42 3 2 11 0 0 0 0 67 100 100 100 99 0 0 0 0 0 5 5 5 5 27 2 5 5 2 0 0 0 0 0 15 91 100 28 3 5
100 100 100 100 100 76 75 100 39 8 11 1 5 0 0 100 100 10 100 0 0 0 0 0 0 5 0 1 5 1 0 3 0 0 0 0 0 0 0 0 0 2 1 0
100 100 48 99 100 93 90 100 81 0 0 89 83 32 5 95 100 90 95 0 0 0 0 0 0 0 1 4 5 5 1 0 0 0 0 0 0 0 0 0 0 0 0 0
99 100 63 80 96 100 100 100 85 13 33 19 14 5 6 6 99 77 2 0 0 0 0 0 0 15 62 6 5 5 5 0 5 26 5 4 0 0 0 0 0 0 0 0
100 100 99 99 100 82 100 5 20 37 81 100 70 26 2 1 56 1 0 0 0 0 0 0 3 65 95 89 5 19 5 67 19 5 5 5 4 0 0 0 0 0 0 0
100 100 100 99 98 51 82 97 99 86 58 91 100 86 94 53 100 6 5 0 0 2 37 71 98 27 100 26 5 26 90 62 16 5 7 5 4 0 0 0 0 0 0 0
100 100 100 100 93 88 70 99 100 100 100 88 100 98 100 100 99 100 0 0 0 14 73 80 100 100 64 76 46 42 7 5 5 83 67 6 5 0 0 1 9 0 0 0
100 100 100 100 100 100 100 100 100 100 100 100 100 100 100 100 100 100 100 68 56 46 6 94 100 100 100 100 100 57 5 84 11 5 60 5 35 22 0 0 0 0 0 2
100 100 100 100 100 100 100 100 100 100 100 100 100 100 100 100 100 100 100 100 100 74 100 100 100 100 100 100 100 98 26 78 97 96 90 72 6 41 4 0 0 85 54 99

GFSCGP_prec_cloud_066.txt.gz
Cloud_Cover
0 0 0 0 0 0 0 0 0 0 1 21 100 9 62 50 46 100 100 100 34 0 100 10 100 0 0 0 0 0 38 0 0 0 0 85 0 78 98 50 70 0 55 100
0 0 0 0 0 0 0 0 0 0 2 4 17 98 71 100 100 100 75 100 16 6 42 27 51 4 5 0 0 0 0 0 0 0 0 6 76 82 4 77 18 0 22 6
0 0 0 0 0 0 0 0 0 0 1 7 13 2 99 84 100 100 100 71 22 0 3 2 0 0 0 0 0 0 0 0 0 0 0 0 100 20 60 49 5 0 0 2
0 0 0 0 0 0 0 0 0 0 0 2 36 68 7 99 100 100 100 80 6 38 0 0 0 0 0 0 0 0 0 0 0 0 0 0 0 100 64 0 8 0 0 0
0 0 0 0 0 0 0 0 0 0 0 0 1 71 22 32 17 100 100 100 26 13 4 0 0 0 0 0 0 0 0 0 0 0 0 0 0 6 100 27 73 0 0 0
0 0 0 0 0 0 0 0 0 0 0 0 0 0 21 56 54 100 100 100 4 0 2 0 0 0 0 0 0 0 0 0 0 0 0 0 0 0 18 32 75 34 0 0
0 0 0 2 0 0 0 0 0 0 0 0 0 0 0 29 18 100 100 100 74 0 0 0 0 0 0 0 0 0 0 0 0 0 0 0 0 0 0 4 93 39 0 43
0 0 0 0 0 0 0 0 0 0 0 0 0 0 0 0 35 65 100 100 99 9 0 0 0 0 0 0 0 0 0 0 0 0 0 0 0 0 0 0 0 62 4 22
0 0 2 0 0 0 0 13 0 0 0 0 0 0 0 0 0 72 100 97 100 100 70 1 0 0 0 0 0 0 0 0 0 0 0 0 0 0 0 0 0 0 0 9
0 0 0 1 14 0 0 0 38 1 0 0 0 0 0 0 0 3 64 99 100 100 43 98 11 0 0 0 0 0 0 0 0 0 0 0 0 0 0 0 0 0 5 1
0 0 0 0 1 3 6 0 5 87 60 0 0 0 0 0 0 0 1 46 52 100 100 100 99 44 0 0 0 0 0 0 0 0 0 0 0 0 0 0 0 0 1 2
5 0 0 0 0 0 1 6 5 95 5 6 0 0 0 1 47 0 0 0 100 100 100 100 100 100 100 0 0 0 0 0 0 0 0 0 0 0 0 0 0 0 0 0
46 3 2 0 0 0 0 0 0 2 26 44 32 9 0 69 95 94 4 0 13 100 100 100 100 100 34 0 0 0 0 0 0 0 0 0 0 0 0 0 0 0 0 0
0 2 3 31 12 34 0 5 0 2 16 4 5 7 0 100 38 96 64 4 100 100 100 100 100 91 100 12 0 0 0 0 0 0 0 0 0 0 0 0 0 0 0 0
2 5 5 5 1 100 10 3 4 0 0 5 0 18 0 100 100 88 84 5 17 100 100 91 99 100 100 100 1 0 0 0 0 0 0 0 0 0 0 0 0 0 0 0
5 36 86 65 77 55 32 5 2 0 0 5 5 84 0 100 95 6 20 9 3 4 100 93 100 87 100 68 17 5 0 0 0 0 0 0 0 0 0 3 5 0 0 0
77 50 39 5 56 100 74 49 50 0 0 0 8 1 6 100 97 86 69 100 10 5 1 65 5 98 5 100 100 81 40 0 0 0 0 0 0 0 0 5 14 5 4 0
60 93 40 68 100 84 0 1 68 2 0 0 0 0 5 100 100 8 35 99 74 76 4 1 3 1 55 100 100 100 100 4 0 0 0 0 0 0 1 4 20 0 0 0
90 97 43 73 89 67 60 42 96 100 3 12 4 0 0 100 100 100 100 88 30 52 16 2 8 3 2 91 100 100 95 1 0 0 0 0 0 0 0 0 0 3 5 62
45 89 78 98 100 96 15 85 18 92 5 7 5 1 0 73 100 100 97 94 22 95 0 3 0 72 5 34 8 20 0 0 0 0 0 0 0 0 0 0 0 0 5 4
91 96 39 100 78 34 100 64 100 98 16 21 16 51 94 44 91 100 60 4 93 71 5 1 0 4 5 11 8 0 0 0 2 7 0 0 0 0 0 0 0 0 0 0
100 75 87 93 96 91 46 91 90 100 81 37 22 69 100 100 97 40 30 1 58 80 72 3 12 15 20 29 24 6 0 0 0 5 4 0 0 2 5 0 0 0 0 0
100 100 100 98 94 89 35 46 58 100 100 49 54 6 100 100 100 100 5 100 100 100 40 57 74 84 81 75 95 63 8 2 0 5 15 0 0 5 5 5 3 0 0 0
100 100 100 65 78 89 83 74 93 100 100 100 85 70 100 93 95 98 64 100 84 75 100 47 34 39 27 100 100 100 47 6 2 4 68 5 5 5 5 4 4 0 0 0
100 100 100 100 100 64 41 100 100 100 94 100 100 100 100 98 14 10 65 71 100 100 100 26 8 17 19 100 100 100 97 59 20 5 99 5 5 0 5 4 0 0 0 0
100 100 100 100 100 100 100 100 100 100 100 100 100 100 100 40 6 2 6 36 93 98 100 64 54 9 65 100 100 100 100 94 67 13 100 96 30 4 2 1 22 93 65 69

GFSCGP_prec_cloud_069.txt.gz
Cloud_Cover
0 0 0 0 0 0 0 0 0 0 0 2 80 31 5 19 100 100 100 90 98 93 97 100 100 62 0 0 0 0 0 0 0 0 0 0 0 0 0 2 2 57 100 22
0 0 0 0 0 0 0 0 0 0 0 53 5 4 0 69 100 58 100 100 99 100 100 2 99 37 0 0 0 0 0 0 0 0 0 0 0 0 46 39 0 2 22 35
0 0 0 0 0 0 0 0 0 0 0 4 30 63 5 27 99 90 100 100 95 100 100 92 91 99 2 0 0 0 0 0 0 0 0 0 0 0 0 0 0 0 0 90
0 0 0 0 0 0 0 0 0 0 0 0 9 100 65 10 11 43 81 100 100 100 100 6 64 46 15 0 0 0 0 0 0 0 0 0 0 40 0 0 0 0 0 60
0 0 0 0 0 0 0 0 0 0 0 0 1 4 5 13 5 97 100 100 100 89 36 2 85 3 0 0 0 0 0 0 0 0 0 0 0 0 0 0 0 0 0 0
0 0 0 0 0 0 0 0 0 0 0 0 0 0 55 0 2 96 100 100 100 84 51 0 0 0 0 0 0 0 0 0 0 0 0 0 0 0 2 12 14 0 0 0
0 0 0 0 0 0 0 0 0 0 0 0 0 0 0 0 0 61 100 100 100 100 18 0 0 0 0 0 0 0 0 0 0 0 0 0 0 0 0 17 0 6 1 0
0 0 0 0 0 0 0 0 0 0 0 0 0 0 0 0 0 0 100 100 100 100 94 35 0 0 0 0 0 0 0 0 0 0 0 0 0 0 0 2 0 3 10 0
0 0 0 0 0 0 0 0 0 0 0 0 0 0 0 0 0 0 62 100 100 100 100 100 80 0 0 0 0 0 0 0 0 0 0 0 0 0 0 0 0 0 0 0
0 0 0 0 0 0 0 0 0 0 0 0 0 0 0 0 0 2 0 56 100 100 100 100 100 25 5 0 0 0 0 0 0 0 0 0 0 0 0 0 0 0 0 0
0 0 0 0 0 0 0 0 5 3 0 0 0 0 0 48 0 99 6 97 100 100 100 100 100 100 70 0 2 0 0 0 0 0 0 0 0 0 0 0 0 0 0 0
0 0 2 0 0 0 0 0 0 5 0 0 0 0 0 0 72 12 2 100 100 100 100 100 100 100 100 65 13 0 0 0 0 0 0 0 0 0 0 0 0 0 0 0
0 0 0 0 0 0 0 0 4 1 0 0 4 0 0 7 99 90 4 16 20 100 100 100 100 100 100 100 100 71 5 0 0 0 0 0 0 0 0 0 0 0 0 0
0 0 0 0 0 0 0 0 0 0 0 0 4 0 0 5 100 99 99 5 2 93 100 100 100 100 100 100 100 100 100 65 0 0 0 0 0 0 0 0 0 0 0 0
3 0 0 0 0 1 0 0 0 0 0 0 0 0 0 18 100 100 100 100 22 11 22 98 100 100 100 100 100 100 100 100 3 0 0 0 0 0 0 0 0 0 0 0
32 7 3 0 0 0 4 0 0 0 0 0 0 0 26 0 12 25 100 100 22 5 72 100 95 86 100 100 100 100 100 100 51 0 0 0 0 0 0 0 0 0 0 0
20 9 5 4 2 5 0 3 0 0 0 0 0 0 93 1 1 23 32 99 96 10 100 66 82 100 100 100 100 100 100 100 84 38 2 0 0 0 0 0 0 0 0 0
5 5 32 5 17 12 0 0 82 12 0 0 0 0 1 6 5 3 5 42 99 34 47 9 44 99 100 100 100 100 100 100 100 100 100 66 3 0 0 0 0 0 1 5
4 36 53 99 66 10 5 0 5 100 75 3 0 0 0 0 56 0 28 5 43 22 1 14 7 1 100 97 100 100 100 100 100 100 100 81 100 0 0 0 0 0 0 5
76 31 98 94 100 77 0 3 7 15 55 11 2 2 32 24 7 2 5 26 33 5 0 0 0 0 6 89 99 100 100 100 100 100 100 92 79 43 0 0 0 0 0 3
94 97 51 100 98 27 18 2 47 96 36 96 5 38 1 98 76 68 0 0 84 99 5 3 21 9 56 100 22 90 93 66 100 100 100 89 100 37 0 0 0 0 0 0
79 100 100 100 96 96 26 40 11 90 18 100 97 99 57 13 97 8 23 51 6 100 100 90 5 99 14 100 100 81 79 100 100 100 100 100 82 0 0 0 0 0 0 0
98 100 100 100 100 100 100 98 99 83 76 89 13 99 45 5 5 76 18 60 98 26 100 100 100 100 21 52 82 59 100 100 100 100 100 100 100 5 0 0 2 0 0 0
100 100 100 100 100 100 100 75 73 38 100 100 100 19 95 49 9 100 6 5 100 93 99 66 100 72 33 6 34 19 100 100 100 100 100 100 32 24 5 0 3 48 3 0
53 97 100 100 100 100 100 100 100 100 100 100 100 79 61 98 15 94 88 12 43 100 89 64 100 32 42 5 2 4 23 85 100 100 100 70 9 60 37 0 7 5 5 1
98 99 100 100 88 100 100 100 100 100 100 100 100 100 100 28 100 67 100 21 60 100 100 99 100 100 100 100 10 12 97 98 99 100 100 19 1 5 80 5 10 91 84 37

GFSCGP_prec_cloud_072.txt.gz
Cloud_Cover
0 0 0 0 0 0 0 0 0 0 12 56 21 15 9 74 30 35 100 100 84 84 67 100 100 90 27 0 0 0 0 0 0 0 0 0 0 0 0 2 5 5 1 1
0 0 0 0 0 0 0 0 0 0 0 1 4 67 68 57 30 70 62 91 82 100 100 100 98 96 0 0 0 0 0 0 0 0 0 0 0 0 0 2 5 5 5 1
0 0 0 0 0 0 0 0 0 0 0 0 0 94 84 78 37 4 81 100 100 100 100 100 66 63 73 9 0 0 0 0 0 0 0 0 0 0 0 0 0 0 8 55
0 0 0 0 0 0 0 0 0 0 0 0 0 5 72 53 16 13 76 100 100 100 100 100 99 16 25 0 0 0 0 0 0 0 0 0 0 0 0 0 0 0 46 59
0 0 0 0 0 0 0 0 0 0 0 0 0 0 55 22 5 18 100 98 100 100 100 94 100 6 0 0 0 0 0 0 0 0 0 0 0 0 0 0 0 0 2 0
0 0 0 0 0 0 0 0 0 0 0 0 0 0 0 0 2 39 24 100 100 100 100 86 95 9 0 0 0 0 0 0 0 0 0 0 0 0 0 0 0 0 0 0
0 0 0 0 0 0 0 0 0 0 0 0 0 0 0 0 0 0 1 55 81 100 87 67 6 0 17 0 0 0 0 0 0 0 0 0 0 0 0 0 0 0 0 0
0 0 0 0 0 0 0 0 0 0 0 0 0 0 0 0 0 0 0 30 100 94 71 76 46 0 0 0 0 0 0 0 0 0 0 0 0 0 0 0 0 0 0 0
0 0 0 0 0 0 0 0 0 0 0 0 0 0 0 0 0 0 0 0 68 100 98 99 47 0 0 0 0 0 0 0 0 0 0 0 0 0 0 0 0 0 0 3
0 0 0 0 0 0 0 0 0 0 0 0 0 0 0 0 0 0 0 0 45 97 45 98 18 5 42 12 0 0 0 0 0 0 0 0 0 0 0 0 1 0 0 0
1 0 0 0 0 0 0 0 0 0 0 0 0 0 0 0 0 0 0 0 23 100 63 71 100 5 50 55 42 0 0 0 0 0 0 0 0 0 0 0 0 0 0 0
5 73 5 0 0 0 0 0 0 0 0 0 0 0 0 2 2 0 0 0 0 93 91 88 96 100 100 94 53 5 0 0 0 0 0 0 0 0 0 0 0 0 0 0
0 1 69 39 2 0 0 0 0 0 0 0 0 0 0 4 4 0 0 0 0 99 100 100 100 99 100 100 54 45 0 11 10 0 0 0 0 0 0 0 0 0 0 0
0 0 0 0 0 0 0 0 1 0 0 0 0 0 0 3 5 5 0 0 0 8 100 93 85 100 100 100 100 100 100 100 100 92 13 4 0 0 0 0 0 0 0 0
5 3 0 0 0 0 0 0 0 0 0 0 0 0 0 0 3 22 4 0 0 0 0 86 100 100 100 100 100 100 100 100 100 96 4 42 17 0 0 0 0 0 0 0
2 5 0 0 0 0 0 0 0 0 0 0 0 0 0 0 0 3 6 5 2 93 100 100 100 100 100 100 97 100 100 100 64 100 89 100 1 0 0 0 0 0 0 0
0 1 2 0 0 0 0 0 0 0 4 1 0 0 0 0 52 1 5 8 5 26 81 100 100 100 100 100 96 100 100 100 100 100 100 100 57 0 0 0 0 0 0 0
0 2 0 5 3 4 0 0 0 0 1 4 0 0 0 0 100 24 6 72 5 18 33 100 100 100 100 67 100 100 100 100 100 100 100 100 100 100 62 91 10 0 0 0
4 1 5 4 4 0 0 0 0 0 13 5 5 0 0 0 1 5 0 75 99 10 90 65 100 100 100 100 100 100 100 100 100 100 100 100 71 100 100 100 100 44 0 0
5 5 1 4 36 5 0 0 34 4 46 2 11 6 0 0 0 3 6 9 90 100 83 100 100 100 100 100 100 100 100 100 100 100 100 100 100 100 100 100 100 100 14 0
4 36 5 27 19 18 31 0 7 80 13 50 21 100 12 20 7 3 43 68 98 100 100 100 100 100 100 100 100 100 100 100 100 100 100 100 100 100 100 95 66 100 20 0
42 99 64 100 62 48 40 8 21 92 59 22 2 84 100 6 8 34 2 85 75 100 100 100 100 100 100 100 100 100 100 100 100 100 100 100 100 100 19 90 22 100 76 4
90 29 99 100 100 100 100 88 55 89 63 3 0 69 92 72 5 17 5 2 6 98 100 100 99 100 100 100 88 100 100 100 100 100 100 100 100 100 95 100 98 100 100 2
48 100 91 92 100 100 78 91 97 64 100 10 17 91 100 93 51 5 5 5 1 3 100 100 100 100 35 73 63 100 100 100 100 100 100 100 100 100 100 100 100 100 99 1
100 82 55 78 64 100 80 80 100 86 100 100 74 88 100 100 95 9 10 0 1 0 13 99 100 100 100 90 73 84 100 100 100 100 100 100 100 100 100 100 100 100 72 6
100 67 60 15 6 37 99 64 100 100 100 100 100 100 99 100 100 66 89 2 0 0 20 82 99 100 100 100 74 100 99 100 100 100 100 100 100 100 99 70 100 100 98 52

GFSCGP_prec_cloud_075.txt.gz
Cloud_Cover
0 0 0 0 0 0 0 0 0 80 7 0 0 0 5 8 87 96 100 90 73 99 100 36 34 5 1 20 0 0 0 0 0 0 0 0 0 0 5 14 21 5 5 1
0 0 0 0 0 0 0 0 0 0 73 4 3 3 3 20 35 26 74 55 96 79 97 100 100 32 0 3 0 0 0 0 0 0 0 0 0 0 24 44 6 73 1 2
0 0 0 0 0 0 0 0 0 34 74 4 0 54 96 97 95 5 6 53 77 10 96 74 100 75 2 0 0 0 0 0 0 0 0 0 0 12 1 3 5 5 9 5
0 0 0 0 0 0 0 0 0 6 4 0 0 22 97 2 4 32 2 11 80 99 97 89 83 42 100 1 0 0 37 0 0 0 0 0 0 0 0 0 0 1 5 6
0 0 0 0 0 0 0 0 0 5 0 0 0 0 0 5 4 4 6 100 86 62 100 78 78 49 100 83 0 0 4 24 0 0 0 0 0 0 0 0 0 1 0 4
0 0 0 0 0 0 0 0 0 0 0 0 0 0 0 12 61 6 1 84 71 99 87 99 100 100 97 22 0 0 0 19 0 0 0 0 0 0 0 0 0 0 0 1
0 0 0 0 0 0 0 0 0 0 0 0 0 0 0 0 16 3 0 5 89 80 72 90 4 10 5 2 0 0 0 1 0 0 0 0 0 0 0 0 0 0 0 0
0 0 0 0 0 0 0 0 0 0 0 0 0 0 0 0 0 0 0 0 52 68 94 100 29 6 85 1 0 0 0 0 0 0 0 0 0 0 0 0 0 0 0 0
0 0 0 0 0 0 0 0 0 0 0 0 0 0 0 0 0 0 0 0 0 43 97 6 2 13 5 1 0 0 0 0 0 0 0 0 0 0 0 0 0 0 0 0
0 0 0 0 0 0 0 0 0 0 0 0 0 0 0 0 0 0 0 0 0 1 72 99 5 22 4 4 0 0 0 0 0 0 0 0 0 0 0 0 0 0 0 0
13 0 0 0 0 0 0 0 0 0 0 0 0 0 0 0 0 0 0 0 0 0 9 100 30 5 5 19 4 0 0 0 0 0 0 0 0 0 0 0 0 0 0 0
100 97 23 0 0 0 0 0 0 0 0 0 0 0 0 0 0 0 0 0 0 0 0 100 100 90 88 93 5 60 2 0 0 0 0 0 0 0 0 0 0 0 0 0
100 100 100 14 0 0 0 0 0 0 0 0 0 0 0 0 0 0 0 0 0 0 0 2 28 60 100 100 32 5 7 1 0 0 0 0 0 0 0 0 0 0 0 0
54 100 100 45 5 4 1 0 0 0 0 0 0 0 0 0 5 0 0 0 0 0 3 0 50 100 100 94 70 5 3 5 0 0 0 0 0 0 0 0 0 0 0 0
0 20 89 100 52 5 5 5 5 2 0 0 0 0 0 24 75 5 0 0 27 84 71 67 100 100 100 100 100 24 5 5 5 0 3 100 76 48 0 0 0 0 0 0
63 5 5 70 49 5 5 5 5 0 0 0 0 0 0 0 16 0 4 1 14 94 100 100 99 100 100 100 59 93 100 100 92 84 56 37 100 100 36 0 0 0 0 0
100 100 62 5 5 5 5 0 0 0 0 0 0 0 0 0 0 2 0 0 0 0 27 100 100 100 100 100 95 81 99 88 78 12 93 100 100 100 100 92 1 0 0 0
3 29 93 100 99 72 5 0 0 0 0 0 0 0 0 0 9 2 0 0 0 4 4 3 100 100 100 99 100 82 100 97 13 30 61 86 100 100 100 100 100 0 0 0
0 0 0 0 9 18 79 21 5 0 0 0 0 3 0 28 1 0 60 0 1 0 87 35 92 100 100 92 43 95 100 100 89 100 100 78 100 100 100 100 100 100 100 9
0 0 3 0 5 5 0 0 0 0 3 0 0 0 0 0 33 1 0 0 0 87 13 100 67 99 85 96 98 100 100 100 100 100 63 100 100 100 100 100 100 100 100 99
14 9 22 4 22 4 27 4 0 0 6 4 0 0 0 28 5 5 1 0 0 0 99 74 100 75 60 80 100 100 92 100 100 100 100 100 100 100 100 100 100 100 100 100
4 15 76 91 53 5 10 5 5 32 19 37 9 1 1 0 2 76 38 0 0 0 6 100 87 72 100 100 100 100 100 100 100 100 100 100 100 99 100 100 100 98 91 100
20 6 10 16 5 11 96 5 12 26 5 5 52 10 5 0 22 4 92 15 0 0 0 24 100 98 90 100 100 100 100 100 100 100 100 100 100 100 100 100 100 100 33 100
44 40 22 13 12 8 52 56 5 7 5 8 100 100 73 64 14 91 5 86 6 0 0 0 68 93 89 99 100 100 100 100 100 100 100 100 100 100 100 100 100 100 100 100
4 83 87 68 58 28 8 9 40 83 90 100 100 100 100 100 100 80 2 4 23 3 5 0 0 98 89 69 100 100 91 100 100 100 100 96 100 100 100 98 100 96 99 94
25 63 24 7 5 4 5 4 8 50 60 81 100 69 100 100 100 100 100 91 22 5 1 4 1 17 11 95 100 100 100 100 100 100 100 100 100 96 100 100 100 100 100 100

GFSCGP_prec_cloud_078.txt.gz
Cloud_Cover
0 0 0 0 0 0 0 0 16 6 3 0 0 5 5 66 11 100 100 100 32 19 69 5 90 55 19 0 0 0 0 0 0 0 0 0 0 0 0 0 0 0 0 0
0 0 0 0 0 0 0 0 10 21 5 0 0 8 0 30 4 91 100 100 76 98 15 6 48 100 76 1 0 0 0 0 0 0 0 0 0 0 38 5 2 0 0 0
0 0 0 0 0 0 0 0 7 68 6 2 0 48 60 85 0 31 36 68 97 33 41 8 35 23 100 91 22 0 0 0 0 0 0 0 0 0 58 8 1 0 3 0
0 0 0 0 0 0 0 0 0 47 5 0 0 0 1 58 100 35 5 71 37 5 6 16 36 5 14 86 100 100 9 10 0 0 0 0 0 0 3 0 0 0 3 3
0 0 0 0 0 0 0 0 0 0 5 0 0 0 0 0 3 5 49 98 100 74 50 66 50 5 5 5 10 100 4 82 8 0 0 0 0 0 0 0 0 5 1 19
0 0 0 0 0 0 0 0 0 0 5 5 0 0 0 50 38 5 7 5 95 94 51 5 97 96 5 4 66 13 0 0 96 0 0 0 0 0 0 0 0 4 0 0
0 0 0 0 0 0 0 0 0 0 1 0 0 0 0 0 1 0 5 5 7 100 21 13 56 58 39 4 5 1 0 0 24 40 0 0 0 0 0 0 0 0 0 0
0 0 0 0 0 0 0 0 0 0 0 0 0 0 0 0 5 5 0 0 1 51 5 42 7 3 3 0 0 4 0 0 0 37 0 0 0 0 0 0 0 0 0 0
0 0 0 0 0 0 0 0 0 0 0 0 0 0 0 0 0 4 0 0 0 100 5 5 69 6 0 5 1 0 0 0 0 0 0 0 0 0 0 0 0 0 0 0
0 0 0 0 0 0 0 0 0 0 0 0 0 0 0 0 0 0 0 0 0 88 96 77 5 48 5 18 4 7 3 0 0 0 0 0 0 0 0 0 0 0 0 0
0 0 0 0 0 0 0 0 0 0 0 0 0 0 0 0 0 0 39 37 22 3 100 100 90 5 38 39 100 5 6 0 0 0 1 18 0 0 0 0 0 0 0 0
100 64 0 0 0 0 0 0 0 0 0 0 0 0 0 0 0 68 100 94 54 0 0 24 82 5 79 99 99 50 75 4 6 9 0 23 36 0 0 0 0 0 0 0
100 59 5 0 0 0 0 0 0 0 0 0 0 0 0 0 0 42 100 100 54 65 18 3 96 82 5 100 100 100 21 3 0 0 0 17 41 0 0 0 0 0 0 0
100 100 54 5 2 0 0 0 0 0 0 0 0 0 0 0 14 3 38 100 100 87 100 100 95 40 13 99 100 99 90 43 2 0 0 8 48 1 0 0 0 0 0 0
92 100 100 91 9 5 4 0 0 0 0 0 0 0 0 0 14 8 4 21 66 99 100 97 100 100 99 91 100 100 100 96 13 5 7 0 0 3 0 0 0 0 0 0
100 100 100 100 89 93 35 5 5 0 0 0 0 0 0 0 0 0 0 0 86 62 6 90 100 100 100 100 100 100 100 98 82 5 12 5 0 0 5 0 0 0 0 0
100 100 100 39 5 13 6 5 5 5 5 3 0 0 0 0 0 0 0 0 0 0 0 0 60 100 100 100 100 100 100 100 95 82 5 5 5 1 5 5 100 14 0 0
100 100 100 100 18 4 0 1 2 1 3 5 3 0 0 0 0 9 8 0 0 0 0 0 0 32 100 100 100 88 100 100 100 97 14 5 5 4 45 5 7 100 86 0
25 63 100 100 100 79 6 3 0 0 0 0 0 0 0 0 0 0 0 0 0 0 0 0 0 1 100 100 100 24 100 100 100 100 99 87 27 12 44 58 5 5 93 68
46 63 5 46 86 84 100 98 7 2 8 8 0 0 1 0 0 0 0 0 0 0 0 0 35 4 11 100 100 89 63 100 100 100 91 100 100 100 100 38 60 89 77 100
17 6 4 5 5 4 4 5 6 24 42 72 7 0 6 6 4 0 0 0 1 5 0 0 16 55 5 71 100 100 65 89 75 99 100 100 100 100 100 100 75 57 68 100
3 29 94 56 42 6 0 0 1 8 5 3 1 0 3 18 0 0 0 0 4 0 0 0 0 1 5 29 93 100 92 15 84 100 100 100 100 100 100 98 100 100 95 100
5 5 5 5 4 0 0 0 0 0 4 5 5 14 70 11 0 0 1 0 0 0 0 0 0 0 5 59 77 80 100 79 67 86 100 100 100 100 100 100 100 100 79 100
5 5 24 6 1 0 0 0 0 4 5 6 16 61 100 100 100 75 0 0 0 0 0 0 0 0 2 44 86 98 99 64 61 58 100 80 100 100 100 100 100 100 100 100
5 6 14 11 2 1 0 0 0 3 5 11 99 100 100 100 100 100 56 61 1 0 0 0 0 0 0 5 58 97 98 82 50 10 85 100 100 100 100 100 100 84 100 100
4 6 14 5 2 3 0 0 0 0 0 5 14 41 73 100 100 100 100 98 21 7 0 0 0 0 0 2 4 70 92 44 90 100 100 100 100 100 100 100 100 56 100 100

GFSCGP_prec_cloud_081.txt.gz
Cloud_Cover
0 0 0 0 0 0 0 31 78 24 5 5 5 5 5 75 100 100 100 100 92 8 27 8 5 5 6 43 1 0 0 0 0 0 0 0 0 0 0 0 0 0 0 0
0 0 0 0 0 0 0 3 46 12 5 5 2 5 5 27 100 99 100 100 57 46 37 26 21 32 9 78 85 5 7 0 0 0 0 0 0 0 5 13 2 0 0 0
0 0 0 0 0 0 0 0 1 4 5 5 0 3 13 72 28 58 61 100 37 14 73 93 59 8 5 22 5 17 75 40 0 0 0 0 0 0 2 6 3 0 0 0
0 0 0 0 0 0 0 0 3 5 5 2 0 0 2 98 99 33 75 79 89 17 8 5 5 3 5 5 5 5 38 28 0 0 0 0 0 0 0 0 0 0 0 58
0 0 0 0 0 0 0 0 0 4 5 5 0 0 0 55 99 17 75 91 100 77 19 3 4 3 0 1 64 5 34 44 2 0 0 0 0 0 0 0 0 0 1 80
0 0 0 0 0 0 0 0 0 2 3 3 0 0 0 0 0 0 5 5 22 99 93 24 5 5 1 1 1 5 22 0 4 0 0 0 0 0 0 0 0 0 0 0
0 0 0 0 0 0 0 0 0 2 0 0 0 0 0 0 0 11 5 5 5 31 11 86 5 5 22 1 5 2 2 5 0 0 0 0 0 0 0 0 0 0 0 0
0 0 0 0 0 0 0 0 0 0 0 0 0 0 0 0 0 5 4 1 5 5 100 10 56 6 24 0 0 0 0 4 18 4 7 0 0 0 0 0 0 0 0 0
0 0 0 0 0 0 0 0 0 0 0 0 0 0 0 0 0 3 5 2 3 2 100 94 100 98 84 5 1 0 0 1 5 0 5 0 0 0 0 0 0 0 0 0
0 0 0 0 0 0 0 0 0 0 0 0 0 0 0 0 0 8 97 100 100 2 97 100 100 80 19 5 5 32 4 0 75 4 0 19 0 0 0 0 0 0 0 0
0 0 0 0 0 0 0 0 0 0 0 0 0 0 0 3 93 100 100 100 100 61 100 81 71 14 87 5 95 55 5 3 95 64 0 3 42 0 0 0 0 0 0 0
4 0 0 0 0 0 0 0 0 0 0 0 0 0 0 12 100 100 100 100 100 100 96 100 100 96 76 17 85 100 23 100 98 100 88 44 100 100 19 0 0 0 0 0
79 5 4 0 0 0 0 0 0 0 0 0 0 0 0 6 21 98 76 92 100 100 99 100 100 61 73 39 5 96 38 15 37 99 100 100 100 100 99 15 0 0 0 0
98 84 19 0 0 0 0 0 0 0 0 0 0 0 0 0 6 0 36 72 76 99 100 100 100 100 100 98 73 56 57 1 5 14 14 90 100 100 100 100 28 0 0 0
100 82 50 5 12 4 0 0 0 0 0 0 0 0 0 20 40 27 46 29 3 3 68 100 100 100 100 98 86 99 100 100 90 95 5 1 0 66 72 100 100 33 0 0
99 100 100 99 88 100 74 6 0 0 0 0 0 0 0 18 44 10 13 10 2 0 0 0 84 100 100 100 100 100 100 100 99 100 53 39 5 0 0 2 92 87 1 0
100 100 100 100 97 93 59 49 5 5 3 0 0 0 0 0 0 0 0 0 26 37 20 15 0 0 0 54 100 100 100 100 100 100 100 100 100 98 19 0 0 0 0 0
100 100 100 100 100 73 75 72 91 80 15 5 2 0 0 0 0 4 0 0 0 7 30 33 11 0 0 0 7 58 100 100 100 100 100 100 100 100 99 75 11 0 0 0
26 100 100 100 94 21 10 76 100 100 91 38 5 5 4 0 0 2 0 0 0 0 0 0 2 0 0 0 0 0 45 100 100 100 100 100 99 100 95 100 100 99 21 0
64 7 5 58 98 34 5 5 5 5 5 14 24 9 5 2 0 11 0 0 0 0 0 0 0 0 0 0 0 0 0 5 98 100 100 100 100 100 92 87 87 71 76 28
100 100 40 5 5 5 5 5 5 5 12 38 12 6 3 0 0 0 0 0 0 0 0 0 0 0 0 0 0 0 0 22 59 40 100 100 100 94 90 100 100 98 80 87
3 15 36 16 8 4 1 4 5 6 5 5 2 0 0 0 0 0 0 0 0 0 0 0 0 0 0 0 0 0 0 0 58 77 42 100 100 100 99 100 100 56 100 100
3 3 2 3 1 2 5 5 5 1 4 5 5 0 0 0 0 0 0 0 0 0 0 0 0 0 0 0 0 0 1 6 0 100 98 94 42 100 97 100 100 100 100 100
2 0 3 0 0 0 0 0 0 0 0 0 0 1 11 20 24 11 1 0 0 0 0 0 0 0 0 0 0 0 6 50 18 4 100 100 100 92 77 100 100 100 100 100
1 11 18 3 0 0 0 0 0 0 0 0 0 0 5 5 5 11 3 27 30 18 26 25 18 2 0 0 0 0 18 100 66 18 44 94 100 91 91 62 100 100 100 100
3 11 9 1 0 0 0 0 0 0 0 3 0 2 22 36 11 9 5 69 100 90 100 83 61 65 13 0 0 0 43 100 98 72 12 5 43 81 100 50 97 95 100 100

GFSCGP_prec_cloud_084.txt.gz
Cloud_Cover
0 0 0 0 0 26 5 73 40 100 5 5 5 5 80 100 100 90 100 99 82 8 52 3 1 4 18 21 92 5 5 0 0 0 0 30 49 73 82 73 5 5 10 0
0 0 0 0 0 0 0 3 2 11 3 5 4 74 31 100 100 100 100 100 98 17 82 74 8 0 6 92 55 41 25 0 0 0 0 20 82 84 9 5 3 5 5 0
0 0 0 0 0 0 0 3 2 4 2 5 3 55 85 49 100 94 100 95 100 78 94 100 94 11 61 34 79 13 18 4 0 0 1 3 0 2 1 13 19 8 1 5
0 0 0 0 0 0 0 6 4 2 0 14 1 77 15 64 100 100 89 100 100 100 100 100 93 54 2 4 6 4 47 14 0 0 1 4 3 46 48 32 76 13 5 34
0 0 0 0 0 0 24 0 0 5 0 0 0 85 17 88 100 99 100 99 99 91 100 100 86 32 5 0 0 5 84 26 7 0 0 0 0 39 5 33 18 10 4 79
0 0 0 0 0 0 0 0 2 5 0 0 3 27 0 9 56 20 76 58 41 86 98 100 100 82 5 0 0 5 4 100 33 0 0 0 0 19 96 13 48 28 12 1
0 0 0 0 0 0 0 0 0 2 0 0 1 4 19 1 0 1 4 6 31 76 68 26 86 91 5 0 0 0 2 14 63 11 0 0 0 0 1 1 14 26 32 36
0 0 0 0 0 0 0 0 0 2 0 1 0 4 0 0 0 10 10 2 53 9 94 94 60 42 91 30 5 1 3 0 0 0 8 0 0 0 0 1 8 0 61 44
39 0 0 0 0 0 0 0 2 2 3 4 0 0 0 0 0 1 85 98 15 67 48 89 100 57 97 76 67 0 0 2 0 0 34 22 0 0 0 7 0 0 0 70
0 0 0 0 0 0 0 0 0 0 0 1 0 0 0 0 0 48 100 100 99 14 6 100 84 77 95 60 42 5 35 14 0 1 2 24 2 0 0 0 0 1 2 0
0 0 0 0 0 0 0 0 0 0 0 0 3 2 0 0 37 100 100 100 100 100 33 96 100 100 96 97 91 10 5 2 0 0 1 4 1 0 0 0 0 0 0 0
2 2 2 0 0 0 0 0 0 0 0 0 4 2 0 0 9 58 100 100 100 100 100 100 100 100 100 96 91 94 14 5 4 0 9 27 3 24 8 0 0 0 0 0
35 1 0 0 0 0 0 0 0 0 0 2 0 1 0 8 5 66 99 100 100 100 100 78 100 100 100 100 100 100 84 63 60 5 23 73 48 24 12 2 3 0 0 0
100 88 3 44 0 0 0 0 0 0 1 25 14 0 4 28 11 51 100 100 100 100 100 100 100 97 82 90 82 94 100 100 100 98 41 4 21 4 2 93 0 13 0 0
99 100 100 19 0 0 0 0 0 0 0 7 48 0 0 23 0 9 56 100 98 90 88 98 100 100 99 85 89 100 95 66 90 100 81 24 24 18 49 0 86 10 0 0
53 98 98 84 84 8 4 0 0 0 0 0 0 0 11 0 0 0 13 39 58 79 97 80 80 99 100 100 100 100 100 100 100 74 65 100 95 75 30 15 14 14 36 0
5 42 100 99 100 100 89 10 2 0 0 0 1 0 0 0 0 0 0 0 5 34 40 34 39 10 6 33 91 100 100 100 100 100 100 99 100 100 100 77 67 50 8 0
94 76 100 100 100 100 10 5 91 49 2 0 0 0 0 0 0 0 0 0 0 0 0 0 0 0 0 0 0 0 73 100 100 100 100 100 97 100 100 95 89 98 57 29
0 98 100 100 100 66 92 85 70 48 15 24 4 0 0 0 0 1 0 0 0 0 0 0 0 0 0 0 0 0 0 6 100 100 100 100 100 100 100 100 100 60 98 100
5 1 54 100 100 100 100 100 100 56 5 63 46 60 5 1 0 28 1 0 0 0 0 0 0 0 0 0 0 0 0 0 0 2 81 100 100 100 100 100 98 97 95 63
5 5 4 4 34 94 100 100 100 100 68 90 27 10 5 5 14 0 4 0 0 0 0 0 0 0 0 0 0 0 0 0 0 0 0 14 88 100 100 100 100 96 98 95
90 35 5 5 5 5 56 100 100 100 100 98 58 56 58 11 5 4 1 4 0 0 0 0 0 0 0 0 0 0 0 0 0 0 0 0 0 23 100 100 95 100 95 98
5 6 14 5 13 5 5 5 48 100 100 100 100 26 5 5 5 5 5 0 0 0 0 0 0 0 0 0 0 0 0 0 0 0 0 0 0 0 1 100 100 93 100 100
5 4 3 0 0 2 4 5 5 4 1 4 10 46 41 5 5 5 1 0 5 2 4 0 0 0 0 0 0 0 0 0 0 0 0 0 0 0 22 15 91 100 92 97
4 4 1 3 0 2 4 0 0 1 3 4 4 1 3 5 5 5 5 5 4 0 4 43 59 75 78 60 18 8 0 0 0 0 0 0 0 0 1 96 11 71 100 100
0 1 2 0 0 0 0 0 0 0 0 0 0 4 3 0 3 4 5 7 6 4 25 72 80 100 78 51 30 67 33 25 5 3 0 0 0 0 0 6 100 72 4 14

GFSCGP_prec_cloud_087.txt.gz
Cloud_Cover
0 0 0 0 0 4 80 48 65 50 54 80 100 1 72 93 100 100 100 100 100 100 91 19 8 0 1 28 98 5 5 5 5 9 13 100 93 100 100 41 26 5 88 8
0 0 0 0 0 52 4 99 100 23 15 93 76 96 63 73 100 100 100 100 100 100 62 92 100 19 0 1 78 5 7 3 6 39 34 88 100 100 36 6 44 87 98 16
0 0 0 0 0 0 5 99 96 17 1 12 29 100 4 19 96 100 100 100 100 100 99 66 55 100 38 3 12 0 4 5 0 34 41 4 79 98 20 32 9 10 100 32
0 0 0 0 0 0 5 11 58 60 6 28 22 87 95 4 27 75 100 100 100 100 100 37 100 100 88 5 0 0 42 17 4 2 100 15 19 66 96 46 86 87 100 88
0 0 0 0 1 0 5 67 96 5 5 100 48 57 100 97 24 45 100 100 100 100 99 100 61 100 100 1 0 0 0 2 5 0 91 20 26 92 96 100 97 1 5 58
1 0 0 0 3 0 10 80 8 4 5 31 44 64 100 35 9 24 57 99 100 100 100 100 100 100 40 12 0 1 0 1 4 5 0 1 35 60 30 83 29 11 5 7
1 0 0 0 4 2 93 8 5 10 5 10 5 71 41 56 34 95 76 100 99 100 100 99 89 92 82 83 4 0 0 0 2 2 0 0 0 1 82 19 25 50 100 80
5 0 0 5 55 12 5 5 4 4 5 6 99 94 4 20 31 99 99 100 22 69 77 97 18 100 15 74 13 0 0 0 3 1 2 1 0 1 0 0 16 17 81 97
17 80 0 0 68 17 14 4 11 82 19 74 52 3 25 9 4 59 100 59 14 5 49 7 82 100 83 90 16 0 0 0 0 0 12 5 0 0 24 51 30 99 38 92
100 59 0 0 0 2 3 3 64 5 100 100 85 2 2 7 12 99 100 100 82 5 26 100 47 10 100 50 80 20 0 0 0 29 8 32 2 1 0 0 0 0 14 0
59 65 1 0 0 0 0 0 30 80 90 100 100 84 3 2 37 100 100 100 100 100 52 33 36 81 100 98 41 100 48 5 1 1 11 12 32 13 5 0 2 0 0 0
100 10 10 0 0 0 0 7 5 6 4 22 100 89 96 0 0 99 100 100 100 74 100 92 69 100 100 100 100 93 96 79 27 1 2 4 11 6 3 1 1 3 0 0
100 100 90 1 0 0 0 0 0 10 99 7 90 39 65 36 74 71 100 100 100 100 78 46 70 71 100 99 98 100 12 100 100 8 20 2 10 11 2 0 14 1 0 0
100 100 100 88 52 0 0 0 0 2 5 73 62 8 74 91 62 100 100 100 100 100 43 26 67 22 73 36 58 97 36 13 91 100 90 79 10 15 9 31 13 13 0 0
80 100 100 62 1 0 5 0 0 0 0 100 100 40 62 32 100 69 100 100 100 100 96 85 84 47 44 29 96 97 100 100 74 25 100 99 61 10 22 43 26 42 14 0
84 96 95 100 90 4 0 0 0 0 0 36 100 100 100 62 37 49 64 99 100 100 100 100 98 97 100 100 99 100 61 100 100 100 54 31 98 100 100 76 22 28 1 1
65 85 91 100 98 100 24 1 0 0 0 3 100 84 26 95 50 17 28 38 33 68 67 60 44 27 26 31 55 97 100 100 89 61 93 54 75 100 100 100 98 42 49 22
5 77 100 100 55 98 91 2 1 0 0 0 1 24 13 59 52 18 0 0 0 0 0 0 0 0 0 0 0 1 4 94 100 100 100 98 56 68 63 81 100 100 100 100
4 84 100 99 99 100 2 56 26 4 0 0 0 1 0 0 6 9 0 0 0 0 0 0 0 0 0 0 0 0 0 0 0 63 100 100 100 87 45 100 100 57 46 42
26 5 2 5 38 99 97 46 24 91 11 5 2 5 2 0 0 3 27 0 0 0 0 0 0 0 0 0 0 0 0 0 0 0 0 2 91 100 100 100 60 76 75 64
5 5 5 4 5 11 4 100 100 100 78 36 49 5 5 0 1 70 0 0 0 0 0 0 0 0 0 0 0 0 0 0 0 0 0 0 1 64 99 97 100 100 91 90
45 71 5 5 25 46 4 68 100 100 99 54 100 100 100 94 71 1 0 0 0 0 0 0 0 0 0 0 0 0 0 0 0 0 0 0 0 0 0 87 83 100 100 94
61 87 100 78 91 6 3 87 88 40 100 100 100 100 100 100 100 10 5 31 5 5 0 0 0 0 0 0 0 0 0 0 0 0 0 0 0 0 0 0 2 81 100 90
5 4 5 5 7 9 5 4 3 92 100 100 100 100 100 100 100 100 29 74 43 69 75 7 5 0 3 16 18 22 1 0 0 0 0 0 0 0 0 0 0 0 11 99
3 5 3 5 14 5 5 5 6 4 2 3 70 100 100 100 100 100 78 58 28 4 5 5 5 5 1 13 19 17 23 7 1 0 0 0 0 0 0 0 0 0 0 12
2 5 3 4 4 4 5 4 0 2 5 5 5 5 5 62 100 100 100 100 61 6 5 4 6 15 40 30 64 82 83 33 89 45 0 0 0 0 0 0 0 0 0 0

GFSCGP_prec_cloud_090.txt.gz
Cloud_Cover
0 0 0 0 0 5 4 6 18 57 100 100 14 29 100 30 100 100 100 100 100 82 83 23 18 6 0 0 6 24 32 0 12 4 46 1 91 33 29 100 57 0 14 18
0 0 0 0 0 0 7 99 66 56 100 37 50 42 100 8 100 100 100 100 90 100 86 32 38 0 3 0 0 0 3 0 0 0 3 27 92 99 9 77 72 5 5 2
0 0 0 0 0 0 5 9 48 2 59 100 70 100 98 4 55 100 100 100 100 100 100 35 88 35 0 0 0 0 0 0 0 0 100 100 100 100 91 3 17 91 12 0
0 0 0 0 0 0 0 8 72 50 51 88 77 23 100 18 35 99 100 100 100 100 100 46 5 3 11 2 0 1 0 0 1 1 1 5 1 1 37 42 69 20 13 0
0 0 0 0 0 0 0 100 90 100 88 100 99 2 74 96 47 74 85 100 100 100 100 96 2 7 15 21 0 0 0 0 0 0 0 0 2 68 66 28 90 75 0 0
0 0 0 0 0 4 0 30 42 74 100 1 82 61 73 83 100 100 7 31 100 100 100 100 81 58 84 71 0 0 0 0 0 0 32 13 0 100 60 38 33 0 0 0
0 1 0 0 0 1 5 2 91 88 5 5 36 100 97 98 100 100 100 19 68 99 100 100 100 100 89 98 16 1 0 0 0 0 0 3 2 30 77 2 47 100 71 52
0 9 2 0 0 4 5 4 30 38 5 4 94 100 9 99 100 100 100 30 86 100 100 100 100 38 0 52 98 0 0 0 0 0 0 0 0 0 12 15 100 60 98 95
64 59 2 5 24 80 6 5 44 100 29 95 79 4 9 100 100 100 100 100 99 100 100 100 99 8 7 42 100 27 0 0 0 0 0 0 0 0 0 3 0 0 45 79
100 76 52 0 2 3 78 8 0 29 100 100 93 4 15 94 100 100 100 98 87 89 58 100 93 100 96 100 74 100 100 99 100 49 0 0 0 0 0 0 19 0 76 60
100 25 57 0 0 1 3 0 1 81 100 100 100 100 100 85 55 99 68 67 100 100 100 89 100 100 100 90 100 100 100 100 100 100 60 0 0 0 0 0 0 0 2 0
100 57 78 0 0 0 89 21 0 5 9 100 45 91 100 32 96 100 100 98 100 100 100 100 80 100 100 100 100 100 100 100 100 100 88 0 0 0 0 0 0 0 0 0
33 20 100 21 0 0 0 0 3 80 53 100 100 100 98 100 43 100 100 100 100 100 100 97 43 50 78 85 100 100 100 100 100 97 100 90 8 0 0 0 0 0 0 0
95 100 97 100 100 22 0 0 0 48 47 94 100 9 8 100 49 97 100 100 100 100 100 64 58 36 44 31 100 100 100 100 100 100 100 100 29 3 0 0 0 1 0 0
100 100 100 63 56 6 4 0 2 0 1 100 100 50 3 5 22 99 100 100 100 100 100 98 56 71 30 60 100 100 100 100 100 100 100 100 99 80 78 100 100 0 0 0
52 100 34 100 52 2 4 60 0 0 0 99 4 100 100 34 3 76 89 41 81 71 78 90 64 44 0 64 82 100 100 100 100 100 100 100 64 100 100 60 3 30 4 0
100 97 72 95 100 100 20 4 0 0 0 99 1 69 100 100 33 61 88 51 42 26 1 0 0 0 0 0 0 2 97 100 100 100 100 100 100 100 100 100 29 19 70 1
100 100 95 56 100 98 100 12 0 0 2 81 22 8 51 76 5 52 5 0 0 0 0 0 0 0 0 0 0 0 0 87 61 81 89 100 98 100 76 17 31 24 31 28
9 45 100 100 100 85 20 100 76 8 6 10 12 94 100 98 5 0 2 0 0 0 0 0 0 0 0 0 0 0 0 0 4 0 10 54 93 100 98 23 18 92 90 34
73 7 5 53 86 100 100 60 98 100 100 7 24 100 98 79 1 0 0 0 0 0 0 0 0 0 0 0 0 0 0 0 0 0 0 0 0 0 34 5 46 33 92 30
100 100 36 5 54 98 29 4 94 100 100 31 8 4 20 2 0 3 0 0 0 0 0 0 0 0 0 0 0 0 0 0 0 0 0 0 0 0 0 5 5 14 89 85
79 100 100 94 50 100 0 5 24 62 100 99 100 90 5 0 0 12 0 0 0 0 0 0 0 0 0 0 0 0 0 0 0 0 0 0 0 0 0 0 4 5 11 99
20 100 91 56 72 5 5 2 1 100 99 100 98 56 74 36 3 0 0 0 0 0 0 0 0 0 0 0 0 0 0 0 0 0 0 0 0 0 0 0 0 0 4 5
32 81 74 52 89 10 10 20 5 0 30 80 100 100 100 100 99 4 0 1 0 0 0 0 0 0 0 0 0 0 0 0 0 0 0 0 0 0 0 0 0 0 0 0
8 32 4 4 51 93 31 20 5 4 2 0 0 23 100 100 100 94 13 12 82 21 5 5 2 17 20 10 3 12 11 0 19 3 0 0 0 0 0 0 0 0 0 0
30 5 36 5 4 31 20 49 99 88 85 5 1 0 0 86 100 100 100 96 100 100 96 96 74 24 30 36 52 72 100 64 97 84 15 16 0 0 0 0 0 0 0 0

GFSCGP_prec_cloud_093.txt.gz
Cloud_Cover
0 0 0 0 0 5 5 6 6 100 54 93 100 68 18 4 68 97 19 100 100 100 34 23 90 3 0 0 0 76 0 0 10 16 6 84 82 75 5 37 0 0 0 3
0 0 0 0 0 0 5 76 100 93 27 97 100 100 28 7 44 86 82 74 86 19 36 16 5 5 0 1 0 0 0 0 1 7 6 100 9 3 0 9 0 0 2 5
0 0 0 0 0 0 3 54 76 69 89 100 100 79 99 17 100 100 100 98 99 100 100 100 51 5 29 34 1 0 0 0 0 0 0 87 76 0 13 5 4 38 31 0
0 0 0 0 0 0 5 40 87 91 46 100 97 99 100 88 24 73 100 100 73 100 100 100 100 42 12 25 0 0 0 0 0 0 0 5 6 5 43 5 8 0 0 16
0 0 0 0 0 0 0 21 97 57 35 80 92 100 100 100 100 52 48 100 100 100 100 100 77 5 4 4 5 2 0 0 0 0 0 0 0 96 6 5 1 4 0 1
0 0 0 0 0 0 4 91 100 79 94 32 55 100 100 100 100 100 96 90 100 100 100 100 100 63 5 5 5 5 0 0 0 0 0 0 0 67 48 24 91 0 0 4
0 0 0 0 0 0 2 93 21 7 30 68 53 86 98 100 100 92 100 100 82 94 100 100 100 93 40 70 100 1 5 1 0 0 0 0 0 52 0 0 46 0 6 5
0 0 0 0 0 0 44 100 72 15 95 100 100 64 82 46 81 82 65 100 88 62 88 100 98 90 99 28 46 0 5 5 82 60 8 96 18 0 19 16 36 17 65 47
10 0 2 0 0 0 8 65 9 100 91 100 79 7 5 93 74 98 100 100 100 100 100 92 73 100 100 85 100 100 92 2 97 100 100 100 100 36 0 0 74 0 94 91
100 3 11 60 0 0 7 2 13 60 5 96 1 5 8 64 88 97 99 100 100 100 94 99 100 100 99 100 96 100 99 99 100 100 100 100 100 91 0 0 0 2 0 2
100 52 30 46 0 0 0 0 3 12 14 90 3 5 27 100 100 100 100 100 100 100 100 100 100 100 92 100 100 100 100 100 100 100 100 100 100 94 0 0 0 0 0 0
48 100 97 2 0 0 9 0 0 5 96 79 12 54 100 100 41 86 100 100 100 100 100 100 100 100 100 100 100 100 100 100 100 100 100 100 100 100 70 8 0 0 0 0
75 99 93 98 5 0 1 37 0 0 97 93 80 64 81 100 100 99 100 100 100 100 100 100 98 92 98 100 100 100 100 100 100 100 100 100 100 100 100 100 100 95 21 4
100 89 100 32 13 0 0 13 2 0 51 84 5 57 100 100 100 100 100 100 100 100 100 28 24 11 31 99 100 100 100 100 100 100 100 100 100 100 100 100 100 100 100 83
100 78 100 100 77 0 0 0 1 3 89 4 5 10 100 98 79 97 100 100 100 100 100 100 87 34 43 61 100 100 100 100 100 100 100 100 100 100 100 100 100 100 100 100
98 89 94 54 99 1 0 0 1 5 99 6 0 12 21 100 20 97 100 100 100 100 100 100 100 100 100 99 100 100 100 100 100 100 100 100 100 100 100 100 100 100 100 100
100 3 100 100 25 55 18 0 0 0 6 1 0 4 85 88 52 55 100 100 100 88 86 53 23 0 24 60 76 91 92 100 99 100 100 100 100 100 100 100 100 100 100 100
100 28 61 100 100 25 79 3 4 2 22 0 0 5 18 73 21 33 11 46 2 0 0 0 0 0 0 0 0 0 17 99 92 100 100 100 100 100 100 100 100 100 100 99
100 82 50 73 95 96 98 93 100 100 93 0 0 27 100 5 42 100 10 6 5 0 0 0 0 0 0 0 0 0 0 10 93 100 100 100 100 100 100 99 100 100 100 100
100 100 98 72 100 100 99 15 100 100 83 1 0 0 63 94 87 6 9 5 0 0 0 0 0 0 0 0 0 0 0 0 0 98 100 100 100 100 100 100 100 100 100 98
78 99 100 100 100 96 89 83 100 100 100 67 48 2 0 5 75 69 3 5 5 2 0 0 0 0 0 0 0 0 0 0 0 0 0 0 8 66 88 77 66 94 28 91
100 100 100 100 66 87 75 61 50 100 100 5 59 100 7 0 0 0 0 0 2 2 0 0 0 0 0 0 0 0 0 0 0 0 0 0 0 0 0 0 0 0 1 5
33 33 100 100 95 7 5 100 100 100 100 65 5 5 100 84 2 0 0 0 0 0 0 0 0 0 0 0 0 0 0 0 0 0 0 0 0 0 0 0 0 0 0 0
9 76 66 63 100 84 24 5 39 54 87 100 8 4 88 100 77 9 0 0 0 0 0 0 0 0 0 0 0 0 0 0 0 0 0 0 0 0 0 0 0 0 0 0
3 18 4 19 55 78 100 32 18 72 5 2 3 0 0 71 100 88 52 5 4 0 0 0 0 0 0 0 0 0 0 0 0 0 0 0 0 0 0 0 0 0 0 0
5 4 5 4 51 81 97 52 100 100 100 93 20 1 0 0 2 75 99 20 5 5 5 5 0 0 0 0 0 0 0 0 0 0 0 0 0 0 0 0 0 0 0 0

GFSCGP_prec_cloud_096.txt.gz
Cloud_Cover
0 0 0 0 26 99 47 10 100 51 66 100 100 53 86 69 83 100 100 72 100 100 96 5 5 5 0 2 43 0 0 0 0 3 98 1 12 4 5 5 0 100 1 0
0 0 0 0 14 13 80 83 100 100 100 100 100 100 100 76 100 94 100 95 100 100 100 44 6 15 0 2 1 0 0 0 0 1 70 2 2 30 5 5 2 1 5 1
0 0 0 0 0 3 5 43 84 96 100 94 100 100 100 92 54 84 100 100 98 100 72 16 95 30 8 17 2 0 0 0 0 0 5 55 7 75 100 96 22 0 1 2
0 0 0 0 0 0 5 29 99 100 96 98 100 100 100 100 51 100 100 97 98 100 100 97 100 79 7 62 1 0 0 0 0 0 0 30 63 100 95 92 71 0 4 2
0 0 0 0 0 0 0 100 96 98 43 12 89 100 100 100 100 98 100 100 100 100 100 62 86 76 0 12 2 2 0 0 0 0 0 0 4 95 5 96 91 0 4 4
0 0 0 0 0 0 10 100 98 35 64 10 29 100 100 100 100 100 100 100 100 100 100 88 69 74 27 5 8 10 6 2 1 73 0 70 100 48 8 35 98 0 4 45
0 0 0 0 0 0 76 99 24 77 66 3 35 94 100 100 100 100 100 93 78 100 100 100 100 92 63 32 32 100 100 38 5 78 100 100 100 100 98 12 30 0 1 5
0 0 0 0 0 0 41 71 5 21 34 22 76 100 100 100 100 100 100 100 62 80 100 100 100 79 6 19 31 100 100 100 51 100 100 100 100 100 99 3 4 0 0 1
3 0 0 0 0 0 54 62 5 5 52 46 33 100 100 100 100 100 100 100 100 100 100 100 98 89 100 46 100 100 100 100 99 41 100 100 100 100 100 12 5 1 63 0
61 22 0 0 0 0 1 14 5 5 19 100 5 59 100 100 100 100 83 100 100 89 85 100 100 100 100 100 69 100 98 100 100 100 100 82 100 100 100 64 2 7 31 6
6 32 1 0 0 0 0 0 3 85 81 68 90 72 100 100 100 100 100 100 100 100 100 100 100 100 100 100 100 96 100 67 100 100 100 100 100 100 100 100 100 100 100 99
84 100 8 5 1 0 0 0 40 98 98 100 97 96 100 100 100 100 100 100 100 100 100 100 100 100 100 99 100 100 98 100 100 100 100 100 100 100 100 100 100 100 100 100
100 100 50 35 6 1 0 0 16 100 89 51 16 98 100 100 90 100 100 100 100 100 100 100 100 100 100 100 100 100 100 100 100 100 100 100 100 100 100 100 100 100 100 100
100 100 96 82 44 5 1 0 6 94 100 52 12 96 100 89 93 100 97 100 100 100 100 100 100 100 100 100 100 100 100 100 100 100 100 100 100 100 100 100 100 100 100 100
100 100 100 99 49 5 5 1 87 68 6 5 87 88 100 95 100 96 100 99 89 100 100 100 100 100 100 100 100 100 100 100 100 100 100 100 100 100 100 100 100 97 98 100
100 100 100 96 58 7 5 15 100 50 71 0 4 100 65 31 3 66 100 96 97 100 100 100 100 100 100 100 100 100 100 100 100 100 100 100 100 100 100 100 100 95 100 95
89 100 100 100 88 100 100 100 46 78 5 3 75 94 98 95 100 17 100 100 100 100 100 100 100 100 100 100 100 100 100 100 100 100 100 100 100 100 100 100 100 100 100 100
90 68 100 100 100 100 100 88 59 5 2 0 27 42 14 37 88 10 96 100 100 100 85 98 75 100 100 100 100 100 100 100 100 100 100 100 100 100 100 100 100 100 100 100
6 25 18 90 100 98 60 99 69 25 50 0 8 77 100 50 87 100 100 96 100 97 48 62 100 100 100 100 100 100 77 26 90 100 100 100 100 100 100 100 100 100 100 100
94 86 100 100 12 96 100 100 100 8 95 70 0 0 3 27 2 58 46 100 100 100 100 100 100 99 100 100 100 100 34 5 4 0 0 100 100 100 100 100 100 100 100 100
38 98 93 92 17 62 94 100 100 42 38 12 0 1 3 0 0 3 5 42 98 100 100 100 100 78 59 100 100 100 100 94 99 97 0 72 100 81 100 100 100 100 100 100
39 100 99 84 1 5 1 91 100 44 9 5 3 11 85 28 57 5 1 1 6 66 57 94 100 4 2 0 5 25 90 100 100 100 25 0 98 100 86 100 100 100 100 100
100 93 100 72 5 91 100 100 87 2 86 33 5 14 96 97 47 4 0 0 0 7 26 24 13 49 4 0 0 0 0 0 0 0 0 0 0 44 100 99 100 100 100 100
19 99 100 100 89 98 100 100 90 5 75 42 10 18 100 100 100 100 63 2 0 0 0 0 0 0 0 0 2 0 0 0 0 0 0 0 0 0 0 1 54 85 84 100
5 5 50 100 99 42 100 100 100 89 42 93 89 95 97 52 96 50 62 73 5 0 0 0 0 0 0 0 0 0 0 0 0 0 0 0 0 0 0 0 0 0 0 0
3 0 1 5 36 98 99 100 100 95 100 57 10 16 5 6 5 86 100 100 95 46 7 4 1 0 0 0 0 0 0 0 0 0 0 0 0 0 0 0 0 0 0 0

GFSCGP_prec_cloud_099.txt.gz
Cloud_Cover
0 0 0 5 9 5 5 29 91 100 100 100 100 100 100 77 99 100 100 42 81 30 92 100 33 2 0 0 0 0 0 0 1 5 1 97 5 55 91 64 1 5 14 6
0 0 0 0 88 84 90 100 62 100 100 100 100 100 100 77 58 100 100 86 50 79 7 3 5 2 4 0 0 0 0 0 2 5 4 5 39 96 18 5 2 5 5 15
0 0 0 0 5 67 95 48 90 100 100 100 100 100 100 100 100 100 100 86 41 98 100 39 3 22 2 1 4 0 0 0 0 0 10 24 87 44 74 61 5 5 5 5
0 0 0 0 0 23 97 92 100 100 100 100 100 100 100 100 84 96 100 100 99 76 17 96 66 100 29 3 1 0 0 0 0 0 36 76 29 5 32 100 8 5 38 5
0 0 0 0 0 1 5 96 100 100 77 100 100 100 100 88 76 47 99 100 85 100 96 68 34 75 100 72 0 0 0 0 0 99 13 100 99 5 0 45 45 5 96 24
0 0 0 0 0 0 65 89 58 53 66 100 100 100 100 88 40 81 89 98 99 100 98 100 97 100 100 25 0 0 5 4 5 100 100 100 100 31 11 0 74 12 5 10
0 0 0 0 0 0 48 9 85 5 43 100 58 91 72 100 100 100 76 100 100 100 100 100 100 79 100 94 27 26 33 90 13 100 100 100 100 98 6 0 3 3 60 1
0 0 0 0 0 0 0 3 9 51 27 96 6 12 99 100 100 79 100 100 100 100 100 100 82 84 99 100 72 100 89 99 48 100 100 100 100 100 97 2 5 43 54 32
0 0 0 0 0 0 0 0 2 12 8 25 94 91 100 100 100 100 100 100 96 87 54 100 84 100 98 100 100 100 100 78 61 46 100 100 100 100 100 46 3 50 100 92
17 0 0 0 0 0 0 0 5 5 4 4 93 100 100 100 100 100 100 100 99 100 49 96 96 100 100 82 100 100 100 100 40 74 96 100 98 99 100 100 100 100 100 100
5 7 0 0 0 0 0 0 0 4 5 0 17 8 2 100 100 100 100 100 100 100 100 100 100 64 100 100 100 100 100 100 89 100 100 100 100 100 100 100 100 100 100 100
80 100 8 0 0 0 0 0 3 5 4 0 0 51 71 45 100 100 100 100 100 100 100 100 100 100 100 100 100 100 100 100 97 97 37 94 100 99 95 99 100 100 100 100
50 100 100 64 3 1 0 0 1 90 9 5 0 35 100 32 100 100 100 100 100 100 100 100 100 100 100 100 100 100 100 99 100 100 100 79 100 100 82 98 100 100 100 100
30 100 100 100 83 5 0 0 0 1 7 5 7 100 100 71 100 100 100 100 100 100 100 100 100 100 100 100 100 100 98 100 100 100 100 100 100 100 100 100 97 100 100 100
100 100 100 100 100 100 100 3 0 0 2 3 8 18 17 67 98 100 100 100 100 100 100 100 100 100 100 100 100 100 100 100 100 100 100 100 100 100 100 100 100 100 92 100
100 100 100 100 100 100 100 100 2 0 2 0 0 68 71 28 0 100 100 100 100 100 100 100 100 100 100 100 100 100 100 100 100 100 100 100 100 100 100 100 100 100 100 100
100 100 100 100 100 100 100 100 82 0 0 5 44 6 47 50 36 62 69 87 96 100 100 100 100 100 100 100 100 100 100 100 100 100 100 100 100 100 100 100 100 100 100 98
100 100 100 100 100 100 100 100 100 62 0 5 5 15 24 41 25 78 100 7 38 100 100 100 100 100 100 100 100 100 100 100 100 100 100 100 100 100 100 100 100 100 100 100
67 100 100 100 100 100 100 100 100 100 37 5 32 96 61 84 100 100 64 89 47 100 100 100 100 100 100 100 100 100 100 100 100 100 100 100 100 100 100 100 100 100 100 100
100 100 100 100 100 100 100 100 100 100 28 80 8 7 36 69 64 71 84 80 19 97 100 100 85 100 72 100 100 98 100 100 100 100 100 100 100 100 100 100 100 100 100 100
100 100 100 100 82 100 100 100 100 100 85 77 76 13 0 4 3 2 4 1 1 100 100 100 90 98 34 53 100 100 47 100 100 100 100 100 100 100 100 100 100 100 100 100
98 75 100 99 15 28 44 85 88 60 56 100 76 84 98 100 100 100 32 54 92 100 88 100 99 66 100 85 83 78 73 42 100 100 100 100 100 100 100 100 100 100 100 100
70 17 5 2 4 5 5 66 100 87 99 98 47 46 100 100 100 100 100 100 100 100 100 90 90 71 95 59 100 99 100 76 87 100 100 100 100 100 100 97 99 100 100 100
2 6 5 0 0 0 5 5 5 68 100 100 93 47 55 96 100 100 100 100 87 5 2 7 37 35 38 5 58 78 77 83 8 78 100 100 100 100 100 100 100 98 100 100
2 5 5 5 5 1 0 5 5 4 51 100 93 58 82 95 100 100 100 100 100 100 91 82 12 2 0 2 3 62 75 33 5 5 49 100 90 76 86 98 100 84 39 100
0 1 1 2 3 5 5 7 5 5 5 93 100 100 100 100 100 100 100 100 100 97 98 100 88 9 2 0 0 0 3 74 63 4 1 24 99 100 100 98 23 25 68 99

GFSCGP_prec_cloud_102.txt.gz
Cloud_Cover
0 0 2 7 5 5 5 100 100 100 100 100 100 100 100 100 100 98 66 96 4 77 99 10 16 2 0 0 0 0 0 0 0 0 0 5 5 86 5 90 8 25 5 5
0 0 0 5 39 5 5 100 100 100 100 100 100 100 100 100 100 100 97 71 19 97 6 31 99 0 0 0 0 0 0 0 0 2 1 3 4 36 12 5 6 5 47 24
0 0 0 0 40 75 90 25 100 100 100 100 100 100 100 100 100 99 100 97 51 19 87 8 0 0 0 0 0 0 0 0 0 0 5 5 0 5 5 2 7 40 17 18
0 0 0 0 18 27 95 96 52 100 100 100 100 100 100 100 100 100 100 96 98 8 15 59 4 5 1 4 0 0 0 0 2 5 45 16 5 0 2 5 2 6 5 34
0 0 0 0 0 2 74 83 71 98 100 100 100 100 99 99 100 99 97 100 68 12 14 64 6 56 6 5 1 0 0 0 4 82 15 42 0 0 0 5 0 0 2 5
0 0 0 0 0 0 21 39 88 70 100 100 100 90 97 84 99 100 88 100 98 86 29 53 15 78 100 6 5 0 0 6 5 100 100 99 96 2 6 12 5 0 0 4
0 0 0 0 0 0 5 88 52 59 93 100 100 100 13 48 94 95 100 100 67 100 95 94 48 100 100 62 7 3 3 83 2 100 54 31 100 95 19 21 100 11 2 4
0 0 0 0 0 0 0 5 5 5 10 85 100 100 100 100 90 100 90 100 92 91 92 97 100 100 100 65 97 1 5 98 5 100 20 18 100 100 96 6 100 100 69 14
0 0 0 0 0 0 0 0 2 7 33 35 94 100 100 91 100 99 100 100 100 84 94 100 100 100 27 100 97 85 68 77 4 100 84 100 100 99 96 100 99 100 100 100
43 0 0 0 0 0 0 0 0 2 5 5 29 95 100 100 100 100 100 100 100 100 75 75 100 100 100 81 85 50 56 90 60 9 52 82 100 99 91 98 99 100 97 86
100 56 0 0 0 0 0 0 0 0 0 0 6 1 86 100 100 100 100 100 100 100 100 81 56 90 100 100 99 84 42 58 100 4 82 100 58 99 100 94 100 97 100 100
100 100 84 4 0 0 0 0 0 0 0 0 0 0 15 100 100 100 100 100 99 100 100 100 51 65 100 100 98 93 83 70 84 70 54 43 99 100 99 98 98 91 100 100
100 100 100 96 12 4 0 0 0 0 0 0 0 2 100 100 98 100 100 100 100 100 100 100 100 100 100 100 100 100 97 100 95 74 99 98 97 100 100 86 83 100 93 100
100 100 100 100 100 19 1 0 0 0 0 0 0 84 100 100 100 100 100 100 100 100 100 100 100 100 100 100 100 100 100 100 100 100 99 100 100 94 100 100 58 100 80 81
91 100 100 100 100 100 82 4 0 0 0 0 0 5 41 100 100 100 100 100 100 100 100 100 100 100 100 100 100 100 100 100 90 100 92 99 100 100 83 100 81 27 100 98
100 100 100 100 54 97 100 98 4 0 0 0 0 16 0 100 100 100 100 100 100 100 100 100 100 100 100 100 100 100 100 100 100 100 100 100 100 100 40 87 81 54 100 100
94 100 100 66 73 63 97 100 68 5 0 0 3 0 8 100 100 100 95 91 100 100 100 100 100 100 100 100 100 100 100 100 100 100 100 100 100 100 99 98 89 100 76 100
89 100 100 91 20 100 69 100 100 51 3 0 14 16 47 97 47 99 100 25 37 95 100 100 100 100 100 100 100 100 100 100 100 100 100 100 100 100 100 100 100 100 100 100
100 100 100 100 98 52 88 100 100 100 54 5 66 100 97 51 88 100 92 98 91 96 100 100 100 100 100 100 100 100 100 100 100 100 100 100 100 75 100 100 100 100 100 100
100 100 100 100 100 94 93 65 100 18 51 88 18 17 23 15 78 99 100 100 100 100 100 100 100 100 100 100 100 100 100 100 100 100 100 100 100 100 100 100 100 100 100 100
100 100 100 94 21 10 92 100 100 76 12 99 83 28 29 30 68 52 99 100 91 46 85 91 82 76 100 100 100 100 100 100 100 100 100 100 100 100 100 100 100 100 100 100
100 100 100 93 5 71 33 100 100 100 100 75 51 69 100 37 54 62 3 36 76 3 3 3 62 35 83 100 100 100 100 100 100 100 100 100 100 100 100 100 100 100 100 100
100 100 100 58 47 16 36 51 100 100 100 100 66 40 95 100 100 100 100 100 17 5 5 5 5 13 90 100 100 100 100 100 100 100 100 100 100 100 100 97 100 100 100 100
9 91 100 87 51 100 97 80 8 98 100 100 94 76 100 100 100 100 100 100 100 95 49 8 42 13 56 24 29 16 9 83 77 90 100 100 100 100 100 99 100 100 100 100
2 1 16 56 92 93 50 76 29 33 55 90 100 84 98 100 100 100 100 100 100 100 100 88 79 100 99 92 54 74 98 11 71 90 96 100 100 100 100 98 100 100 100 100
0 0 3 5 2 2 5 5 6 51 16 5 83 100 100 100 100 100 100 100 100 100 100 100 100 79 75 16 8 15 3 2 0 3 16 7 5 7 5 100 100 100 100 100

GFSCGP_prec_cloud_105.txt.gz
Cloud_Cover
0 0 0 1 5 5 5 100 100 100 100 100 88 67 100 100 100 78 32 52 4 5 36 0 0 0 0 0 0 0 0 5 0 0 0 4 0 0 2 5 5 0 0 0
0 0 1 45 15 5 68 90 100 100 100 100 100 91 100 100 92 90 100 21 5 52 99 27 0 0 0 0 0 0 1 5 1 0 0 0 0 13 0 0 2 5 4 0
0 0 0 51 57 29 98 36 100 100 100 100 100 100 100 100 100 88 76 8 56 91 49 62 4 2 0 0 0 0 0 3 4 0 0 0 0 0 0 0 0 2 5 5
0 0 0 1 92 97 100 61 98 100 100 100 100 100 100 100 100 100 100 97 69 11 6 84 45 5 0 0 0 0 0 0 50 5 4 4 4 0 1 0 0 0 0 5
0 0 0 0 64 99 86 99 91 78 100 100 100 100 100 100 96 84 90 96 5 73 31 5 57 62 1 2 0 0 0 0 5 6 8 4 5 28 0 0 4 5 5 3
0 0 0 0 28 100 100 36 69 94 96 100 100 100 100 100 100 91 100 100 100 67 19 92 53 100 17 4 4 0 0 5 78 10 14 97 16 100 7 1 0 0 0 0
0 0 0 0 0 83 100 100 21 60 98 100 100 100 100 100 100 100 98 98 94 97 100 98 95 91 79 27 5 0 0 2 41 53 5 44 99 15 96 42 5 2 1 4
0 0 0 0 0 0 30 100 90 100 99 100 100 100 100 100 100 100 100 100 100 99 100 83 74 90 54 22 5 4 0 2 12 26 14 100 100 5 5 65 72 34 41 5
7 0 0 0 0 0 0 0 13 79 5 44 100 100 100 100 100 100 100 100 100 100 88 100 81 90 100 83 26 5 6 0 0 58 43 81 100 96 6 5 16 97 51 52
100 7 0 0 0 0 0 0 0 5 46 23 100 100 100 100 100 100 100 100 100 100 86 100 89 100 97 100 93 50 21 90 28 39 5 16 59 57 97 19 98 16 13 77
100 97 3 0 0 0 0 0 0 1 3 29 39 100 100 100 100 100 100 100 87 100 100 100 100 99 100 100 97 86 93 88 32 84 0 7 29 10 33 27 16 13 6 49
99 100 99 1 0 0 0 0 0 0 0 0 2 34 100 100 100 100 100 100 100 100 100 92 100 100 100 96 82 100 78 46 66 15 90 5 91 10 99 100 47 74 5 82
63 100 100 97 2 0 0 0 0 0 0 0 0 0 63 100 100 100 100 100 100 100 100 99 98 100 100 100 100 100 100 100 95 23 80 99 21 95 87 100 84 70 24 72
57 99 100 100 100 9 0 0 0 0 0 2 0 0 55 58 100 100 100 100 100 100 100 100 100 100 100 100 100 100 100 100 100 85 79 93 98 63 100 100 98 100 18 10
6 92 100 100 49 100 10 0 0 0 0 0 0 0 0 73 100 100 100 100 100 100 100 100 100 100 95 100 100 100 100 100 100 100 96 95 100 98 42 100 100 67 100 15
5 6 100 100 100 97 100 38 4 0 0 0 0 0 0 90 100 100 100 100 100 100 100 100 100 100 100 98 100 95 100 100 100 100 100 100 100 100 100 100 100 69 96 98
90 48 90 85 74 88 71 44 16 5 0 0 0 0 2 97 82 96 100 100 100 100 100 100 100 100 100 100 100 100 100 100 100 100 100 100 100 100 100 100 100 100 100 99
100 99 94 93 63 95 22 5 5 5 5 5 0 0 82 100 100 100 99 100 100 100 100 100 100 100 100 100 100 100 100 100 100 100 100 100 100 100 100 100 99 100 100 100
94 96 51 99 5 10 5 28 19 5 5 9 6 97 100 100 100 100 100 99 100 100 100 100 100 100 100 100 100 100 100 100 100 100 100 100 100 100 98 100 67 100 100 100
100 100 73 100 76 83 5 6 98 100 77 30 32 100 100 100 100 100 100 100 39 42 100 100 100 100 100 100 100 100 100 100 100 100 100 100 100 100 100 100 100 88 99 100
52 78 100 100 100 75 84 93 36 100 100 79 40 79 100 86 11 38 100 93 94 100 100 100 100 100 100 100 100 100 100 100 100 100 100 100 100 100 100 100 100 99 85 99
59 100 100 100 100 97 82 37 68 72 49 93 82 55 100 96 39 39 100 100 100 100 93 100 100 100 95 100 100 100 100 100 100 100 100 100 100 100 55 100 100 100 100 96
100 99 100 100 100 100 77 74 78 100 21 99 99 92 5 60 100 100 100 100 100 100 93 100 81 6 5 5 14 100 100 100 100 96 100 100 100 100 91 93 100 100 100 100
7 99 100 100 100 100 100 10 90 100 100 100 13 89 97 90 100 100 100 96 100 78 73 5 25 6 5 21 5 5 4 5 41 99 100 100 100 100 100 100 100 100 100 100
0 0 70 100 100 100 97 6 15 97 90 100 100 100 100 100 100 100 100 100 100 100 95 98 55 6 5 5 5 0 1 3 9 45 100 100 100 100 100 100 100 100 100 100
0 1 0 1 20 29 46 97 27 5 5 12 100 100 100 100 100 100 100 100 100 100 100 100 100 99 71 7 5 5 4 2 3 2 53 92 100 100 100 100 100 100 100 100

GFSCGP_prec_cloud_108.txt.gz
Cloud_Cover
0 0 0 5 5 73 100 100 100 100 100 100 100 100 100 96 95 100 100 97 52 24 30 8 28 0 13 8 18 19 11 5 0 0 12 24 56 43 34 21 0 0 0 0
0 0 0 95 13 10 100 72 100 100 100 100 100 100 100 100 100 98 82 93 94 92 60 53 46 24 17 0 0 14 4 5 5 0 19 56 64 28 24 24 0 0 0 0
0 0 0 0 5 55 99 100 100 100 100 100 100 100 100 100 100 92 100 94 100 97 82 34 41 55 42 5 0 0 65 5 26 18 2 31 66 2 0 6 0 1 3 0
0 0 0 5 14 100 100 100 100 100 100 100 100 100 100 100 100 100 100 100 100 56 80 28 4 9 24 7 2 3 33 49 5 12 4 9 0 0 2 5 46 33 1 0
0 0 0 0 44 74 78 81 100 100 100 100 100 100 100 100 100 93 100 100 97 100 60 94 14 1 20 0 0 0 25 90 59 100 92 17 2 14 1 0 6 4 0 0
0 0 0 0 0 14 20 76 100 100 100 100 100 100 100 100 89 62 100 100 100 85 100 53 27 4 2 1 0 0 0 27 100 97 100 82 18 14 9 6 13 3 4 2
3 0 0 0 0 1 91 96 94 100 100 100 100 100 100 100 100 100 85 100 100 100 81 60 85 66 5 1 0 0 0 0 50 97 86 100 100 73 32 14 7 5 9 27
100 0 0 0 0 0 6 94 61 100 100 100 90 100 100 100 100 100 88 99 100 100 100 28 6 36 5 5 4 1 0 0 40 96 5 10 99 71 94 6 61 31 22 52
100 89 0 0 0 0 0 33 47 86 100 100 96 100 100 100 100 100 100 100 100 100 100 98 6 5 14 5 5 5 0 0 3 72 7 4 29 99 99 31 17 8 30 97
100 100 18 0 0 0 0 0 11 38 80 100 100 100 100 100 100 100 100 100 99 100 100 100 90 69 58 34 7 24 0 0 0 1 6 5 0 28 62 44 78 69 58 79
80 100 98 2 0 0 0 0 0 4 5 100 100 100 100 100 100 100 100 90 44 100 100 100 99 100 72 94 87 82 47 27 88 6 5 4 4 5 1 5 20 100 84 97
49 99 11 91 1 0 0 0 0 0 2 43 86 100 100 100 100 100 100 100 55 93 100 95 100 100 93 82 98 32 91 21 84 2 58 0 5 3 5 3 67 9 78 92
82 100 99 59 17 0 0 0 0 3 3 10 4 28 100 100 100 100 100 100 100 83 100 98 98 100 100 100 99 98 83 65 34 27 3 35 2 3 0 0 31 65 56 5
19 100 55 100 100 23 0 0 0 1 5 31 97 94 100 100 100 100 100 100 100 100 81 100 97 87 100 98 100 100 100 100 91 92 65 34 10 6 27 11 5 5 28 32
27 22 100 48 85 5 20 4 0 0 2 12 100 92 100 100 100 100 100 100 100 100 100 100 100 100 100 100 100 100 100 100 100 95 100 40 25 44 62 32 28 8 5 34
5 48 15 100 7 24 5 0 0 0 5 5 24 100 65 0 26 100 100 100 100 100 100 100 100 100 100 100 100 100 100 100 100 100 84 100 100 64 88 90 65 46 17 14
71 95 12 93 92 63 64 5 0 1 0 2 96 75 46 1 90 100 100 100 100 100 100 100 100 100 100 100 100 100 100 100 99 100 100 100 100 100 100 100 100 51 58 41
43 5 34 43 50 75 100 67 5 2 0 0 0 2 1 54 100 100 97 100 100 100 100 100 100 100 100 100 100 100 100 100 100 100 100 100 100 100 100 100 100 100 100 99
5 10 100 72 84 94 86 37 75 87 6 0 0 0 40 86 100 93 98 87 100 100 99 100 100 100 100 100 100 100 100 99 100 100 100 100 100 100 100 100 100 100 65 99
88 61 65 100 75 100 100 66 100 100 100 94 18 30 100 90 87 98 99 100 75 89 100 100 100 100 100 100 100 100 100 100 100 100 100 100 96 100 100 100 100 100 99 100
99 99 100 100 100 100 6 40 98 100 100 100 68 76 100 100 72 36 76 100 100 100 100 100 100 100 100 100 100 100 100 100 100 100 100 100 100 100 100 100 100 100 100 100
100 86 100 96 100 100 31 31 53 100 72 71 94 15 97 100 92 64 100 97 98 99 100 100 100 100 100 100 100 100 100 100 100 100 100 100 91 100 100 100 100 100 100 99
12 100 92 100 52 100 100 93 100 100 100 100 50 96 100 100 100 87 100 99 67 90 98 98 98 100 100 100 100 100 100 100 100 100 100 100 88 82 100 99 100 100 100 100
0 0 57 98 100 100 100 100 100 100 100 100 100 72 76 100 100 100 100 100 100 100 100 99 82 100 100 100 100 100 94 90 62 92 100 100 100 100 100 100 100 100 100 100
3 3 5 6 100 100 100 100 100 100 100 100 100 100 100 100 100 100 100 100 100 100 100 100 100 100 100 100 85 93 6 5 5 5 51 100 100 100 86 67 88 100 100 100
2 5 5 8 4 94 99 100 100 100 100 100 77 100 100 100 100 100 100 100 100 100 100 100 100 100 100 72 47 67 56 5 93 63 55 47 87 100 100 100 100 100 100 100

GFSCGP_prec_cloud_111.txt.gz
Cloud_Cover
0 0 0 5 18 100 98 100 100 100 100 100 100 100 100 100 100 100 100 100 100 91 100 100 100 51 24 84 86 86 95 22 95 94 100 100 98 97 100 100 4 5 56 0
0 0 0 86 98 97 93 100 100 100 100 100 100 100 100 100 100 100 71 92 100 92 98 92 98 87 51 50 98 30 94 14 48 86 100 91 96 64 100 100 7 77 100 7
0 0 0 61 73 9 97 100 100 100 100 100 100 100 100 100 100 100 100 81 36 9 98 52 66 99 69 21 38 59 56 8 10 100 72 80 55 39 15 100 12 13 19 73
0 0 0 23 24 56 99 70 100 100 100 100 100 100 100 100 100 98 100 97 61 100 73 94 49 95 100 37 29 6 95 86 50 22 100 9 4 2 54 10 100 92 28 100
0 0 0 0 4 38 98 71 96 100 100 100 100 100 100 100 100 100 100 87 100 32 100 82 36 19 31 100 30 44 5 85 100 97 27 7 62 39 76 100 73 0 5 81
15 2 0 0 27 21 46 54 99 100 100 100 100 100 100 100 100 100 100 79 53 45 94 100 51 99 90 85 53 23 0 31 100 65 99 100 5 97 100 67 71 76 76 14
1 2 1 0 28 23 1 98 42 100 100 100 100 100 100 100 100 100 96 100 96 100 99 98 100 66 21 100 48 34 0 0 60 100 58 92 33 7 5 9 28 94 84 100
22 0 0 0 6 8 0 72 70 100 100 100 100 100 100 100 100 100 55 95 100 76 85 92 99 99 99 100 38 19 0 0 2 83 48 68 6 8 43 55 100 76 100 23
64 31 3 0 0 4 2 4 45 100 100 100 100 100 100 100 100 100 99 100 100 99 95 96 96 98 89 44 63 48 0 0 0 28 5 4 6 52 59 72 72 94 56 98
91 88 19 4 0 0 1 14 6 76 94 65 100 100 100 100 100 100 98 100 100 94 100 88 100 76 100 88 95 100 42 7 12 6 5 2 0 5 6 8 15 71 100 100
22 12 99 4 0 0 0 0 5 100 100 100 100 86 100 100 100 100 100 99 100 100 93 99 98 97 5 100 86 67 69 70 93 74 83 7 2 2 4 3 5 27 100 100
5 32 11 73 5 0 0 0 0 0 19 100 100 86 100 100 100 100 100 100 100 100 100 99 100 100 27 70 40 6 68 62 29 38 97 71 89 6 0 0 2 8 29 98
96 84 62 45 96 1 0 2 1 0 19 100 100 100 100 100 100 100 100 100 100 100 73 100 97 94 100 89 66 95 41 88 64 39 57 57 100 99 42 0 4 6 53 26
8 100 87 100 99 67 66 0 4 2 5 60 100 100 100 100 88 84 100 100 100 100 100 100 100 100 100 92 96 98 95 53 88 100 98 90 36 83 97 79 0 5 24 15
5 38 100 100 84 86 100 57 0 4 5 100 100 100 100 100 92 61 100 100 100 100 100 100 97 93 100 100 100 100 100 100 100 100 92 100 100 18 96 29 12 2 51 38
57 58 59 100 97 100 99 95 100 31 5 2 47 100 5 100 95 18 100 100 100 100 100 100 100 100 100 92 73 91 100 100 100 94 100 100 100 100 98 34 39 19 18 15
82 99 9 89 100 100 89 100 44 73 98 39 65 69 4 70 100 33 100 100 100 100 100 100 100 100 100 98 88 100 83 100 73 57 83 96 91 70 89 64 99 98 66 79
100 49 92 99 21 99 100 26 42 40 77 53 57 3 98 26 100 70 46 100 100 100 100 100 100 100 100 95 100 100 100 99 100 84 96 93 100 100 100 100 100 100 98 100
66 84 100 74 100 100 100 55 99 92 11 51 0 84 100 28 60 99 97 100 98 100 100 100 100 100 100 100 100 100 100 100 100 100 100 100 100 100 100 100 100 100 100 100
65 48 18 100 34 98 100 100 83 100 33 100 100 98 41 56 0 90 98 100 100 100 100 100 100 100 100 100 100 100 100 100 100 100 100 100 100 100 100 88 100 100 100 100
31 100 91 94 63 98 100 100 100 100 100 100 100 25 92 82 49 73 36 100 88 100 99 100 100 100 100 100 100 100 100 100 100 100 100 100 100 100 100 100 100 92 100 100
90 100 100 73 17 26 97 74 100 99 100 100 100 63 40 91 100 80 100 88 84 100 100 100 100 100 100 100 100 100 100 100 100 100 100 100 100 100 100 100 100 93 100 100
21 99 98 43 17 88 27 6 7 40 85 100 100 97 94 74 100 73 100 98 100 100 100 100 100 100 100 100 100 100 100 100 100 100 100 100 100 100 100 100 100 99 100 100
6 0 8 7 40 6 33 5 35 5 5 91 100 99 91 97 100 100 100 100 100 100 100 88 83 94 96 100 100 100 100 100 100 100 100 100 100 100 100 100 100 99 98 92
59 6 4 6 98 5 19 29 87 66 28 41 98 55 100 100 100 100 100 100 98 96 100 98 36 18 81 100 96 100 100 100 100 100 100 100 81 88 100 100 100 100 83 98
30 5 49 70 58 52 63 100 95 100 100 100 100 100 100 100 100 100 100 100 100 100 100 100 100 100 76 96 99 96 100 100 100 100 92 41 82 40 76 27 100 100 100 100

GFSCGP_prec_cloud_117.txt.gz
Cloud_Cover
0 0 0 5 13 27 100 100 100 100 100 100 100 100 100 100 100 92 100 99 20 5 58 26 4 0 0 5 0 5 4 4 0 0 0 76 0 1 40 12 57 5 13 14
0 0 0 11 89 64 100 99 21 100 100 100 100 100 100 100 100 100 100 72 5 8 93 3 5 0 33 0 82 62 57 5 4 20 1 0 4 0 36 12 0 16 6 83
0 0 0 23 79 26 100 50 84 100 100 100 100 100 100 100 100 96 100 100 15 8 17 6 5 24 0 0 7 3 45 5 5 5 4 1 3 2 0 21 5 6 27 98
0 0 0 87 80 88 100 79 100 97 100 100 100 100 100 100 100 100 100 100 58 39 5 5 3 19 0 0 0 5 5 5 74 4 79 19 34 4 5 41 43 5 5 8
0 0 0 23 72 66 78 100 100 100 100 100 100 100 100 100 100 100 100 100 83 14 31 92 0 2 4 0 0 2 25 35 6 93 100 24 20 96 5 6 12 5 5 9
1 0 0 0 98 55 34 99 100 100 100 100 100 98 100 100 100 100 100 90 100 100 64 20 74 34 5 6 0 0 12 5 26 100 100 100 99 95 52 86 53 72 52 8
5 0 0 0 4 11 88 86 98 100 100 100 100 100 100 100 100 95 99 100 100 98 98 93 100 4 43 52 21 0 0 5 3 2 20 88 100 73 100 98 100 100 100 96
64 4 0 0 0 1 7 90 96 100 100 100 100 100 100 100 100 100 100 100 100 100 100 73 100 51 95 91 84 0 0 1 42 5 5 5 6 47 100 100 100 100 100 100
5 6 7 2 0 54 40 50 65 63 100 100 100 100 100 100 99 100 100 100 98 71 100 100 20 74 40 91 100 9 0 5 0 0 0 3 0 9 32 98 100 100 100 95
83 0 0 1 3 11 8 72 94 65 100 100 100 100 100 100 100 100 98 98 95 99 85 94 32 40 5 69 71 100 26 0 5 0 0 0 0 0 1 22 82 62 94 100
21 47 1 57 4 0 5 0 5 60 100 100 100 100 100 100 100 100 98 90 100 100 94 99 44 98 22 89 100 76 86 3 3 70 1 0 0 0 0 0 4 5 34 64
3 66 2 67 100 13 5 0 0 0 97 100 100 100 100 100 100 100 100 99 100 100 93 90 100 67 5 100 99 99 100 100 10 76 100 2 0 0 0 0 0 0 4 5
1 69 18 95 100 96 98 18 0 0 43 100 77 100 100 100 100 100 100 100 100 100 100 63 84 76 56 68 43 100 100 100 100 100 100 100 20 0 0 0 0 0 0 5
0 11 20 24 16 20 24 5 0 0 0 7 84 96 100 100 100 99 100 100 100 100 90 100 82 68 55 91 100 100 100 100 100 100 100 100 100 6 4 18 0 5 5 4
5 0 2 16 16 4 7 65 10 44 0 0 1 74 100 100 100 100 100 86 87 98 12 50 99 67 70 100 100 100 100 100 100 100 100 100 100 100 46 17 80 61 98 100
100 28 70 87 36 1 5 92 98 1 0 0 5 8 0 100 100 100 100 100 100 70 95 95 33 85 100 87 100 100 100 100 100 100 100 100 100 100 90 29 22 98 100 100
94 55 5 52 5 9 100 51 57 41 2 0 19 4 4 75 100 100 100 100 100 100 94 99 99 100 94 100 100 100 100 100 100 100 100 100 100 87 54 46 38 92 86 100
8 37 58 5 1 9 26 5 60 100 32 46 30 34 0 5 100 100 100 95 100 100 100 100 100 100 100 100 100 100 100 100 100 100 100 100 82 95 99 55 98 96 78 100
26 20 4 9 11 2 5 67 38 100 89 96 53 3 8 35 23 100 100 100 100 100 100 100 100 100 100 100 100 100 100 100 100 100 95 85 79 81 98 100 100 100 72 99
5 33 10 4 5 4 5 5 100 95 100 100 62 100 14 53 46 100 94 100 100 100 100 100 100 100 100 100 100 100 100 100 100 100 100 99 92 100 100 100 100 91 100 100
78 2 2 8 2 2 3 6 15 100 100 100 100 100 56 11 49 76 9 88 88 100 100 100 100 100 100 100 100 100 100 100 100 100 100 100 100 100 100 100 98 100 94 93
97 6 57 49 17 24 73 100 76 3 59 97 58 100 84 99 98 52 73 76 56 89 100 100 100 100 100 100 100 100 100 100 100 100 100 100 100 100 100 100 100 100 99 56
100 6 42 4 57 21 99 100 100 100 88 100 17 97 52 18 83 100 96 96 92 100 100 100 100 100 100 100 100 100 100 100 100 100 100 100 100 100 100 100 100 100 100 99
68 2 5 0 99 42 92 100 100 100 100 100 23 12 5 56 100 100 98 100 100 100 100 100 100 100 100 100 100 100 100 100 100 100 100 100 100 100 100 100 100 100 96 100
1 5 0 4 65 100 91 42 100 100 100 100 93 44 65 94 100 100 100 100 100 100 100 100 100 100 100 100 100 100 100 100 100 100 100 100 100 100 100 100 100 100 100 100
40 5 3 4 4 35 69 12 6 65 100 100 100 98 92 100 100 100 100 100 100 100 100 100 100 100 94 80 40 70 100 100 100 98 100 100 100 100 100 100 100 100 100 100

GFSCGP_prec_cloud_120.txt.gz
Cloud_Cover
0 0 0 0 22 34 91 100 100 100 100 100 100 100 100 83 99 94 100 96 100 97 11 47 5 7 5 24 5 1 0 5 0 0 7 5 0 2 100 23 92 69 96 32
0 0 0 2 100 68 76 94 100 96 100 100 100 100 100 94 79 77 100 58 88 39 14 0 2 0 1 68 5 2 0 17 28 1 1 5 2 5 5 83 85 65 1 3
0 0 0 62 97 65 4 96 100 100 100 100 100 100 100 100 100 89 98 100 100 47 2 21 4 0 0 1 4 5 0 2 33 17 0 1 2 5 1 4 0 5 4 34
0 0 0 79 90 99 6 99 100 100 100 100 100 100 100 100 100 100 100 100 100 39 5 1 3 0 40 0 5 5 4 0 5 23 6 6 5 6 86 13 5 2 0 4
41 0 0 66 38 98 13 99 100 100 100 100 100 100 100 100 100 100 100 100 93 59 11 12 1 2 0 0 0 5 5 5 3 5 4 1 5 7 18 5 100 6 5 5
0 0 0 56 96 36 79 100 100 100 87 100 100 96 100 100 100 100 100 100 100 98 93 8 72 0 0 3 0 0 3 1 44 19 5 7 5 6 30 13 5 65 27 5
5 1 2 5 45 25 7 89 100 100 100 100 100 100 100 100 100 100 100 93 100 100 79 27 8 2 5 5 4 0 0 4 1 5 7 75 80 34 5 81 67 5 18 95
98 9 5 0 0 4 1 53 100 100 100 100 100 100 100 100 100 100 100 100 100 100 27 96 17 0 0 3 5 5 3 5 2 1 12 5 6 97 31 33 80 100 99 83
96 99 94 3 0 0 0 88 46 77 98 100 77 98 98 100 100 100 100 100 100 100 92 17 92 2 0 94 10 18 4 4 4 0 4 7 16 12 6 27 51 100 98 98
57 26 1 1 8 0 0 47 7 100 99 100 99 100 100 100 100 100 82 100 100 100 98 96 94 3 8 60 41 22 99 6 5 3 3 5 5 1 3 3 44 35 73 100
10 5 38 5 2 62 3 11 57 22 74 100 100 100 100 81 100 100 100 100 85 100 98 85 90 3 41 97 25 100 100 98 40 97 85 18 2 0 3 3 5 5 6 51
92 100 14 83 71 4 7 75 99 5 4 22 100 100 100 97 81 100 99 100 100 100 100 98 99 86 52 98 36 42 100 99 100 100 98 68 54 3 0 0 2 0 4 5
14 100 92 71 100 76 76 19 54 5 0 0 38 100 49 100 95 100 100 100 100 100 100 100 100 100 96 16 10 5 50 8 58 100 100 100 100 100 29 5 5 5 5 4
97 54 100 100 90 36 100 84 5 5 0 0 5 83 100 100 100 100 100 100 100 100 100 100 100 100 100 100 64 5 25 100 100 100 100 100 96 100 100 44 4 53 21 17
85 79 64 100 100 52 5 5 3 0 0 0 1 6 100 100 100 100 100 100 100 100 100 100 100 100 100 98 100 50 95 100 100 100 100 100 100 100 100 100 84 100 100 99
96 5 5 35 34 100 72 33 5 0 0 0 0 24 17 86 100 100 100 100 100 100 100 100 100 100 100 100 100 100 100 100 100 100 100 100 100 100 100 100 100 100 74 90
92 6 5 22 100 48 2 5 5 5 5 0 48 53 50 99 100 100 100 100 100 100 100 100 99 96 94 100 100 100 100 100 100 100 100 100 100 100 100 100 100 100 95 100
78 44 7 5 83 92 5 4 5 1 2 0 0 0 0 100 100 100 100 100 100 100 100 100 100 100 100 100 100 100 100 100 100 100 100 100 100 100 100 100 100 100 100 80
17 27 5 5 5 2 1 5 18 5 5 3 0 0 0 40 100 100 100 100 100 100 100 100 100 100 100 100 100 100 100 100 100 100 100 100 100 100 100 100 100 100 100 100
0 5 31 76 4 5 0 0 0 5 5 14 73 5 19 20 100 100 100 100 100 100 100 100 100 100 100 100 100 100 100 100 100 100 100 100 100 100 100 100 100 100 100 100
5 4 1 0 5 5 5 0 0 0 41 80 91 36 59 89 54 94 100 100 100 100 100 100 100 100 100 100 100 100 100 100 100 100 100 100 100 100 100 100 100 100 100 100
1 4 33 4 1 0 2 0 5 1 0 87 71 91 98 100 100 95 94 100 100 100 100 100 100 100 100 100 100 100 100 100 100 100 100 100 100 100 100 100 100 100 84 84
1 4 87 67 5 0 0 4 59 5 0 0 14 99 82 62 100 100 48 70 100 100 100 98 62 98 100 100 100 100 100 100 100 100 100 100 100 100 100 100 100 100 96 99
16 2 5 7 6 5 0 1 1 8 4 0 1 90 100 99 86 76 99 99 100 100 100 99 100 50 93 100 100 100 100 100 100 100 100 100 100 100 100 100 100 91 100 100
0 3 3 28 95 5 4 12 5 5 5 96 23 11 79 89 75 26 83 99 100 100 100 100 62 100 87 87 100 100 100 100 100 100 100 100 100 100 100 100 100 100 100 100
9 0 0 0 1 2 3 5 5 68 59 100 100 98 7 6 100 63 26 90 89 88 100 57 15 8 95 98 93 93 100 100 100 100 100 100 100 100 100 100 100 100 100 100

GFSCGP_prec_cloud_126.txt.gz
Cloud_Cover
0 0 0 0 0 0 0 5 9 82 44 86 100 100 100 100 92 87 100 84 15 5 5 6 57 18 5 5 5 5 2 0 0 0 0 1 0 0 0 5 0 5 4 0
0 0 0 0 3 0 4 5 25 46 45 34 98 100 100 100 97 62 36 25 5 60 5 58 7 6 3 5 4 1 2 1 1 0 0 0 0 0 0 1 5 5 3 0
0 0 0 0 0 0 3 5 35 49 85 82 99 100 88 98 100 100 62 96 19 5 10 4 5 6 5 4 23 0 0 5 6 4 0 0 0 0 40 0 0 0 1 0
0 0 0 0 0 2 5 33 56 5 78 86 95 100 100 68 100 100 98 64 14 1 18 2 5 0 5 5 50 5 0 5 8 5 5 5 5 3 5 0 0 0 0 0
0 0 0 0 0 0 6 94 45 5 100 98 100 100 100 97 100 100 100 88 4 5 3 8 3 74 5 5 2 4 8 5 5 5 5 24 6 5 5 4 5 0 0 0
0 0 0 0 0 0 53 85 16 3 100 100 91 100 100 100 99 74 87 48 45 2 0 4 69 99 3 0 4 5 98 5 4 37 62 11 5 6 5 7 2 0 0 0
5 3 3 0 0 0 5 39 52 5 95 88 89 100 100 100 66 98 100 100 55 28 5 0 2 47 0 0 0 0 5 15 9 5 6 6 33 53 85 90 100 8 0 0
100 16 6 4 3 4 74 65 7 67 96 94 82 100 100 87 85 47 100 100 100 5 4 0 4 0 0 0 0 0 0 5 12 31 26 5 5 5 74 98 94 95 9 4
92 100 100 93 96 100 63 86 8 61 100 100 68 100 100 99 67 64 100 100 100 22 88 29 5 0 4 0 0 0 0 5 0 0 4 3 2 5 5 59 5 62 83 85
90 96 100 100 94 100 100 85 55 46 100 100 85 100 100 100 64 49 100 100 99 100 96 90 16 19 5 5 2 6 5 5 8 3 0 0 3 0 2 4 5 5 5 18
98 99 100 100 100 100 96 85 38 16 100 100 95 100 100 100 97 84 100 100 99 82 100 100 93 51 3 5 5 5 24 34 12 63 9 8 5 1 2 0 3 3 5 5
94 100 100 81 100 100 54 3 2 10 100 100 100 100 100 100 100 98 100 100 100 50 100 100 100 100 74 2 1 5 5 0 5 5 86 87 100 21 2 5 1 8 43 8
85 99 71 100 100 100 15 5 12 58 100 100 100 100 100 100 100 71 99 100 99 100 83 100 100 90 84 95 12 16 3 5 5 19 56 38 65 100 100 100 71 8 43 62
99 100 100 100 100 100 51 6 5 61 100 100 100 100 100 100 100 99 100 100 100 100 100 100 100 100 100 100 100 68 5 5 50 42 24 17 7 8 37 100 100 100 27 6
100 100 100 100 100 100 100 85 5 2 100 98 100 100 100 100 100 100 100 100 100 100 100 100 100 100 100 100 67 100 99 68 38 44 5 5 5 7 47 100 100 100 100 100
98 100 100 100 100 100 100 93 5 5 0 0 12 100 100 100 100 100 100 100 100 100 100 100 100 100 100 100 100 100 100 99 100 100 100 99 98 8 89 70 100 100 94 100
4 83 100 100 100 100 100 17 12 100 2 0 0 7 73 100 100 100 100 100 100 100 100 100 100 100 100 100 100 100 100 100 100 100 100 100 75 29 39 38 87 82 100 100
0 0 98 100 100 100 35 99 81 92 54 5 5 61 54 100 100 100 100 100 100 100 100 100 100 100 100 100 100 100 100 100 100 100 100 100 100 100 96 97 65 63 99 100
0 0 2 100 100 100 99 4 8 82 78 38 5 5 5 46 100 100 100 100 100 100 100 100 100 100 100 100 100 98 98 100 100 100 100 100 100 100 100 100 96 100 100 100
0 0 0 4 98 100 100 83 4 0 0 0 5 22 5 13 100 100 100 100 100 100 100 100 100 100 100 100 100 100 100 100 100 100 100 100 100 100 100 100 100 100 100 100
20 4 0 0 2 20 65 38 5 0 0 0 0 5 0 2 100 100 100 100 100 100 100 100 100 100 100 100 100 100 100 100 100 100 100 100 100 100 100 100 100 100 100 100
37 11 3 0 0 1 3 8 6 4 0 0 0 14 98 96 100 100 100 100 100 100 100 100 100 100 100 100 100 100 100 100 100 100 100 100 100 100 100 100 100 100 100 100
38 0 0 0 0 0 0 0 1 4 0 0 5 39 44 88 61 81 100 100 98 99 100 100 100 100 100 100 100 100 100 100 100 100 100 100 100 100 100 100 100 100 100 100
0 0 0 0 0 0 0 1 0 0 0 0 0 18 3 11 64 19 7 23 97 98 65 100 100 100 100 100 100 100 100 100 100 100 100 100 100 100 100 100 100 100 100 100
0 0 0 0 0 0 0 0 0 0 0 0 0 0 0 7 97 9 0 6 13 46 77 100 100 100 100 100 100 100 100 100 100 100 100 100 100 100 100 100 100 100 100 100
0 0 0 0 0 0 0 0 0 0 0 1 0 0 0 0 8 0 0 0 0 1 27 90 100 100 100 100 100 100 100 100 100 100 100 100 100 100 100 100 100 100 100 100